     2              OBSERVATION DATA    GPS                 RINEX VERSION / TYPE
ASHTORIN 01 - APR - 99 12:24                                PGM / RUN BY / DATE
                                                            COMMENT
Original Marker Name: SIO2                                  COMMENT
Campaign Name: rose canyon fault                            COMMENT
4-Character Station Name: SIO2                              COMMENT
6-Character Antenna Code: DMRCHT                            COMMENT
Vertical Measurement Point: BPA                             COMMENT
Vertical Offset to Rinex Ref. Point: 0.0000                 COMMENT
Radial Measurement Point: RRP                               COMMENT
Radial Offset to Rinex Ref. Point: 0.0000                   COMMENT
Antenna Height from Field Measurement: 0.0000 m             COMMENT
Additional Antenna Identification Info.:                    COMMENT
Turborogue and Ashtech Choke Ring                           COMMENT
Original XYZ: 0.0000 0.0000 0.0000                          COMMENT
New XYZ position is based on association with SCEC monument COMMENT
E1C8P4W3+0401. Position of that monument is believed to be  COMMENT
valid to within 1 m horizontally; vertical accuracy         COMMENT
should be no worse than 3-times this value.                 COMMENT
                                                            COMMENT
Revised Rinex header created by UCSD GPS archive for        COMMENT
GSAC on 03-Sep-1999 (1999:246) 21:20:21 GMT                 COMMENT
For assistance contact dagnew@ucsd.edu or hjohnson@ucsd.edu COMMENT
                                                            COMMENT
SIO LIBRARY ROOF                                            MARKER NAME
                                                            MARKER NUMBER
sjb SCRIPPS INSTITUTION OF OCEANOGRAPHY                     OBSERVER / AGENCY
755 ASHTECH Z12-XII3 1F501D0                                REC # / TYPE / VERS
409 DORNE-MARGOL. TYPE T                                    ANT # / TYPE
 -2455539.0000 -4767224.0000  3441629.0000                  APPROX POSITION XYZ
        0.0000        0.0000        0.0000                  ANTENNA: DELTA H/E/N
     1     1     0                                          WAVELENGTH FACT L1/2
     7    L1    L2    C1    P1    P2    D1    D2            # / TYPES OF OBSERV
    30                                                      INTERVAL
  1999     3    24     0     0   30.000000                  TIME OF FIRST OBS
  1999     3    24    23    59   30.000000                  TIME OF LAST OBS
                                                            END OF HEADER
 99  3 24  0  0 30.0000000  0  8 10  8 25 17  6 24  5 30             0.000000000
 -15643810.776 9 -12173732.91348  21144578.727    21144578.0134   21144587.7784
        -0.000          -0.000
  -2628073.369 8  -2019594.98845  24584999.902    24584999.9484   24585021.0604
        -0.000          -0.000
  -2369501.267 7  -1837709.10244  25119261.052    25119261.4594   25119277.2674
        -0.000          -0.000
 -10382000.728 9  -7553852.38646  23631843.687    23631843.2364   23631857.7384
        -0.000          -0.000
 -12281700.589 9  -9555622.18248  21641929.955    21641930.0044   21641939.6904
        -0.000          -0.000
 -13942883.668 9 -10841960.65946  22402739.242    22402738.8174   22402748.0974
        -0.000          -0.000
 -17927052.131 9 -13950787.91948  21314275.129    21314274.7944   21314285.0094
        -0.000          -0.000
 -26017136.104 9 -18122928.74749  20488367.604    20488367.9384   20488376.0854
        -0.000          -0.000
 99  3 24  0  1  0.0000000  0  8 10  8 25 17  6 24  5 30            -0.000000140
 -15616479.448 9 -12152435.75548  21149779.709    21149779.0224   21149788.8144
        -0.000          -0.000
  -2542149.121 9  -1952641.36945  24601351.165    24601351.2674   24601371.9894
        -0.000          -0.000
  -2361268.243 8  -1831293.83244  25120827.323    25120827.4634   25120843.3454
        -0.000          -0.000
 -10457760.646 9  -7612885.87246  23617426.568    23617426.3864   23617441.0434
        -0.000          -0.000
 -12339510.405 9  -9600668.70948  21630929.152    21630929.0894   21630938.6244
        -0.000          -0.000
 -13870594.491 9 -10785631.44446  22416495.297    22416494.9134   22416504.1344
        -0.000          -0.000
 -17851735.573 9 -13892099.76048  21328607.598    21328607.2324   21328617.3434
        -0.000          -0.000
 -26012397.563 9 -18119236.37549  20489269.286    20489269.6244   20489277.8334
        -0.000          -0.000
 99  3 24  0  1 30.0000000  0  8 10  8 25 17  6 24  5 30            -0.000000161
 -15588554.866 9 -12130676.33048  21155093.637    21155092.9344   21155102.7414
        -0.000          -0.000
  -2456333.904 9  -1885772.69445  24617682.037    24617682.0024   24617702.1964
        -0.000          -0.000
  -2352607.470 8  -1824545.25244  25122476.028    25122475.1534   25122491.5694
        -0.000          -0.000
 -10533332.843 9  -7671773.06646  23603045.943    23603045.5724   23603060.1084
        -0.000          -0.000
 -12397201.294 9  -9645622.59748  21619950.928    21619950.8194   21619960.4704
        -0.000          -0.000
 -13798249.454 9 -10729258.70446  22430262.057    22430261.7534   22430270.7134
        -0.000          -0.000
 -17776030.800 9 -13833109.08048  21343013.802    21343013.4294   21343023.5334
        -0.000          -0.000
 -26007048.939 9 -18115068.61749  20490287.102    20490287.4094   20490295.6904
        -0.000          -0.000
 99  3 24  0  2  0.0000000  0  8 10  8 25 17  6 24  5 30            -0.000000170
 -15559975.909 9 -12108407.01848  21160532.183    21160531.4684   21160541.1844
        -0.000          -0.000
  -2370565.778 8  -1818940.74145  24634003.728    24634003.6034   24634023.5554
        -0.000          -0.000
  -2343489.521 8  -1817440.43745  25124211.558    25124211.0604   25124226.5914
        -0.000          -0.000
 -10608656.650 9  -7730466.74246  23588712.300    23588711.8164   23588726.2974
        -0.000          -0.000
 -12454718.503 9  -9690441.13548  21609005.843    21609005.7864   21609015.3954
        -0.000          -0.000
 -13725809.800 9 -10672812.18246  22444046.969    22444046.6194   22444055.2704
        -0.000          -0.000
 -17699901.057 9 -13773787.24948  21357500.784    21357500.4304   21357510.6234
        -0.000          -0.000
 -26001045.275 9 -18110390.43649  20491429.583    20491429.8884   20491438.2034
        -0.000          -0.000
 99  3 24  0  2 30.0000000  0  8 10  8 25 17  6 24  5 30            -0.000000184
 -15530776.568 9 -12085654.27148  21166088.814    21166088.0724   21166097.6314
        -0.000          -0.000
  -2284854.841 8  -1752153.28945  24650313.978    24650314.0634   24650334.2914
        -0.000          -0.000
  -2333943.595 7  -1810002.11345  25126028.318    25126027.4434   25126043.9744
        -0.000          -0.000
 -10683760.840 9  -7788989.28446  23574420.009    23574419.7294   23574434.1384
        -0.000          -0.000
 -12512106.581 9  -9735159.04448  21598085.312    21598085.1874   21598094.6454
        -0.000          -0.000
 -13653311.462 9 -10616319.98546  22457842.834    22457842.4604   22457851.2074
        -0.000          -0.000
 -17623389.758 9 -13714168.09148  21372060.540    21372060.1604   21372070.3204
        -0.000          -0.000
 -25994419.274 9 -18105227.31549  20492690.350    20492690.7164   20492699.0794
        -0.000          -0.000
 99  3 24  0  3  0.0000000  0  8 10  8 25 17  6 24  5 30            -0.000000197
 -15500954.816 9 -12062416.54148  21171763.734    21171762.9744   21171772.4434
        -0.000          -0.000
  -2199189.669 8  -1685401.54245  24666615.471    24666615.5474   24666636.0924
        -0.000          -0.000
  -2323936.717 7  -1802204.56644  25127932.031    25127931.5774   25127948.9774
        -0.000          -0.000
 -10758640.296 9  -7847336.71246  23560170.753    23560170.3144   23560184.8134
        -0.000          -0.000
 -12569357.104 9  -9779769.76048  21587190.917    21587190.7694   21587200.1194
        -0.000          -0.000
 -13580735.914 9 -10559767.62446  22471653.199    22471652.9384   22471662.0314
        -0.000          -0.000
 -17546475.457 9 -13654234.93648  21386696.927    21386696.5384   21386706.6714
        -0.000          -0.000
 -25987152.898 9 -18099565.21249  20494073.040    20494073.4484   20494081.8044
        -0.000          -0.000
 99  3 24  0  3 30.0000000  0  8 10  8 25 17  6 24  5 30            -0.000000197
 -15470503.792 9 -12038688.45848  21177558.324    21177557.5724   21177567.0104
        -0.000          -0.000
  -2113571.922 8  -1618686.79945  24682908.718    24682908.4174   24682928.6164
        -0.000          -0.000
  -2313465.033 8  -1794044.90054  25129924.356    25129923.4624          0.0005
        -0.000          -0.000
 -10833269.187 9  -7905488.88746  23545968.992    23545968.5264   23545983.4604
        -0.000          -0.000
 -12626459.827 9  -9824265.30848  21576324.631    21576324.5114   21576333.8154
        -0.000          -0.000
 -13508083.413 8 -10503155.34846  22485478.371    22485478.1774   22485487.6004
        -0.000          -0.000
 -17469135.350 9 -13593969.98748  21401414.243    21401413.9194   21401423.9844
        -0.000          -0.000
 -25979235.262 9 -18093395.61949  20495579.860    20495580.2354   20495588.4974
        -0.000          -0.000
 99  3 24  0  4  0.0000000  0  8 10  8 25 17  6 24  5 30            -0.000000205
 -15439497.992 9 -12014528.08348  21183458.491    21183457.7874   21183467.0704
        -0.000          -0.000
  -2028067.400 8  -1552060.26245  24699179.991    24699179.8334   24699199.8754
        -0.000          -0.000
  -2302592.25417  -1785572.73754  25131994.298    25131992.8175          0.0005
        -0.000          -0.000
 -10907695.531 9  -7963483.23946  23531805.633    23531805.3114   23531820.8464
        -0.000          -0.000
 -12683480.314 9  -9868696.78748  21565473.825    21565473.8044   21565483.0934
        -0.000          -0.000
 -13435413.159 8 -10446529.26745  22499306.815    22499306.6354   22499316.4704
        -0.000          -0.000
 -17391438.017 9 -13533426.67948  21416199.616    21416199.2744   21416209.2674
        -0.000          -0.000
 -25970731.774 9 -18086769.51249  20497198.157    20497198.4954   20497206.6774
        -0.000          -0.000
 99  3 24  0  4 30.0000000  0  8 10  8 25 17  6 24  5 30            -0.000000184
 -15407895.019 9 -11989902.37148  21189472.369    21189471.6544   21189480.8284
        -0.000          -0.000
  -1942660.208 8  -1485509.54445  24715432.459    24715432.2524   24715452.8804
        -0.000          -0.000
  -2291290.63117  -1776766.32754         0.000           0.0005          0.0005
        -0.000          -0.000
 -10981880.738 9  -8021289.70846  23517688.394    23517688.3224   23517704.0494
        -0.000          -0.000
 -12740376.377 9  -9913031.30448  21554646.749    21554646.6894   21554656.0344
        -0.000          -0.000
 -13362663.294 8 -10389841.14245  22513150.295    22513150.1614   22513160.4074
        -0.000          -0.000
 -17313335.703 9 -13472567.80848  21431061.975    21431061.5554   21431071.6624
        -0.000          -0.000
 -25961600.540 9 -18079654.25349  20498935.683    20498936.0024   20498944.2454
        -0.000          -0.000
 99  3 24  0  5  0.0000000  0  8 10  8 25 17  6 24  5 30            -0.000000151
 -15375730.629 9 -11964839.20348  21195592.964    21195592.2574   21195601.5204
        -0.000          -0.000
  -1857401.641 9  -1419074.67345  24731656.841    24731656.7704   24731677.6184
        -0.000          -0.000
  -2279600.930 7   -113110.66742         0.000           0.0004          0.0004
        -0.000          -0.000
 -11055858.752 9  -8078934.71746  23503611.216    23503610.9394   23503626.4714
        -0.000          -0.000
 -12797165.007 9  -9957282.10948  21543840.007    21543840.0204   21543849.4674
        -0.000          -0.000
 -13289861.636 8 -10333112.64046  22527004.038    22527003.6404   22527014.1644
        -0.000          -0.000
 -17234853.348 9 -13411412.78848  21445996.617    21445996.1764   21446006.4084
        -0.000          -0.000
 -25951872.931 9 -18072074.29449  20500786.629    20500787.0304   20500795.2734
        -0.000          -0.000
 99  3 24  0  5 30.0000000  0  8 10  8 25 17  6 24  5 30            -0.000000112
 -15342994.737 9 -11939330.70748  21201822.234    21201821.5654   21201830.9884
        -0.000          -0.000
  -1772280.702 8  -1352747.00045  24747855.342    24747855.0264   24747876.1054
        -0.000          -0.000
  -2267541.487 7   -103706.25842         0.000           0.0004          0.0004
        -0.000          -0.000
 -11129624.376 9  -8136414.20246  23489574.435    23489573.9364   23489589.1064
        -0.000          -0.000
 -12853841.428 9 -10001445.47548  21533054.712    21533054.7664   21533064.2634
        -0.000          -0.000
 -13217012.568 9 -10276347.17846  22540866.916    22540866.5724   22540876.8474
        -0.000          -0.000
 -17155996.262 9 -13349965.76848  21461002.658    21461002.2274   21461012.4254
        -0.000          -0.000
 -25941545.004 9 -18064026.55849  20502752.023    20502752.3904   20502760.5134
        -0.000          -0.000
 99  3 24  0  6  0.0000000  0  8 10  8 25 17  6 24  5 30            -0.000000075
 -15309695.541 9 -11913383.27848  21208158.818    21208158.1384   21208167.6224
        -0.000          -0.000
  -1687308.760 8  -1286535.46645  24764024.948    24764024.8324   24764046.3224
        -0.000          -0.000
  -2255116.395 8    -93988.45152         0.000           0.0004          0.0005
        -0.000          -0.000
 -11203208.807 9  -8193752.53146  23475571.873    23475571.3014   23475586.0464
        -0.000          -0.000
 -12910419.146 9 -10045531.93448  21522288.401    21522288.3804   21522297.9404
        -0.000          -0.000
 -13144112.888 9 -10219542.28446  22554739.553    22554739.1984   22554749.3094
        -0.000          -0.000
 -17076775.397 9 -13288235.29448  21476078.062    21476077.5914   21476087.7974
        -0.000          -0.000
 -25930635.469 9 -18055525.62249  20504828.056    20504828.3734   20504836.4444
        -0.000          -0.000
 99  3 24  0  6 30.0000000  0  8 10  8 25 17  6 24  5 30            -0.000000042
 -15275850.864 9 -11887010.79048  21214599.270    21214598.6094   21214608.1124
        -0.000          -0.000
  -1602492.910 8  -1220445.56345  24780164.885    24780164.6394   24780186.1784
        -0.000          -0.000
  -2242326.293 8     84323.735 1         0.000           0.000           0.000
        -0.000          -0.000
 -11276625.883 9  -8250960.42746  23461600.687    23461600.3024   23461614.6934
        -0.000          -0.000
 -12966898.558 9 -10089541.79448  21511540.676    21511540.6004   21511550.3194
        -0.000          -0.000
 -13071169.062 9 -10162702.97846  22568620.655    22568620.3794   22568630.1914
        -0.000          -0.000
 -16997182.580 9 -13226214.98248  21491224.214    21491223.7254   21491233.9584
        -0.000          -0.000
 -25919161.922 9 -18046585.19249  20507011.428    20507011.7714   20507019.8124
        -0.000          -0.000
 99  3 24  0  7  0.0000000  0  8 10  8 25 17  6 24  5 30            -0.000000033
 -15241493.151 9 -11860238.52048  21221137.402    21221136.7134   21221146.2134
        -0.000          -0.000
  -1517841.382 8  -1154483.70845  24796273.748    24796273.4264   24796294.7414
        -0.000          -0.000
  -2229176.474 8    -70639.95642         0.000           0.0004          0.0004
        -0.000          -0.000
 -11349890.316 9  -8308049.41246  23447658.808    23447658.4144   23447672.5724
        -0.000          -0.000
 -13023289.459 9 -10133482.68248  21500809.818    21500809.7694   21500819.4194
        -0.000          -0.000
 -12998227.464 9 -10105865.44146  22582501.076    22582500.9004   22582510.8204
        -0.000          -0.000
 -16917245.070 9 -13163926.07348  21506435.837    21506435.3454   21506445.6464
        -0.000          -0.000
 -25907151.140 9 -18037226.13449  20509296.985    20509297.3594   20509305.3724
        -0.000          -0.000
 99  3 24  0  7 30.0000000  0  8 10  8 25 17  6 24  5 30            -0.000000014
 -15206555.112 9 -11833014.03748  21227785.944    21227785.2004   21227794.6704
        -0.000          -0.000
  -1433292.610 8  -1088601.90045  24812362.636    24812362.5694   24812384.6604
        -0.000          -0.000
  -2215608.052 8    -60084.55552         0.000           0.0004          0.0005
        -0.000          -0.000
 -11422947.330 9  -8364976.75546  23433756.430    23433755.9684   23433769.9414
        -0.000          -0.000
 -13079531.995 9 -10177307.95948  21490107.217    21490107.1394   21490116.6474
        -0.000          -0.000
 -12925234.874 9 -10048988.13246  22596391.508    22596391.1744   22596400.9814
        -0.000          -0.000
 -16836909.322 9 -13101326.86648  21521723.095    21521722.7014   21521733.0484
        -0.000          -0.000
 -25894551.070 9 -18027407.89149  20511694.808    20511695.1294   20511703.1224
        -0.000          -0.000
 99  3 24  0  8  0.0000000  0  8 10  8 25 17  6 24  5 30             0.000000012
 -15171069.010 9 -11805362.51448  21234538.649    21234537.9354   21234547.4794
        -0.000          -0.000
  -1348885.944 8  -1022830.86345  24828425.131    24828425.0684   24828447.5194
        -0.000          -0.000
  -2201630.158 7    -49210.09952         0.000           0.0004          0.0005
        -0.000          -0.000
 -11495816.127 9  -8421757.44646  23419890.067    23419889.4384   23419903.1804
        -0.000          -0.000
 -13135644.359 9 -10221031.81448  21479429.255    21479429.1814   21479438.6074
        -0.000          -0.000
 -12852217.101 9  -9992091.21046  22610286.584    22610286.1444   22610295.7204
        -0.000          -0.000
 -16756203.567 9 -13038439.33948  21537080.966    21537080.6194   21537090.7654
        -0.000          -0.000
 -25881397.948 9 -18017158.70549  20514197.742    20514198.0164   20514206.1574
        -0.000          -0.000
 99  3 24  0  8 30.0000000  0  8 10  8 25 17  6 24  5 30             0.000000021
 -15135070.201 9 -11777311.48748  21241388.995    21241388.2734   21241397.8494
        -0.000          -0.000
  -1264650.233 8   -957193.02245  24844455.353    24844455.2104   24844477.6644
        -0.000          -0.000
  -2187287.596 8    -37720.69442         0.000           0.0004          0.0004
        -0.000          -0.000
 -11568512.602 9  -8478403.87446  23406056.472    23406055.7254   23406069.2564
        -0.000          -0.000
 -13191647.883 9 -10264670.86048  21468772.037    21468771.9794   21468781.3464
        -0.000          -0.000
 -12779217.022 9  -9935208.08446  22624178.278    22624177.7674   22624187.0104
        -0.000          -0.000
 -16675170.253 9 -12975296.57048  21552501.404    21552500.9744   21552510.8424
        -0.000          -0.000
 -25867718.429 9 -18006499.34249  20516800.734    20516801.0454   20516809.3294
        -0.000          -0.000
 99  3 24  0  9  0.0000000  0  8 10  8 25 17  6 24  5 30             0.000000011
 -15098517.071 9 -11748828.51948  21248344.762    21248344.0774   21248353.6624
        -0.000          -0.000
  -1180556.691 8   -891665.97645  24860457.918    24860458.0834   24860480.7874
        -0.000          -0.000
  -2172564.103 7    -26161.29352         0.000           0.0004          0.0005
        -0.000          -0.000
 -11641023.525 9  -8534905.70846  23392257.729    23392257.0984   23392270.8114
        -0.000          -0.000
 -13247522.178 9 -10308209.20648  21458139.363    21458139.3104   21458148.7834
        -0.000          -0.000
 -12706208.469 9  -9878318.35946  22638071.383    22638070.8204   22638079.7234
        -0.000          -0.000
 -16593795.594 9 -12911887.80548  21567986.574    21567986.1344   21567995.9534
        -0.000          -0.000
 -25853474.190 9 -17995399.94049  20519511.241    20519511.5784   20519519.9854
        -0.000          -0.000
 99  3 24  0  9 30.0000000  0  8 10  8 25 17  6 24  5 30            -0.000000009
 -15061407.277 9 -11719911.78548  21255406.542    21255405.8294   21255415.4214
        -0.000          -0.000
  -1096602.821 8   -826247.77745  24876433.061    24876433.7344   24876457.2674
        -0.000          -0.000
  -2157465.26016    -14309.23252         0.000           0.0005          0.0005
        -0.000          -0.000
 -11713351.246 9  -8591264.76546  23378494.013    23378493.3764   23378507.1754
        -0.000          -0.000
 -13303274.751 9 -10351652.70648  21447529.940    21447529.9444   21447539.3364
        -0.000          -0.000
 -12633175.636 9  -9821409.69546  22651968.972    22651968.5594   22651977.3204
        -0.000          -0.000
 -16512076.523 9 -12848210.66348  21583537.266    21583536.8084   21583546.6904
        -0.000          -0.000
 -25838660.214 9 -17983856.59349  20522330.174    20522330.5464   20522339.0024
        -0.000          -0.000
 99  3 24  0 10  0.0000000  0  7 10  8 17  6 24  5 30               -0.000000029
 -15023744.577 9 -11690564.19848  21262573.435    21262572.7174   21262582.2934
        -0.000          -0.000
  -1012785.127 8   -760935.71645  24892383.481    24892384.0794   24892407.7584
        -0.000          -0.000
 -11785478.322 9  -8647467.46346  23364768.475    23364767.8484   23364781.6014
        -0.000          -0.000
 -13358900.320 9 -10394997.23648  21436944.922    21436944.8224   21436954.1264
        -0.000          -0.000
 -12560116.064 9  -9764480.19446  22665871.814    22665871.4534   22665880.2824
        -0.000          -0.000
 -16430006.325 9 -12784259.93048  21599154.846    21599154.3274   21599164.3154
        -0.000          -0.000
 -25823266.120 9 -17971861.19649  20525259.535    20525259.9484   20525268.3474
        -0.000          -0.000
 99  3 24  0 10 30.0000000  0  7 10  8 17  6 24  5 30               -0.000000058
 -14985524.100 9 -11660781.99948  21269846.424    21269845.7434   21269855.3074
        -0.000          -0.000
   -929099.083 8   -695726.22145  24908309.698    24908309.5144   24908333.2834
        -0.000          -0.000
 -11857405.466 9  -8703514.36846  23351080.607    23351080.1454   23351093.9524
        -0.000          -0.000
 -13414398.114 9 -10438242.21448  21426383.908    21426383.8234   21426393.2824
        -0.000          -0.000
 -12487028.553 9  -9707528.94446  22679780.164    22679779.7354   22679788.7304
        -0.000          -0.000
 -16347577.715 9 -12720029.92448  21614840.499    21614839.9484   21614849.9794
        -0.000          -0.000
 -25807274.521 9 -17959400.20349  20528302.589    20528303.0024   20528311.4464
        -0.000          -0.000
 99  3 24  0 11  0.0000000  0  7 10  8 17  6 24  5 30               -0.000000068
 -14946708.547 9 -11630536.09948  21277232.732    21277232.1084   21277241.6214
        -0.000          -0.000
   -845515.981 8   -630596.87345  24924215.661    24924215.2054   24924238.9594
        -0.000          -0.000
 -11929101.729 9  -8759381.41146  23337436.830    23337436.4794   23337450.3444
        -0.000          -0.000
 -13469746.130 9 -10481370.48948  21415851.330    21415851.3754   21415860.8034
        -0.000          -0.000
 -12413862.082 9  -9650516.15545  22693703.548    22693702.8664   22693711.9344
        -0.000          -0.000
 -16264758.921 9 -12655495.86748  21630600.300    21630599.8184   21630610.0134
        -0.000          -0.000
 -25790642.129 9 -17946439.89649  20531467.650    20531468.0214   20531476.4874
        -0.000          -0.000
 99  3 24  0 11 30.0000000  0  7 10  8 17  6 24  5 30               -0.000000072
 -14907343.577 9 -11599862.06948  21284723.741    21284723.0734   21284732.5354
        -0.000          -0.000
   -762090.814 8   -565590.62345  24940090.907    24940090.4334   24940114.3264
        -0.000          -0.000
 -12000595.167 9  -8815090.42746  23323831.622    23323831.5974   23323845.3914
        -0.000          -0.000
 -13524989.495 9 -10524417.20848  21405338.931    21405338.9024   21405348.2184
        -0.000          -0.000
 -12340658.586 8  -9593474.48045  22707633.589    22707632.7734   22707641.9894
        -0.000          -0.000
 -16181602.348 9 -12590698.62348  21646424.411    21646423.9734   21646434.2134
        -0.000          -0.000
 -25773417.094 9 -17933017.79349  20534745.336    20534745.7614   20534754.3564
        -0.000          -0.000
 99  3 24  0 12  0.0000000  0  7 10  8 17  6 24  5 30               -0.000000064
 -14867422.513 9 -11568754.71448  21292320.340    21292319.6744   21292329.2624
        -0.000          -0.000
   -678837.073 8   -500718.00745  24955934.369    24955933.4454   24955956.9694
        -0.000          -0.000
 -12071875.290 9  -8870633.20246  23310267.329    23310267.3484   23310281.0724
        -0.000          -0.000
 -13580110.271 9 -10567368.40548  21394849.758    21394849.7244   21394858.9944
        -0.000          -0.000
 -12267399.875 8  -9536389.81945  22721573.850    22721573.2114   22721582.6474
        -0.000          -0.000
 -16098104.088 9 -12525635.12048  21662313.699    21662313.3024   21662323.4454
        -0.000          -0.000
 -25755579.630 9 -17919118.47349  20538139.764    20538140.1514   20538148.8194
        -0.000          -0.000
 99  3 24  0 12 30.0000000  0  7 10  8 17  6 24  5 30               -0.000000038
 -14826936.442 9 -11537207.10348  21300024.444    21300023.8004   21300033.4564
        -0.000          -0.000
   -595758.775 8   -435982.11345  24971744.731    24971743.5704   24971765.8014
        -0.000          -0.000
 -12142936.290 9  -8926005.21546  23296744.688    23296744.6304   23296758.4714
        -0.000          -0.000
 -13635101.112 9 -10610218.35148  21384385.419    21384385.3484   21384394.4744
        -0.000          -0.000
 -12194072.522 8  -9479251.64345  22735527.752    22735527.2714   22735536.2754
        -0.000          -0.000
 -16014265.147 9 -12460306.13948  21678267.735    21678267.3284   21678277.4904
        -0.000          -0.000
 -25737116.475 9 -17904731.59249  20541653.153    20541653.5994   20541662.2864
        -0.000          -0.000
 99  3 24  0 13  0.0000000  0  7 10  8 17  6 24  5 30               -0.000000016
 -14785930.485 9 -11505254.38648  21307827.696    21307827.0084   21307836.6174
        -0.000          -0.000
   -512907.378 8   -371422.94545  24987511.155    24987510.1364   24987532.1704
        -0.000          -0.000
 -12213813.232 9  -8981233.82246  23283256.887    23283256.9474   23283270.8694
        -0.000          -0.000
 -13689998.346 9 -10652995.36448  21373938.814    21373938.7204   21373947.7804
        -0.000          -0.000
 -12120721.542 8  -9422095.09445  22749486.246    22749485.8784   22749494.9794
        -0.000          -0.000
 -15930138.364 9 -12394752.85948  21694276.322    21694275.9664   21694286.4024
        -0.000          -0.000
 -25718081.014 9 -17889898.76949  20545275.638    20545276.0614   20545284.6894
        -0.000          -0.000
 99  3 24  0 13 30.0000000  0  7 10  8 17  6 24  5 30                0.000000016
 -14744375.228 9 -11472873.65948  21315735.490    21315734.7544   21315744.3624
        -0.000          -0.000
   -430251.019 8   -307015.72545  25003239.563    25003239.1274   25003261.6374
        -0.000          -0.000
 -12284463.355 9  -9036285.68946  23269812.647    23269812.5944   23269826.5224
        -0.000          -0.000
 -13744749.441 9 -10695658.49948  21363519.901    21363519.8134   21363528.8804
        -0.000          -0.000
 -12047347.030 8  -9364920.16445  22763449.432    22763448.8524   22763458.3474
        -0.000          -0.000
 -15845681.745 9 -12328942.55748  21710347.706    21710347.4194   21710358.1434
        -0.000          -0.000
 -25698453.042 9 -17874604.24349  20549010.920    20549011.2854   20549019.7314
        -0.000          -0.000
 99  3 24  0 14  0.0000000  0  7 10  8 17  6 24  5 30                0.000000052
 -14702266.679 9 -11440061.77748  21323748.479    21323747.7574   21323757.2934
        -0.000          -0.000
   -347758.209 8   -242736.00145  25018937.289    25018937.1304   25018960.2844
        -0.000          -0.000
 -12354871.261 9  -9091148.82646  23256414.823    23256414.5794   23256428.1964
        -0.000          -0.000
 -13799329.914 9 -10738188.67048  21353133.494    21353133.4034   21353142.4484
        -0.000          -0.000
 -11973957.452 7  -9307733.54845  22777414.652    22777414.5034   22777424.2194
        -0.000          -0.000
 -15760862.946 9 -12262850.05248  21726488.343    21726488.0354   21726498.8084
        -0.000          -0.000
 -25678212.567 9 -17858832.44649  20552862.614    20552862.9394   20552871.3364
        -0.000          -0.000
 99  3 24  0 14 30.0000000  0  7 10  8 17  6 24  5 30                0.000000059
 -14659631.286 9 -11406839.36348  21331861.646    21331860.9404   21331870.5544
        -0.000          -0.000
   -265435.433 8   -178588.81345  25034603.394    25034602.8154   25034626.4034
        -0.000          -0.000
 -12425076.343 9  -9145853.90646  23243055.360    23243054.9484   23243068.5164
        -0.000          -0.000
 -13853770.761 9 -10780610.04148  21342773.713    21342773.6454   21342782.6954
        -0.000          -0.000
 -11900610.546 7  -9250580.22645  22791371.424    22791371.9824   22791382.2464
        -0.000          -0.000
 -15675717.320 9 -12196502.88248  21742691.344    21742690.9484   21742701.6054
        -0.000          -0.000
 -25657412.050 9 -17842624.24749  20556820.673    20556821.0094   20556829.3624
        -0.000          -0.000
 99  3 24  0 15  0.0000000  0  7 10  8 17  6 24  5 30                0.000000050
 -14616430.927 9 -11373176.72848  21340082.395    21340081.6894   21340091.2804
        -0.000          -0.000
   -183240.000 8   -114540.85345  25050245.323    25050244.6064   25050268.0794
        -0.000          -0.000
 -12495059.755 9  -9200386.26046  23229737.788    23229737.4074   23229750.9404
        -0.000          -0.000
 -13908041.798 9 -10822899.10048  21332446.192    21332446.0954   21332455.2214
        -0.000          -0.000
 -11827286.790 7  -9193444.88445  22805324.077    22805324.3934   22805335.7254
        -0.000          -0.000
 -15590221.224 9 -12129882.62848  21758960.860    21758960.4654   21758970.9394
        -0.000          -0.000
 -25636037.975 9 -17825969.12749  20560887.903    20560888.3134   20560896.6434
        -0.000          -0.000
 99  3 24  0 15 30.0000000  0  7 10  8 17  6 24  5 30                0.000000028
 -14572636.135 9 -11339050.90948  21348416.382    21348415.6494   21348425.1124
        -0.000          -0.000
   -101128.925 8    -50558.59745  25065870.859    25065870.4574   25065893.0974
        -0.000          -0.000
 -12564805.708 9  -9254733.59546  23216465.732    23216465.2054   23216478.5244
        -0.000          -0.000
 -13962116.386 9 -10865035.08748  21322155.948    21322155.9094   21322165.1214
        -0.000          -0.000
 -11753959.502 7  -9136307.05345  22819277.756    22819277.6644   22819289.2594
        -0.000          -0.000
 -15504347.354 9 -12062967.99848  21775302.136    21775301.7524   21775312.1854
        -0.000          -0.000
 -25614051.909 9 -17808837.11549  20565071.791    20565072.1974   20565080.4364
        -0.000          -0.000
 99  3 24  0 16  0.0000000  0  7 10  8 17  6 24  5 30                0.000000004
 -14528248.004 9 -11304462.75048  21356863.169    21356862.4124   21356871.8014
        -0.000          -0.000
    -19104.747 8     13355.97045  25081480.477    25081479.4924   25081501.6634
        -0.000          -0.000
 -12634331.914 9  -9308909.71046  23203235.558    23203234.7954   23203247.7434
        -0.000          -0.000
 -14016003.591 9 -10907025.04948  21311901.562    21311901.5184   21311910.6354
        -0.000          -0.000
 -11680598.245 6  -9079142.43044  22833238.181    22833237.4024   22833249.4754
        -0.000          -0.000
 -15418107.873 9 -11995768.48548  21791712.931    21791712.5914   21791722.9424
        -0.000          -0.000
 -25591458.990 9 -17791232.23849  20569371.332    20569371.6304   20569379.7714
        -0.000          -0.000
 99  3 24  0 16 30.0000000  0  7 10  8 17  6 24  5 30               -0.000000024
 -14483283.591 9 -11269425.52348  21365419.603    21365418.8984   21365428.1494
        -0.000          -0.000
     62786.751 8     77167.14845  25097064.555    25097063.6334   25097085.0654
        -0.000          -0.000
 -12703660.358 9  -9362931.71246  23190042.912    23190041.9394   23190054.6114
        -0.000          -0.000
 -14069731.470 9 -10948890.85248  21301677.616    21301677.4954   21301686.5254
        -0.000          -0.000
 -11607198.496 7  -9021947.89744  22847204.413    22847204.1794   22847217.3144
        -0.000          -0.000
 -15331549.850 9 -11928320.74048  21808184.443    21808184.1184   21808194.3314
        -0.000          -0.000
 -25568290.543 9 -17773178.89449  20573780.172    20573780.3884   20573788.6104
        -0.000          -0.000
 99  3 24  0 17  0.0000000  0  7 10  8 17  6 24  5 30               -0.000000027
 -14437724.202 9 -11233924.69148  21374089.290    21374088.5564   21374097.7494
        -0.000          -0.000
    144549.011 8    140877.58145  25112623.902    25112623.1024   25112644.0424
        -0.000          -0.000
 -12772760.920 9  -9416776.14846  23176892.786    23176891.9934   23176904.9994
        -0.000          -0.000
 -14123272.068 9 -10990610.73148  21291489.067    21291488.9494   21291498.0984
        -0.000          -0.000
 -11533714.318 7  -8964687.54044  22861187.708    22861188.0794   22861201.0304
        -0.000          -0.000
 -15244641.428 9 -11860599.96548  21824722.753    21824722.3694   21824732.5554
        -0.000          -0.000
 -25544499.285 9 -17754640.25149  20578307.333    20578307.6444   20578316.0384
        -0.000          -0.000
 99  3 24  0 17 30.0000000  0  7 10  8 17  6 24  5 30               -0.000000033
 -14391637.464 9 -11198012.92448  21382859.269    21382858.5554   21382867.7884
        -0.000          -0.000
    226110.712 8    204431.74745  25128144.677    25128144.1774   25128165.2674
        -0.000          -0.000
 -12841686.103 9  -9470483.90946  23163776.037    23163775.5624   23163789.0084
        -0.000          -0.000
 -14176675.255 9 -11032223.53248  21281326.777    21281326.6944   21281335.6834
        -0.000          -0.000
 -11460185.002 7  -8907392.03044  22875179.708    22875180.2214   22875194.0164
        -0.000          -0.000
 -15157418.012 9 -11792633.73048  21841320.803    21841320.4194   21841330.7694
        -0.000          -0.000
 -25520125.270 9 -17735647.49949  20582945.538    20582945.8534   20582954.3224
        -0.000          -0.000
 99  3 24  0 18  0.0000000  0  7 10  8 17  6 24  5 30               -0.000000038
 -14345051.860 9 -11161712.43248  21391724.197    21391723.4384   21391732.7724
        -0.000          -0.000
    307411.356 8    267782.45845  25143615.005    25143615.2774   25143637.0044
        -0.000          -0.000
 -12910453.905 9  -9524069.06446  23150690.071    23150689.5614   23150702.9514
        -0.000          -0.000
 -14229964.099 9 -11073747.21148  21271186.353    21271186.2344   21271194.9284
        -0.000          -0.000
 -11386635.736 7  -8850080.98444  22889176.547    22889176.7434   22889189.9554
        -0.000          -0.000
 -15069905.349 9 -11724442.13348  21857973.847    21857973.5204   21857983.9934
        -0.000          -0.000
 -25495204.565 9 -17716228.77749  20587687.778    20587688.1104   20587696.6024
        -0.000          -0.000
 99  3 24  0 18 30.0000000  0  7 10  8 17  6 24  5 30               -0.000000048
 -14297935.012 9 -11124997.98448  21400690.137    21400689.4014   21400698.8334
        -0.000          -0.000
    388472.528 8    330946.61145  25159041.234    25159041.0374   25159062.6224
        -0.000          -0.000
 -12979017.762 9  -9577495.28746  23137642.836    23137642.2144   23137655.5514
        -0.000          -0.000
 -14283098.580 9 -11115150.61448  21261075.176    21261075.0344   21261083.6474
        -0.000          -0.000
 -11313057.789 8  -8792747.52045  22903177.849    22903177.8604   22903191.0534
        -0.000          -0.000
 -14982074.567 9 -11656002.64648  21874687.494    21874687.1494   21874697.7394
        -0.000          -0.000
 -25469687.387 9 -17696345.26049  20592543.567    20592543.8984   20592552.3754
        -0.000          -0.000
 99  3 24  0 19  0.0000000  0  7 10  8 17  6 24  5 30               -0.000000047
 -14250243.045 9 -11087835.40048  21409765.482    21409764.7684   21409774.2844
        -0.000          -0.000
    469347.736 8    393965.85145  25174433.058    25174432.0224   25174453.5444
        -0.000          -0.000
 -13047336.448 9  -9630730.48047  23124642.245    23124641.7034   23124654.7684
        -0.000          -0.000
 -14336037.057 9 -11156401.29948  21251001.107    21251001.0584   21251009.7324
        -0.000          -0.000
 -11239430.745 8  -8735375.83745  22917188.978    22917188.8994   22917202.2634
        -0.000          -0.000
 -14893873.977 9 -11587274.99148  21891471.461    21891471.1604   21891481.7824
        -0.000          -0.000
 -25443525.967 9 -17675959.73549  20597521.990    20597522.3524   20597530.7474
        -0.000          -0.000
 99  3 24  0 19 30.0000000  0  7 10  8 17  6 24  5 30               -0.000000058
 -14202030.219 9 -11050266.94748  21418940.051    21418939.3774   21418948.8494
        -0.000          -0.000
    550000.448 8    456811.71445  25189781.418    25189780.6354   25189801.3154
        -0.000          -0.000
 -13115453.094 9  -9683808.22847  23111680.181    23111679.4574   23111692.3204
        -0.000          -0.000
 -14388832.583 9 -11197540.58748  21240954.412    21240954.3334   21240963.0004
        -0.000          -0.000
 -11165816.338 8  -8678014.03045  22931197.742    22931197.7424   22931210.9594
        -0.000          -0.000
 -14805365.880 9 -11518307.70648  21908314.151    21908313.8204   21908324.2714
        -0.000          -0.000
 -25416789.762 9 -17655126.32949  20602609.766    20602610.0904   20602618.5384
        -0.000          -0.000
 99  3 24  0 20  0.0000000  0  7 10  8 17  6 24  5 30               -0.000000063
 -14153265.686 9 -11012268.59148  21428219.717    21428218.9934   21428228.3964
        -0.000          -0.000
    630484.164 8    519525.90544  25205096.902    25205096.2254   25205116.8084
        -0.000          -0.000
 -13183315.807 9  -9736688.09947  23098765.925    23098765.3784   23098778.2924
        -0.000          -0.000
 -14441452.138 9 -11238542.76048  21230941.374    21230941.1954   21230949.8094
        -0.000          -0.000
 -11092199.393 8  -8620650.25145  22945206.713    22945206.8034   22945220.0724
        -0.000          -0.000
 -14716530.885 9 -11449085.70548  21925219.003    21925218.6974   21925229.0714
        -0.000          -0.000
 -25389449.714 9 -17633822.39849  20607812.386    20607812.7284   20607821.1234
        -0.000          -0.000
 99  3 24  0 20 30.0000000  0  7 10  8 17  6 24  5 30               -0.000000066
 -14103976.022 9 -10973861.03948  21437599.256    21437598.5394   21437607.8844
        -0.000          -0.000
    710799.890 8    582109.19144  25220380.985    25220380.4304   25220400.4754
        -0.000          -0.000
 -13250949.126 9  -9789389.23947  23085895.473    23085895.0184   23085907.9824
        -0.000          -0.000
 -14493924.193 9 -11279429.99848  21220956.260    21220956.0684   21220964.6454
        -0.000          -0.000
 -11018596.767 8  -8563297.63045  22959212.462    22959212.7374   22959226.0944
        -0.000          -0.000
 -14627386.477 9 -11379622.61248  21942182.788    21942182.4434   21942192.8334
        -0.000          -0.000
 -25361527.929 9 -17612065.16849  20613125.619    20613126.0004   20613134.3794
        -0.000          -0.000
 99  3 24  0 21  0.0000000  0  7 10  8 17  6 24  5 30               -0.000000065
 -14054188.964 9 -10935065.90048  21447073.379    21447072.6414   21447081.9864
        -0.000          -0.000
    790930.998 8    644548.62044  25235629.808    25235629.2194   25235649.2554
        -0.000          -0.000
 -13318385.846 9  -9841937.16847  23073062.965    23073062.3914   23073075.1024
        -0.000          -0.000
 -14546269.599 9 -11320218.54548  21210995.091    21210994.9444   21211003.4834
        -0.000          -0.000
 -10945005.864 8  -8505954.19345  22973216.056    22973216.6044   22973229.7744
        -0.000          -0.000
 -14537950.275 9 -11309932.12447  21959202.105    21959201.6524   21959212.0334
        -0.000          -0.000
 -25333054.628 9 -17589878.18349  20618543.821    20618544.2294   20618552.5514
        -0.000          -0.000
 99  3 24  0 21 30.0000000  0  7 10  8 17  6 24  5 30               -0.000000045
 -14003908.323 9 -10895886.16548  21456641.277    21456640.5774   21456650.0364
        -0.000          -0.000
    870873.568 8    706841.17945  25250842.108    25250841.3864   25250862.9804
        -0.000          -0.000
 -13385615.820 9  -9894323.98447  23060269.791    23060268.9994   23060281.4774
        -0.000          -0.000
 -14598457.782 9 -11360884.59048  21201063.954    21201063.8394   21201072.3344
        -0.000          -0.000
 -10871405.009 8  -8448602.91345  22987221.846    22987222.5064   22987235.5314
        -0.000          -0.000
 -14448214.499 9 -11240008.19747  21976278.011    21976277.6004   21976288.2704
        -0.000          -0.000
 -25304028.940 9 -17567260.78449  20624067.207    20624067.6154   20624075.8814
        -0.000          -0.000
 99  3 24  0 22  0.0000000  0  7 10  8 17  6 24  5 30               -0.000000019
 -13953127.615 9 -10856316.77148  21466304.445    21466303.7574   21466313.2094
        -0.000          -0.000
    950620.123 8    768980.95345  25266017.524    25266016.9204   25266040.0084
        -0.000          -0.000
 -13452642.855 9  -9946552.66947  23047514.771    23047513.9594   23047526.5444
        -0.000          -0.000
 -14650471.317 9 -11401414.54748  21191166.066    21191165.9224   21191174.4554
        -0.000          -0.000
 -10797783.494 8  -8391235.57245  23001231.789    23001232.4384   23001245.5374
        -0.000          -0.000
 -14358177.078 9 -11169849.25747  21993411.506    21993411.0694   21993421.9494
        -0.000          -0.000
 -25274433.675 9 -17544199.55049  20629699.153    20629699.5464   20629707.7314
        -0.000          -0.000
 99  3 24  0 22 30.0000000  0  7 10  8 17  6 24  5 30               -0.000000018
 -13901883.276 9 -10816386.11148  21476055.942    21476055.2564   21476064.6594
        -0.000          -0.000
   1030118.590 8    830927.44345  25281145.906    25281145.2264   25281168.4824
        -0.000          -0.000
 -13519522.994 9  -9998666.89447  23034787.699    23034786.8494   23034799.6744
        -0.000          -0.000
 -14702342.496 9 -11441833.58048  21181295.163    21181295.0954   21181303.5844
        -0.000          -0.000
 -10724173.916 8  -8333877.52645  23015239.949    23015240.4394   23015252.9904
        -0.000          -0.000
 -14267898.188 9 -11099502.15647  22010591.081    22010590.6054   22010601.6294
        -0.000          -0.000
 -25244315.209 9 -17520730.62249  20635430.571    20635430.9294   20635439.1734
        -0.000          -0.000
 99  3 24  0 23  0.0000000  0  7 10  8 17  6 24  5 30               -0.000000042
 -13850137.740 9 -10776064.91748  21485902.795    21485902.0894   21485911.4874
        -0.000          -0.000
   1109406.579 8    892709.82144  25296234.228    25296233.1314   25296256.7374
        -0.000          -0.000
 -13586224.705 9 -10050642.06547  23022094.428    23022093.7164   23022106.7294
        -0.000          -0.000
 -14754018.379 9 -11482100.43948  21171461.654    21171461.5424   21171469.9054
        -0.000          -0.000
 -10650556.531 8  -8276513.37245  23029249.358    23029249.4034   23029261.6304
        -0.000          -0.000
 -14177349.925 9 -11028945.14347  22027821.861    22027821.4564   22027832.5514
        -0.000          -0.000
 -25213639.745 9 -17496827.67749  20641267.847    20641268.2374   20641276.5714
        -0.000          -0.000
 99  3 24  0 23 30.0000000  0  7 10  8 17  6 24  5 30               -0.000000062
 -13797843.066 9 -10735315.81448  21495854.168    21495853.4804   21495862.8264
        -0.000          -0.000
   1188521.827 8    954357.63944  25311289.788    25311288.9604   25311311.5174
        -0.000          -0.000
 -13652693.946 9 -10102436.11147  23009445.423    23009444.9334   23009457.8994
        -0.000          -0.000
 -14805464.176 9 -11522188.01148  21161671.974    21161671.8194   21161680.1094
        -0.000          -0.000
 -10576898.917 8  -8219117.86045  23043265.855    23043265.9394   23043277.6374
        -0.000          -0.000
 -14086490.286 9 -10958145.49747  22045111.931    22045111.5074   22045122.7564
        -0.000          -0.000
 -25182361.709 9 -17472455.19249  20647219.796    20647220.2074   20647228.5264
        -0.000          -0.000
 99  3 24  0 24  0.0000000  0  7 10  8 17  6 24  5 30               -0.000000064
 -13744964.423 9 -10694111.64648  21505916.672    21505915.9444   21505925.3314
        -0.000          -0.000
   1267483.481 8   1015885.78954  25326315.997    25326314.9804   25326337.3095
        -0.000          -0.000
 -13718905.491 9 -10154029.34847  22996845.738    22996845.2764   22996858.1904
        -0.000          -0.000
 -14856679.501 9 -11562095.99348  21151926.116    21151925.8874   21151934.1074
        -0.000          -0.000
 -10503183.660 8  -8161677.42245  23057293.304    23057293.2294   23057304.8684
        -0.000          -0.000
 -13995296.246 9 -10887085.29147  22062465.637    22062465.1634   22062476.6914
        -0.000          -0.000
 -25150446.082 9 -17447585.88149  20653293.177    20653293.5724   20653301.7644
        -0.000          -0.000
 99  3 24  0 24 30.0000000  0  7 10  8 17  6 24  5 30               -0.000000070
 -13691570.038 9 -10652505.60448  21516077.205    21516076.4604   21516085.9954
        -0.000          -0.000
   1346216.028 8   1077235.49444  25341297.745    25341297.3264   25341319.6784
        -0.000          -0.000
 -13784914.520 9 -10205464.77147  22984284.498    22984284.0324   22984296.9474
        -0.000          -0.000
 -14907749.729 9 -11601890.91348  21142207.596    21142207.4254   21142215.6204
        -0.000          -0.000
 -10429482.858 8  -8104248.22645  23071318.429    23071318.2284   23071329.4164
        -0.000          -0.000
 -13903828.853 9 -10815812.07247  22079871.329    22079870.9234   22079882.5574
        -0.000          -0.000
 -25117972.089 9 -17422281.48849  20659472.868    20659473.2544   20659481.3454
        -0.000          -0.000
 99  3 24  0 25  0.0000000  0  7 10  8 17  6 24  5 30               -0.000000074
 -13637671.123 9 -10610506.41548  21526333.744    21526332.9804   21526342.6044
        -0.000          -0.000
   1424703.957 8   1138394.54744  25356233.322    25356232.9854   25356255.2164
        -0.000          -0.000
 -13850718.170 9 -10256740.16247  22971762.502    22971761.9704   22971774.7534
        -0.000          -0.000
 -14958682.812 9 -11641578.96848  21132515.183    21132515.1344   21132523.3324
        -0.000          -0.000
 -10355796.697 8  -8046830.45445  23085340.718    23085340.5524   23085351.3354
        -0.000          -0.000
 -13812077.406 9 -10744317.51847  22097331.033    22097330.6864   22097342.3564
        -0.000          -0.000
 -25084936.308 9 -17396539.33749  20665759.398    20665759.7924   20665767.8314
        -0.000          -0.000
 99  3 24  0 25 30.0000000  0  7 10  8 17  6 24  5 30               -0.000000068
 -13583271.612 9 -10568117.16348  21536685.513    21536684.8234   21536694.4534
        -0.000          -0.000
   1502932.708 8   1199351.61144  25371120.146    25371119.6684   25371142.2824
        -0.000          -0.000
 -13916305.354 9 -10307846.87147  22959281.484    22959280.9714   22959293.6634
        -0.000          -0.000
 -15009486.967 9 -11681166.56048  21122847.468    21122847.3674   21122855.5704
        -0.000          -0.000
 -10282115.042 8  -7989416.14545  23099361.669    23099361.5454   23099372.2984
        -0.000          -0.000
 -13720049.155 9 -10672607.28747  22114843.299    22114842.9334   22114854.7044
        -0.000          -0.000
 -25051328.190 9 -17370351.20349  20672154.743    20672155.1654   20672163.1814
        -0.000          -0.000
 99  3 24  0 26  0.0000000  0  8 10  8 17  6 24  5 30 23            -0.000000047
 -13528358.464 9 -10525327.68248  21547135.290    21547134.6394   21547144.0144
        -0.000          -0.000
   1580936.478 7   1260133.31744  25385964.128    25385963.3934   25385986.0854
        -0.000          -0.000
 -13981665.966 9 -10358777.05347  22946843.558    22946843.0624   22946855.7404
        -0.000          -0.000
 -15060128.814 9 -11720627.68248  21113210.557    21113210.4494   21113218.5814
        -0.000          -0.000
 -10208426.499 8  -7931996.49745  23113384.077    23113383.9274   23113394.7114
        -0.000          -0.000
 -13627727.689 9 -10600668.56447  22132411.557    22132411.1704   22132422.8184
        -0.000          -0.000
 -25017135.343 9 -17343707.43549  20678661.424    20678661.8304   20678669.8074
        -0.000          -0.000
  -1415038.941 8  -1088589.42352         0.000           0.0004          0.0005
        -0.000          -0.000
 99  3 24  0 26 30.0000000  0  8 10  8 17  6 24  5 30 23            -0.000000036
 -13472961.761 9 -10482161.41048  21557677.152    21557676.4714   21557685.5914
        -0.000          -0.000
   1658712.197 8   1320737.35344  25400764.595    25400763.5084   25400787.4784
        -0.000          -0.000
 -14046823.945 9 -10409549.34647  22934444.249    22934443.6964   22934456.3804
        -0.000          -0.000
 -15110605.738 9 -11759960.28348  21103605.102    21103604.9884   21103612.9814
        -0.000          -0.000
 -10134754.092 8  -7874589.44545  23127403.618    23127403.5404   23127414.0514
        -0.000          -0.000
 -13535148.017 9 -10528528.64047  22150028.890    22150028.4344   22150040.0024
        -0.000          -0.000
 -24982378.695 9 -17316624.34349  20685275.463    20685275.8024   20685283.7614
        -0.000          -0.000
  -1522225.34318   -883318.14252         0.000           0.0005          0.0005
        -0.000          -0.000
 99  3 24  0 27  0.0000000  0  8 10  8 17  6 24  5 30 23            -0.000000041
 -13417061.452 9 -10438602.71148  21568314.722    21568314.0374   21568323.0254
        -0.000          -0.000
   1736288.634 7   1381186.17544  25415527.391    25415526.1074   25415550.2154
        -0.000          -0.000
 -14111768.389 9 -10460155.22847  22922085.454    22922084.9714   22922097.5404
        -0.000          -0.000
 -15160877.253 9 -11799132.82848  21094038.638    21094038.5514   21094046.5174
        -0.000          -0.000
 -10061075.274 8  -7817177.36745  23141424.563    23141424.2954   23141434.5774
        -0.000          -0.000
 -13442296.868 9 -10456177.16747  22167697.964    22167697.4924   22167708.9194
        -0.000          -0.000
 -24947023.511 9 -17289074.86349  20692003.354    20692003.6444   20692011.7444
        -0.000          -0.000
  -1629394.248 8   -966826.05142         0.000           0.0004          0.0004
        -0.000          -0.000
 99  3 24  0 27 30.0000000  0  8 10  8 17  6 24  5 30 23            -0.000000052
 -13360635.795 9 -10394634.64248  21579052.218    21579051.5234   21579060.4354
        -0.000          -0.000
   1813693.477 7   1441501.23744  25430256.495    25430255.2524   25430280.2714
        -0.000          -0.000
 -14176483.380 9 -10510582.31847  22909770.477    22909769.9964   22909782.2654
        -0.000          -0.000
 -15210921.879 9 -11838128.56148  21084515.380    21084515.3144   21084523.2934
        -0.000          -0.000
  -9987378.082 8  -7759750.97045  23155448.805    23155448.5574   23155459.1444
        -0.000          -0.000
 -13349156.483 9 -10383600.33447  22185422.078    22185421.7024   22185432.9474
        -0.000          -0.000
 -24911063.552 9 -17261054.13349  20698846.299    20698846.5874   20698854.7644
        -0.000          -0.000
  -1736527.603 8  -1050306.21452         0.000           0.0004          0.0005
        -0.000          -0.000
 99  3 24  0 28  0.0000000  0  8 10  8 17  6 24  5 30 23            -0.000000073
 -13303695.918 9 -10350265.89248  21589887.588    21589886.7934   21589895.8174
        -0.000          -0.000
   1890927.261 8   1501682.95544  25444953.480    25444953.0144   25444978.4464
        -0.000          -0.000
 -14240979.886 9 -10560839.15347  22897497.147    22897496.6934   22897508.6184
        -0.000          -0.000
 -15260740.303 9 -11876948.03848  21075035.200    21075035.1174   21075043.1364
        -0.000          -0.000
  -9913672.012 8  -7702317.64445  23169474.156    23169473.9584   23169485.1274
        -0.000          -0.000
 -13255733.336 9 -10310803.17847  22203200.023    22203199.7044   22203210.9284
        -0.000          -0.000
 -24874521.560 9 -17232579.87249  20705799.969    20705800.2734   20705808.5004
        -0.000          -0.000
  -1843626.13318  -1133758.71845         0.000           0.0005   24926250.3864
        -0.000          -0.000
 99  3 24  0 28 30.0000000  0  8 10  8 17  6 24  5 30 23            -0.000000083
 -13246224.734 9 -10305483.14848  21600823.898    21600823.1314   21600832.3294
        -0.000          -0.000
   1967979.121 7   1561722.85454  25459615.982    25459616.2644          0.0005
        -0.000          -0.000
 -14305235.954 9 -10610908.65247  22885269.669    22885269.1684   22885280.9984
        -0.000          -0.000
 -15310321.625 9 -11915582.76548  21065600.111    21065600.0294   21065608.1254
        -0.000          -0.000
  -9839942.909 8  -7644866.41445  23183504.207    23183504.1334   23183515.2724
        -0.000          -0.000
 -13162017.235 9 -10237777.73747  22221033.843    22221033.5184   22221044.6864
        -0.000          -0.000
 -24837389.389 9 -17203645.72349  20712866.026    20712866.3314   20712874.5634
        -0.000          -0.000
  -1950668.066 8  -1217167.23545  24905859.795    24905856.2944   24905880.7054
        -0.000          -0.000
 99  3 24  0 29  0.0000000  0  8 10  8 17  6 24  5 30 23            -0.000000091
 -13188260.519 9 -10260316.22148  21611854.053    21611853.2664   21611862.5884
        -0.000          -0.000
   2044789.512 7   1621574.74254  25474233.056    25474232.9654          0.0005
        -0.000          -0.000
 -14369289.875 9 -10660820.64347  22873080.291    22873079.8974   22873091.8584
        -0.000          -0.000
 -15359715.593 9 -11954071.50448  21056200.765    21056200.6164   21056208.7474
        -0.000          -0.000
  -9766230.938 8  -7587428.56045  23197531.498    23197531.4734   23197541.9694
        -0.000          -0.000
 -13068028.251 9 -10164539.66747  22238919.621    22238919.2264   22238930.3154
        -0.000          -0.000
 -24799722.040 9 -17174294.55849  20720033.886    20720034.2394   20720042.5284
        -0.000          -0.000
  -2057673.393 8  -1300547.26545  24885495.977    24885494.3014   24885517.3524
        -0.000          -0.000
 99  3 24  0 29 30.0000000  0  8 10  8 17  6 24  5 30 23            -0.000000078
 -13129786.052 9 -10214751.70448  21622981.202    21622980.4424   21622989.9014
        -0.000          -0.000
   2121371.195 7   1681248.22554  25488806.145    25488805.9964          0.0005
        -0.000          -0.000
 -14433111.360 9 -10710551.51147  22860935.086    22860934.7254   22860946.8504
        -0.000          -0.000
 -15408910.762 9 -11992405.34048  21046839.109    21046838.9874   21046847.1514
        -0.000          -0.000
  -9692522.719 8  -7529993.60745  23211557.631    23211557.4344   23211567.9414
        -0.000          -0.000
 -12973746.458 9 -10091073.44147  22256861.106    22256860.6554   22256871.6404
        -0.000          -0.000
 -24761507.405 9 -17144516.94649  20727305.929    20727306.2454   20727314.6124
        -0.000          -0.000
  -2164593.735 8  -1383861.09845  24865148.819    24865147.6474   24865170.2924
        -0.000          -0.000
 99  3 24  0 30  0.0000000  0  8 10  8 17  6 24  5 30 23            -0.000000080
 -13070864.530 9 -10168838.81648  21634193.460    21634192.7204   21634202.2574
        -0.000          -0.000
   2197655.036 7   5350988.88342         0.000           0.0004          0.0004
        -0.000          -0.000
 -14496753.103 9 -10760142.30347  22848824.335    22848823.9394   22848836.1114
        -0.000          -0.000
 -15457962.613 9 -12030627.49348  21037504.722    21037504.6294   21037512.8024
        -0.000          -0.000
  -9618873.605 8  -7472604.66245  23225572.391    23225572.0514   23225582.7254
        -0.000          -0.000
 -12879240.134 9 -10017432.24547  22274845.093    22274844.6454   22274855.6654
        -0.000          -0.000
 -24722790.852 9 -17114348.21149  20734673.401    20734673.7444   20734682.0454
        -0.000          -0.000
  -2271495.337 8  -1467160.30245  24844806.298    24844805.2094   24844827.1244
        -0.000          -0.000
 99  3 24  0 30 30.0000000  0  8 10  8 17  6 24  5 30 23            -0.000000067
 -13011463.400 9 -10122552.21848  21645496.968    21645496.2354   21645505.8454
        -0.000          -0.000
   2273674.312 8   5410213.82852         0.000           0.0004          0.0005
        -0.000          -0.000
 -14560166.047 9 -10809554.82147  22836757.402    22836756.9234   22836768.9484
        -0.000          -0.000
 -15506827.821 9 -12068704.21148  21028205.864    21028205.8064   21028213.9784
        -0.000          -0.000
  -9545234.758 8  -7415223.71145  23239585.144    23239584.7734   23239596.1174
        -0.000          -0.000
 -12784472.842 9  -9943587.71847  22292878.727    22292878.3214   22292889.4084
        -0.000          -0.000
 -24683515.383 9 -17083743.96649  20742147.277    20742147.6304   20742155.8294
        -0.000          -0.000
  -2378341.210 8  -1550416.06745  24824474.690    24824473.3944   24824494.6224
        -0.000          -0.000
 99  3 24  0 31  0.0000000  0  8 10  8 17  6 24  5 30 23            -0.000000068
 -12951634.505 9 -10075932.29048  21656881.854    21656881.1734   21656890.8674
        -0.000          -0.000
   2349399.928 7   5469202.18452         0.000           0.0004          0.0005
        -0.000          -0.000
 -14623388.246 9 -10858818.73147  22824726.522    22824726.0914   22824738.0394
        -0.000          -0.000
 -15555537.114 9 -12106659.45149  21018936.831    21018936.8034   21018944.8354
        -0.000          -0.000
  -9471636.192 8  -7357874.19645  23253590.204    23253590.0554   23253601.4314
        -0.000          -0.000
 -12689491.769 9  -9869576.58247  22310953.052    22310952.6094   22310963.7344
        -0.000          -0.000
 -24643705.156 9 -17052723.03249  20749722.884    20749723.2554   20749731.4634
        -0.000          -0.000
  -2485174.138 8  -1633661.76845  24804145.333    24804143.7894   24804164.6954
        -0.000          -0.000
 99  3 24  0 31 30.0000000  0  8 10  8 17  6 24  5 30 23            -0.000000066
 -12891348.482 9 -10028956.15548  21668354.000    21668353.2914   21668363.0024
        -0.000          -0.000
   2424879.127 7   5378763.97542         0.000           0.0004          0.0004
        -0.000          -0.000
 -14686385.562 9 -10907907.40447  22812738.447    22812737.9804   22812749.8424
        -0.000          -0.000
 -15604045.350 9 -12144458.01449  21009706.137    21009706.0734   21009713.9874
        -0.000          -0.000
  -9398037.482 8  -7300524.59445  23267595.481    23267595.5074   23267607.4684
        -0.000          -0.000
 -12594290.552 9  -9795393.91247  22329068.954    22329068.6184   22329079.9174
        -0.000          -0.000
 -24603320.895 9 -17021254.79549  20757407.669    20757408.0864   20757416.3894
        -0.000          -0.000
  -2591973.657 9  -1716881.45645  24783822.003    24783820.3984   24783841.0024
        -0.000          -0.000
 99  3 24  0 32  0.0000000  0  8 10  8 17  6 24  5 30 23            -0.000000063
 -12830619.849 9  -9981635.13448  21679910.264    21679909.5714   21679919.3244
        -0.000          -0.000
   2500105.974 7   5437379.71852         0.000           0.0004          0.0005
        -0.000          -0.000
 -14749171.825 9 -10956831.61047  22800790.432    22800789.9824   22800801.8844
        -0.000          -0.000
 -15652356.827 9 -12182103.26849  21000512.732    21000512.6784   21000520.5714
        -0.000          -0.000
  -9324440.131 8  -7243176.02645  23281600.772    23281600.9234   23281613.0644
        -0.000          -0.000
 -12498881.583 9  -9721049.35947  22347224.693    22347224.3684   22347235.6174
        -0.000          -0.000
 -24562377.631 9 -16989350.96849  20765198.763    20765199.2224   20765207.6804
        -0.000          -0.000
  -2698765.720 8  -1800095.34445  24763499.741    24763498.4984   24763518.7414
        -0.000          -0.000
 99  3 24  0 32 30.0000000  0  8 10  8 17  6 24  5 30 23            -0.000000035
 -12769405.277 9  -9933935.46948  21691559.049    21691558.4064   21691568.0504
        -0.000          -0.000
   2575116.914 7   5495824.61552         0.000           0.0004          0.0005
        -0.000          -0.000
 -14811714.707 9 -11005566.16847  22788888.709    22788888.2124   22788900.3474
        -0.000          -0.000
 -15700423.089 9 -12219557.44349  20991365.823    20991365.8504   20991373.7504
        -0.000          -0.000
  -9250804.830 8  -7185797.90444  23295613.356    23295613.5034   23295625.8664
        -0.000          -0.000
 -12403216.064 9  -9646504.91047  22365429.373    22365429.0354   22365440.2564
        -0.000          -0.000
 -24520851.288 9 -16956992.79449  20773101.017    20773101.4514   20773110.0074
        -0.000          -0.000
  -2805490.235 8  -1883256.57545  24743189.803    24743188.7104   24743208.9764
        -0.000          -0.000
 99  3 24  0 33  0.0000000  0  8 10  8 17  6 24  5 30 23            -0.000000017
 -12707736.893 9  -9885882.17148  21703294.256    21703293.6024   21703302.9284
        -0.000          -0.000
   2649858.91417   5406566.30842         0.000           0.0005          0.0004
        -0.000          -0.000
 -14874076.910 9 -11054159.93447  22777021.532    22777020.9074   22777033.0594
        -0.000          -0.000
 -15748306.172 9 -12256868.86449  20982253.933    20982253.9284   20982261.8604
        -0.000          -0.000
  -9177193.602 8  -7128438.52744  23309621.360    23309621.4254   23309633.4954
        -0.000          -0.000
 -12307341.610 9  -9571797.63947  22383673.919    22383673.4954   22383684.6914
        -0.000          -0.000
 -24478813.082 9 -16924235.76949  20781100.702    20781101.1134   20781109.7374
        -0.000          -0.000
  -2912189.711 8  -1966398.36945  24722884.353    24722883.5064   24722903.8874
        -0.000          -0.000
 99  3 24  0 33 30.0000000  0  8 10  8 17  6 24  5 30 23             0.000000011
 -12645576.791 9  -9837445.71448  21715122.936    21715122.2444   21715131.3794
        -0.000          -0.000
   2724359.98016   5464677.02952         0.000           0.0005          0.0005
        -0.000          -0.000
 -14936234.370 9 -11102594.19347  22765193.099    22765192.5854   22765204.5874
        -0.000          -0.000
 -15795988.053 9 -12294023.51748  20973180.317    20973180.2204   20973188.2524
        -0.000          -0.000
  -9103578.700 7  -7071076.24944  23323630.541    23323629.5184   23323641.2394
        -0.000          -0.000
 -12211224.747 9  -9496901.47347  22401964.629    22401964.1424   22401975.2784
        -0.000          -0.000
 -24436240.705 9 -16891062.51249  20789202.075    20789202.4454   20789211.1304
        -0.000          -0.000
  -3018840.558 8  -2049502.24845  24702588.431    24702587.6964   24702607.7384
        -0.000          -0.000
 99  3 24  0 34  0.0000000  0  7 10 17  6 24  5 30 23                0.000000023
 -12582955.233 9  -9788649.69548  21727039.372    21727038.7044   21727047.8124
        -0.000          -0.000
 -14998221.595 9 -11150895.77747  22753397.172    22753396.7314   22753408.5334
        -0.000          -0.000
 -15843507.934 9 -12331051.94448  20964137.356    20964137.3204   20964145.4594
        -0.000          -0.000
  -9030003.53116  -7013744.97754  23337631.190    23337630.9825          0.0005
        -0.000          -0.000
 -12114877.093 9  -9421825.48447  22420299.159    22420298.7004   22420309.7584
        -0.000          -0.000
 -24393162.778 9 -16857495.30649  20797399.529    20797399.8704   20797408.6374
        -0.000          -0.000
  -3125463.351 8  -2132584.30345  24682297.522    24682297.2334   24682317.2204
        -0.000          -0.000
 99  3 24  0 34 30.0000000  0  7 10 17  6 24  5 30 23                0.000000016
 -12519851.147 9  -9739477.68448  21739047.843    21739047.1214   21739056.2554
        -0.000          -0.000
 -15060028.091 9 -11199056.53347  22741635.927    22741635.4334   22741646.7944
        -0.000          -0.000
 -15890847.973 9 -12367940.22748  20955128.819    20955128.7574   20955136.9394
        -0.000          -0.000
  -8956473.53517  -6956449.02353         0.000           0.0005          0.0005
        -0.000          -0.000
 -12018290.503 9  -9346563.31747  22438679.038    22438678.6664   22438689.5954
        -0.000          -0.000
 -24349563.144 9 -16823521.58449  20805696.157    20805696.6064   20805705.2694
        -0.000          -0.000
  -3232033.282 8  -2215625.18345  24662017.388    24662017.0224   24662036.7364
        -0.000          -0.000
 99  3 24  0 35  0.0000000  0  6 10 17  6  5 30 23                  -0.000000081
 -12456109.772 9  -9689809.07548  21751177.540    21751176.8134   21751185.9734
        -0.000          -0.000
 -15121493.430 9 -11246951.46347  22729939.596    22729939.0114   22729950.0274
        -0.000          -0.000
 -15937853.885 9 -12404568.15448  20946183.808    20946183.7394   20946191.9954
        -0.000          -0.000
 -11921318.064 9  -9271000.50147  22457132.451    22457132.0114   22457142.9074
        -0.000          -0.000
 -24305264.350 9 -16789003.06049  20814126.027    20814126.4404   20814134.9494
        -0.000          -0.000
  -3338408.247 8  -2298514.11945  24641774.971    24641774.2964   24641793.8784
        -0.000          -0.000
 99  3 24  0 35 30.0000000  0  6 10 17  6  5 30 23                  -0.000000058
 -12391963.524 9  -9639824.97348  21763384.195    21763383.4734   21763392.6974
        -0.000          -0.000
 -15182832.355 9 -11294747.87147  22718267.192    22718266.5524   22718277.3214
        -0.000          -0.000
 -15984719.560 9 -12441086.79148  20937265.577    20937265.4934   20937273.7554
        -0.000          -0.000
 -11824183.144 9  -9195311.03747  22475616.492    22475616.0754   22475627.2924
        -0.000          -0.000
 -24260474.183 9 -16754101.64949  20822649.582    20822649.9194   20822658.1584
        -0.000          -0.000
  -3444810.299 8  -2381424.22545  24621527.077    24621526.2444   24621545.9324
        -0.000          -0.000
 99  3 24  0 36  0.0000000  0  6 10 17  6  5 30 23                   0.000000004
 -12327359.243 9  -9589483.97548  21775677.826    21775677.1834   21775686.4134
        -0.000          -0.000
 -15243972.730 9 -11342389.58747  22706632.327    22706631.7274   22706642.4254
        -0.000          -0.000
 -16031367.096 9 -12477435.46648  20928388.653    20928388.5794   20928397.0124
        -0.000          -0.000
 -11726825.783 9  -9119448.24747  22494142.759    22494142.4204   22494154.0874
        -0.000          -0.000
 -24215143.006 9 -16718778.67548  20831275.801    20831276.0984   20831284.3574
        -0.000          -0.000
  -3551150.184 8  -2464285.84245  24601290.578    24601289.8334   24601310.1254
        -0.000          -0.000
 99  3 24  0 36 30.0000000  0  6 10 17  6  5 30 23                  -0.000000013
 -12262281.648 9  -9538774.15848  21788061.675    21788061.0394   21788070.2084
        -0.000          -0.000
 -15304885.164 9 -11389853.65947  22695040.827    22695040.2014   22695051.1124
        -0.000          -0.000
 -16077765.109 9 -12513589.69249  20919559.328    20919559.3404   20919567.7104
        -0.000          -0.000
 -11629236.476 9  -9043404.74347  22512713.278    22512712.9344   22512724.9254
        -0.000          -0.000
 -24169254.960 9 -16683021.77648  20840007.781    20840008.1534   20840016.6044
        -0.000          -0.000
  -3657407.226 8  -2547082.95745  24581069.459    24581069.2024   24581089.7154
        -0.000          -0.000
 99  3 24  0 37  0.0000000  0  6 10 17  6  5 30 23                  -0.000000025
 -12196736.245 9  -9487699.83348  21800534.464    21800533.8644   21800542.9884
        -0.000          -0.000
 -15365564.067 9 -11437135.77847  22683493.858    22683493.1754   22683504.1574
        -0.000          -0.000
 -16123916.447 9 -12549551.70349  20910777.113    20910777.0504   20910785.2664
        -0.000          -0.000
 -11531408.161 9  -8967174.98647  22531329.387    22531329.0764   22531341.1944
        -0.000          -0.000
 -24122808.657 9 -16646829.87849  20848846.108    20848846.5444   20848855.1274
        -0.000          -0.000
  -3763581.172 8  -2629815.33545  24560864.414    24560864.2894   24560885.2584
        -0.000          -0.000
 99  3 24  0 37 30.0000000  0  6 10 17  6  5 30 23                  -0.000000029
 -12130773.087 9  -9436299.97348  21813086.956    21813086.3144   21813095.3444
        -0.000          -0.000
 -15426041.716 9 -11484261.08247  22671984.977    22671984.4224   22671995.5684
        -0.000          -0.000
 -16169860.764 9 -12585352.40149  20902034.157    20902034.1134   20902042.2714
        -0.000          -0.000
 -11433375.669 9  -8890786.14447  22549984.490    22549984.1614   22549996.1244
        -0.000          -0.000
 -24075871.880 9 -16610255.79049  20857778.079    20857778.4704   20857786.9824
        -0.000          -0.000
  -3869682.533 8  -2712491.17245  24540673.455    24540673.3074   24540694.5684
        -0.000          -0.000
 99  3 24  0 38  0.0000000  0  6 10 17  6  5 30 23                  -0.000000036
 -12064420.784 9  -9384596.87648  21825713.426    21825712.7444   21825721.8074
        -0.000          -0.000
 -15486341.888 9 -11531248.09147  22660509.963    22660509.5964   22660520.7864
        -0.000          -0.000
 -16215641.581 9 -12621025.69149  20893322.359    20893322.3444   20893330.4114
        -0.000          -0.000
 -11335167.776 9  -8814260.61147  22568673.137    22568672.7334   22568684.4834
        -0.000          -0.000
 -24028472.233 9 -16573321.02349  20866798.089    20866798.4464   20866806.7924
        -0.000          -0.000
  -3975727.800 8  -2795123.28645  24520493.268    24520492.9874   24520514.4644
        -0.000          -0.000
 99  3 24  0 38 30.0000000  0  6 10 17  6  5 30 23                  -0.000000036
 -11997635.543 9  -9332556.42048  21838422.209    21838421.5254   21838430.5694
        -0.000          -0.000
 -15546441.975 9 -11578079.19347  22649073.311    22649072.8734   22649083.9664
        -0.000          -0.000
 -16261224.182 9 -12656544.53249  20884648.216    20884648.1694   20884656.2784
        -0.000          -0.000
 -11236758.597 9  -8737578.25147  22587400.047    22587399.6284   22587411.1594
        -0.000          -0.000
 -23980562.247 9 -16535988.58749  20875915.124    20875915.4844   20875923.7144
        -0.000          -0.000
  -4081692.615 8  -2877692.75145  24500328.464    24500328.1074   24500349.5384
        -0.000          -0.000
 99  3 24  0 39  0.0000000  0  6 10 17  6  5 30 23                  -0.000000026
 -11930426.129 9  -9280185.43948  21851211.739    21851211.0614   21851220.1144
        -0.000          -0.000
 -15606354.686 9 -11624764.29847  22637672.324    22637671.8864   22637682.8234
        -0.000          -0.000
 -16306623.141 9 -12691920.29049  20876008.962    20876008.9304   20876017.0994
        -0.000          -0.000
 -11138159.166 9  -8660747.63647  22606163.056    22606162.6894   22606174.1884
        -0.000          -0.000
 -23932158.716 9 -16498271.58049  20885126.017    20885126.3684   20885134.6084
        -0.000          -0.000
  -4187572.851 8  -2960196.28645  24480179.238    24480178.9464   24480200.4624
        -0.000          -0.000
 99  3 24  0 39 30.0000000  0  6 10 17  6  5 30 23                  -0.000000017
 -11862817.012 9  -9227503.00548  21864077.292    21864076.6454   21864085.7954
        -0.000          -0.000
 -15666106.701 9 -11671324.18547  22626301.907    22626301.4884   22626312.2404
        -0.000          -0.000
 -16351850.112 9 -12727162.03849  20867402.455    20867402.4484   20867410.6554
        -0.000          -0.000
 -11039405.039 9  -8583796.47647  22624955.420    22624955.0994   22624966.6794
        -0.000          -0.000
 -23883288.706 9 -16460191.08048  20894425.678    20894426.0304   20894434.2984
        -0.000          -0.000
  -4293392.428 8  -3042652.60745  24460041.673    24460041.7674   24460062.7614
        -0.000          -0.000
 99  3 24  0 40  0.0000000  0  6 10 17  6  5 30 23                  -0.000000018
 -11794780.865 9  -9174487.81448  21877024.148    21877023.4924   21877032.8094
        -0.000          -0.000
 -15725689.370 9 -11717752.10647  22614963.861    22614963.3674   22614973.8584
        -0.000          -0.000
 -16396880.963 9 -12762250.95049  20858833.355    20858833.3604   20858841.4704
        -0.000          -0.000
 -10940485.643 9  -8506716.51847  22643779.353    22643779.0184   22643790.7324
        -0.000          -0.000
 -23833922.663 9 -16421724.04948  20903819.733    20903820.0574   20903828.3754
        -0.000          -0.000
  -4399156.468 8  -3125065.65545  24439915.149    24439915.1194   24439935.7424
        -0.000          -0.000
 99  3 24  0 40 30.0000000  0  6 10 17  6  5 30 23                  -0.000000020
 -11726301.379 9  -9121127.16648  21890055.409    21890054.7204   21890064.1064
        -0.000          -0.000
 -15785080.194 9 -11764030.53647  22603662.184    22603661.6214   22603672.0184
        -0.000          -0.000
 -16441678.780 9 -12797158.29049  20850308.546    20850308.5524   20850316.5264
        -0.000          -0.000
 -10841370.458 9  -8429484.01847  22662640.470    22662640.1214   22662652.0014
        -0.000          -0.000
 -23784045.135 9 -16382858.47348  20913311.136    20913311.4664   20913319.7424
        -0.000          -0.000
  -4504846.152 8  -3207420.77745  24419803.131    24419802.7334   24419822.9824
        -0.000          -0.000
 99  3 24  0 41  0.0000000  0  6 10 17  6  5 30 23                  -0.000000025
 -11657374.319 9  -9067417.74948  21903171.678    21903171.0004   21903180.6024
        -0.000          -0.000
 -15844257.862 9 -11810142.87347  22592400.753    22592400.2184   22592410.8494
        -0.000          -0.000
 -16486220.836 9 -12831866.33349  20841832.491    20841832.4704   20841840.3594
        -0.000          -0.000
 -10742035.555 9  -8352080.32547  22681543.474    22681542.9954   22681555.0004
        -0.000          -0.000
 -23733634.635 9 -16343577.58348  20922903.987    20922904.2654   20922912.6534
        -0.000          -0.000
  -4610442.314 8  -3289702.98245  24399708.847    24399708.0844   24399728.1454
        -0.000          -0.000
 99  3 24  0 41 30.0000000  0  6 10 17  6  5 30 23                  -0.000000038
 -11587987.821 9  -9013350.33648  21916375.527    21916374.8894   21916384.5034
        -0.000          -0.000
 -15903201.911 9 -11856073.15447  22581183.696    22581183.2034   22581194.2014
        -0.000          -0.000
 -16530483.625 9 -12866356.77149  20833409.570    20833409.5114   20833417.5214
        -0.000          -0.000
 -10642463.272 9  -8274491.65647  22700491.390    22700490.9374   22700503.2764
        -0.000          -0.000
 -23682656.690 9 -16303854.53648  20932604.664    20932604.9794   20932613.5644
        -0.000          -0.000
  -4715935.202 8  -3371904.74745  24379634.258    24379633.3014   24379652.9774
        -0.000          -0.000
 99  3 24  0 42  0.0000000  0  6 10 17  6  5 30 23                  -0.000000077
 -11518177.053 9  -8958952.33448  21929660.148    21929659.4634   21929669.0464
        -0.000          -0.000
 -15961922.491 9 -11901829.33147  22570009.334    22570008.9284   22570020.0564
        -0.000          -0.000
 -16574488.362 9 -12900646.13549  20825035.660    20825035.5984   20825043.6864
        -0.000          -0.000
 -10542670.527 9  -8196731.18947  22719481.080    22719480.7914   22719493.4314
        -0.000          -0.000
 -23631125.155 9 -16263700.11749  20942410.833    20942411.1804   20942419.7614
        -0.000          -0.000
  -4821333.145 8  -3454032.53345  24359577.221    24359576.1584   24359596.0374
        -0.000          -0.000
 99  3 24  0 42 30.0000000  0  6 10 17  6  5 30 23                  -0.000000126
 -11447917.193 9  -8904204.38848  21943030.117    21943029.4874   21943038.9864
        -0.000          -0.000
 -16020389.905 9 -11947388.21447  22558883.666    22558883.0404   22558893.9874
        -0.000          -0.000
 -16618212.136 9 -12934716.56749  20816715.189    20816715.1184   20816723.2384
        -0.000          -0.000
 -10442628.695 9  -8118776.64547  22738518.502    22738518.1714   22738530.9084
        -0.000          -0.000
 -23579002.104 9 -16223084.77448  20952329.731    20952330.0144   20952338.4034
        -0.000          -0.000
  -4926592.758 8  -3536052.52145  24339545.836    24339545.3144   24339565.6494
        -0.000          -0.000
 99  3 24  0 43  0.0000000  0  6 10 17  6  5 30 23                  -0.000000158
 -11377167.569 9  -8849074.81548  21956493.274    21956492.6774   21956502.0724
        -0.000          -0.000
 -16078579.948 9 -11992730.97147  22547810.397    22547809.7674   22547820.5724
        -0.000          -0.000
 -16661634.757 9 -12968552.34149  20808451.974    20808451.9794   20808460.1234
        -0.000          -0.000
 -10342331.714 9  -8040623.27647  22757604.349    22757604.0394   22757616.7324
        -0.000          -0.000
 -23526249.666 9 -16181979.00548  20962368.303    20962368.5044   20962376.8244
        -0.000          -0.000
  -5031676.841 8  -3617935.76045  24319547.785    24319547.6394   24319568.7804
        -0.000          -0.000
 99  3 24  0 43 30.0000000  0  6 10 17  6  5 30 23                  -0.000000167
 -11305954.522 9  -8793584.11548  21970044.536    21970043.9454   21970053.3404
        -0.000          -0.000
 -16136513.606 9 -12037873.94447  22536785.637    22536785.0794   22536795.9334
        -0.000          -0.000
 -16704783.698 9 -13002174.84749  20800240.964    20800240.9434   20800249.1304
        -0.000          -0.000
 -10241816.489 9  -7962299.82947  22776731.815    22776731.5074   22776744.0074
        -0.000          -0.000
 -23472914.353 9 -16140419.05048  20972517.584    20972517.8284   20972526.1434
        -0.000          -0.000
  -5136603.320 8  -3699696.19245  24299580.253    24299580.3914   24299601.9214
        -0.000          -0.000
 99  3 24  0 44  0.0000000  0  6 10 17  6  5 30 23                  -0.000000154
 -11234288.753 9  -8737740.65848  21983682.037    21983681.3844   21983690.8784
        -0.000          -0.000
 -16194212.205 9 -12082833.74147  22525805.389    22525805.0604   22525816.1094
        -0.000          -0.000
 -16747662.058 9 -13035586.50849  20792081.364    20792081.3424   20792089.6334
        -0.000          -0.000
 -10141101.496 9  -7883820.72847  22795897.355    22795896.9594   22795909.2604
        -0.000          -0.000
 -23419023.716 9 -16098426.37148  20982772.555    20982772.8094   20982781.2034
        -0.000          -0.000
  -5241381.327 8  -3781340.87745  24279641.565    24279641.4954   24279663.1774
        -0.000          -0.000
 99  3 24  0 44 30.0000000  0  6 10 17  6  5 30 23                  -0.000000131
 -11162181.151 9  -8681552.90447  21997403.599    21997402.9554   21997412.5024
        -0.000          -0.000
 -16251709.695 9 -12127636.83147  22514863.961    22514863.5944   22514874.6154
        -0.000          -0.000
 -16790292.150 9 -13068804.70949  20783969.166    20783969.2174   20783977.4144
        -0.000          -0.000
 -10040219.323 9  -7805211.35847  22815094.720    22815094.3194   22815106.4114
        -0.000          -0.000
 -23364606.740 9 -16056023.55248  20993127.643    20993127.9704   20993136.4294
        -0.000          -0.000
  -5346036.060 8  -3862889.52245  24259726.075    24259725.7934   24259747.6464
        -0.000          -0.000
 99  3 24  0 45  0.0000000  0  6 10 17  6  5 30 23                  -0.000000098
 -11089653.735 9  -8625038.02047  22011205.114    22011204.4604   22011213.9614
        -0.000          -0.000
 -16309003.958 9 -12172281.56047  22503961.353    22503960.7624   22503971.7434
        -0.000          -0.000
 -16832675.611 9 -13101830.71249  20775904.156    20775904.0814   20775912.1324
        -0.000          -0.000
  -9939192.477 9  -7726489.24746  22834319.681    22834319.1494   22834331.0494
        -0.000          -0.000
 -23309698.323 9 -16013237.79048  21003576.403    21003576.6874   21003585.1894
        -0.000          -0.000
  -5450583.585 8  -3944354.64945  24239830.707    24239830.7754   24239852.1094
        -0.000          -0.000
 99  3 24  0 45 30.0000000  0  6 10 17  6  5 30 23                  -0.000000058
 -11016722.587 9  -8568208.56147  22025083.453    22025082.7434   22025092.2724
        -0.000          -0.000
 -16366081.950 9 -12216757.78547  22493099.593    22493099.0924   22493110.1034
        -0.000          -0.000
 -16874798.160 9 -13134653.42649  20767888.584    20767888.4704   20767896.4814
        -0.000          -0.000
  -9837999.998 9  -7647638.10546  22853576.202    22853575.6084   22853587.4044
        -0.000          -0.000
 -23254312.513 9 -15970080.03948  21014115.992    21014116.3204   21014124.7194
        -0.000          -0.000
  -5555030.432 8  -4025741.31045  24219954.524    24219954.7644   24219975.5814
        -0.000          -0.000
 99  3 24  0 46  0.0000000  0  6 10 17  6  5 30 23                  -0.000000035
 -10943405.662 9  -8511078.48647  22039035.090    22039034.4044   22039043.9954
        -0.000          -0.000
 -16422964.604 9 -12261081.77647  22482275.250    22482274.7454   22482285.6894
        -0.000          -0.000
 -16916691.692 9 -13167297.66749  20759916.486    20759916.3694   20759924.3984
        -0.000          -0.000
  -9736654.626 9  -7568667.80646  22872861.674    22872861.1084   22872872.9334
        -0.000          -0.000
 -23198460.900 9 -15926559.31248  21024744.489    21024744.7124   21024752.9284
        -0.000          -0.000
  -5659406.172 8  -4107072.54045  24200092.201    24200092.5254   24200112.5524
        -0.000          -0.000
 99  3 24  0 46 30.0000000  0  6 10 17  6  5 30 23                  -0.000000009
 -10869697.188 9  -8453643.30747  22053061.284    22053060.5744   22053070.1644
        -0.000          -0.000
 -16479631.646 9 -12305237.76047  22471491.989    22471491.3414   22471502.2394
        -0.000          -0.000
 -16958359.802 9 -13199766.26949  20751987.210    20751987.1184   20751995.1024
        -0.000          -0.000
  -9635155.241 9  -7489577.50646  22892176.557    22892175.9764   22892187.8934
        -0.000          -0.000
 -23142141.138 9 -15882673.80748  21035461.742    21035461.9934   21035470.2334
        -0.000          -0.000
  -5763698.799 8  -4188338.99645  24180246.283    24180246.3244   24180265.2264
        -0.000          -0.000
 99  3 24  0 47  0.0000000  0  6 10 17  6  5 30 23                  -0.000000004
 -10795638.043 9  -8395934.87547  22067154.129    22067153.4884   22067163.0014
        -0.000          -0.000
 -16536118.616 9 -12349253.43347  22460742.611    22460742.0524   22460752.9924
        -0.000          -0.000
 -16999831.462 9 -13232081.78749  20744095.281    20744095.2124   20744103.0914
        -0.000          -0.000
  -9533525.019 9  -7410385.23047  22911516.329    22911515.7774   22911527.7704
        -0.000          -0.000
 -23085400.242 9 -15838460.14148  21046258.973    21046259.2684   21046267.7284
        -0.000          -0.000
  -5867943.704 8  -4269568.29745  24160409.301    24160409.1474   24160426.9774
        -0.000          -0.000
 99  3 24  0 47 30.0000000  0  6 10 17  6  5 30 23                  -0.000000013
 -10721207.284 9  -8337936.89547  22081317.915    22081317.2124   22081326.6294
        -0.000          -0.000
 -16592423.979 9 -12393127.59447  22450027.769    22450027.2904   22450038.2424
        -0.000          -0.000
 -17041090.097 9 -13264231.31449  20736243.994    20736243.9174   20736251.7634
        -0.000          -0.000
  -9431736.624 9  -7331069.73047  22930886.249    22930885.6584   22930897.7294
        -0.000          -0.000
 -23028214.172 9 -15793899.59248  21057140.909    21057141.2844   21057149.9344
        -0.000          -0.000
  -5972113.971 8  -4350739.43645  24140586.225    24140586.0904   24140603.4614
        -0.000          -0.000
 99  3 24  0 48  0.0000000  0  6 10 17  6  5 30 23                  -0.000000019
 -10646387.065 9  -8279635.43647  22095555.896    22095555.1854   22095564.4984
        -0.000          -0.000
 -16648540.171 9 -12436854.34747  22439348.946    22439348.4724   22439359.5464
        -0.000          -0.000
 -17082124.683 9 -13296206.26049  20728435.257    20728435.1934   20728443.1244
        -0.000          -0.000
  -9329785.343 9  -7251627.30746  22950287.092    22950286.4284   22950298.6114
        -0.000          -0.000
 -22970566.100 9 -15748979.04548  21068111.048    21068111.4304   21068120.0174
        -0.000          -0.000
  -6076181.832 8  -4431830.80145  24120782.721    24120782.5504   24120800.1144
        -0.000          -0.000
 99  3 24  0 48 30.0000000  0  6 10 17  6  5 30 23                  -0.000000032
 -10571205.216 9  -8221052.17947  22109862.758    22109861.9604   22109871.0824
        -0.000          -0.000
 -16704495.715 9 -12480455.91247  22428700.921    22428700.3744   22428711.4324
        -0.000          -0.000
 -17122936.462 9 -13328007.60449  20720668.999    20720668.9594   20720676.8404
        -0.000          -0.000
  -9227702.750 9  -7172082.54646  22969712.699    22969712.1094   22969724.4534
        -0.000          -0.000
 -22912485.468 9 -15703721.43248  21079163.533    21079163.8884   21079172.4044
        -0.000          -0.000
  -6180153.310 8  -4512847.07045  24100997.628    24100997.4274   24101015.0524
        -0.000          -0.000
 99  3 24  0 49  0.0000000  0  6 10 17  6  5 30 23                  -0.000000051
 -10495654.332 9  -8162181.37247  22124239.786    22124238.9084   22124247.9024
        -0.000          -0.000
 -16760285.728 9 -12523928.51247  22418084.177    22418083.7044   22418094.8104
        -0.000          -0.000
 -17163511.489 9 -13359624.44749  20712947.955    20712947.8654   20712955.5784
        -0.000          -0.000
  -9125473.993 9  -7092423.88646  22989166.071    22989165.5424   22989177.9474
        -0.000          -0.000
 -22853956.793 9 -15658114.69348  21090301.241    21090301.6284   21090309.9534
        -0.000          -0.000
  -6284015.498 8  -4593778.17345  24081233.441    24081232.9114   24081250.7954
        -0.000          -0.000
 99  3 24  0 49 30.0000000  0  6 10 17  6  5 30 23                  -0.000000068
 -10419720.401 9  -8103012.07546  22138689.359    22138688.6354   22138697.4844
        -0.000          -0.000
 -16815890.287 9 -12567256.61547  22407502.664    22407502.4194   22407513.4874
        -0.000          -0.000
 -17203843.120 9 -13391051.65049  20705273.080    20705272.9784   20705280.6614
        -0.000          -0.000
  -9023101.335 9  -7012653.11046  23008646.834    23008646.4054   23008658.8734
        -0.000          -0.000
 -22794948.245 9 -15612134.03248  21101530.170    21101530.6244   21101538.8304
        -0.000          -0.000
  -6387736.463 8  -4674599.25545  24061495.763    24061494.9354   24061513.4164
        -0.000          -0.000
 99  3 24  0 50  0.0000000  0  6 10 17  6  5 30 23                  -0.000000083
 -10343396.203 9  -8043538.69646  22153213.324    22153212.5804   22153221.3744
        -0.000          -0.000
 -16871302.084 9 -12610434.51647  22396958.284    22396958.0184   22396968.7194
        -0.000          -0.000
 -17243924.431 9 -13422283.80849  20697645.748    20697645.6494   20697653.3574
        -0.000          -0.000
  -8920594.922 9  -6932778.08146  23028153.045    23028152.7624   23028165.0414
        -0.000          -0.000
 -22735435.273 9 -15565760.32148  21112855.272    21112855.7044   21112863.7994
        -0.000          -0.000
  -6491299.152 8  -4755296.99345  24041787.599    24041786.9784   24041805.7284
        -0.000          -0.000
 99  3 24  0 50 30.0000000  0  6 10 17  6  5 30 23                  -0.000000088
 -10266663.035 9  -7983746.63446  22167815.317    22167814.5614   22167823.1864
        -0.000          -0.000
 -16926510.703 9 -12653454.08747  22386452.647    22386452.1624   22386462.7674
        -0.000          -0.000
 -17283735.815 9 -13453305.62949  20690069.658    20690069.6434   20690077.3364
        -0.000          -0.000
  -8817957.761 9  -6852801.18546  23047684.395    23047684.1104   23047696.2194
        -0.000          -0.000
 -22675396.741 9 -15518977.08348  21124280.319    21124280.7254   21124288.8484
        -0.000          -0.000
  -6594689.823 9  -4835860.72146  24022112.482    24022112.0884   24022130.7634
        -0.000          -0.000
 99  3 24  0 51  0.0000000  0  6 10 17  6  5 30 23                  -0.000000068
 -10189482.657 9  -7923606.12246  22182502.387    22182501.6234   22182510.0964
        -0.000          -0.000
 -16981473.488 9 -12696282.12847  22375993.382    22375992.9234   22376003.5984
        -0.000          -0.000
 -17323248.058 9 -13484094.35649  20682550.744    20682550.7084   20682558.3924
        -0.000          -0.000
  -8715146.053 9  -6772688.28046  23067249.012    23067248.6864   23067260.5824
        -0.000          -0.000
 -22614784.406 9 -15471746.72348  21135814.550    21135814.9004   21135823.1064
        -0.000          -0.000
  -6697876.736 9  -4916265.66846  24002476.687    24002476.0824   24002494.5604
        -0.000          -0.000
 99  3 24  0 51 30.0000000  0  6 10 17  6  5 30 23                  -0.000000065
 -10111919.749 9  -7863167.50646  22197262.205    22197261.4064   22197269.7474
        -0.000          -0.000
 -17036243.547 9 -12738959.97647  22365570.967    22365570.4294   22365581.1094
        -0.000          -0.000
 -17362502.909 9 -13514682.52549  20675080.774    20675080.7204   20675088.4104
        -0.000          -0.000
  -8612217.506 9  -6692484.33846  23086835.855    23086835.6064   23086847.2094
        -0.000          -0.000
 -22553654.411 9 -15424112.99248  21147447.268    21147447.5374   21147455.6824
        -0.000          -0.000
  -6800910.503 9  -4996551.28146  23982869.960    23982869.2164   23982887.2914
        -0.000          -0.000
 99  3 24  0 52  0.0000000  0  6 10 17  6  5 30 23                  -0.000000062
 -10033950.649 9  -7802412.37546  22212099.516    22212098.6544   22212106.9294
        -0.000          -0.000
 -17090786.797 9 -12781461.10047  22355191.547    22355190.9444   22355201.6534
        -0.000          -0.000
 -17401452.569 9 -13545032.88349  20667668.850    20667668.8414   20667676.3724
        -0.000          -0.000
  -8509142.638 9  -6612166.38446  23106450.566    23106450.3474   23106461.7154
        -0.000          -0.000
 -22492000.823 9 -15376071.27748  21159179.461    21159179.7754   21159187.8304
        -0.000          -0.000
  -6903777.336 8  -5076706.84446  23963294.617    23963293.9684   23963311.4454
        -0.000          -0.000
 99  3 24  0 52 30.0000000  0  6 10 17  6  5 30 23                  -0.000000065
  -9955602.993 9  -7741362.27446  22227008.686    22227007.8124   22227016.1364
        -0.000          -0.000
 -17145111.071 9 -12823791.58147  22344853.781    22344853.2214   22344863.7864
        -0.000          -0.000
 -17440108.481 9 -13575154.33649  20660312.941    20660312.9134   20660320.3004
        -0.000          -0.000
  -8405931.106 9  -6531741.95046  23126091.263    23126090.9014   23126102.3134
        -0.000          -0.000
 -22429879.280 9 -15327664.90748  21171000.829    21171001.1214   21171009.1674
        -0.000          -0.000
  -7006517.202 8  -5156763.44345  23943743.052    23943742.8134   23943759.6684
        -0.000          -0.000
 99  3 24  0 53  0.0000000  0  6 10 17  6  5 30 23                  -0.000000054
  -9876868.649 9  -7680010.84046  22241991.321    22241990.5404   22241999.0114
        -0.000          -0.000
 -17199192.433 9 -12865932.77847  22334562.509    22334561.8544   22334572.1914
        -0.000          -0.000
 -17478438.102 9 -13605021.54249  20653019.000    20653018.9534   20653026.3814
        -0.000          -0.000
  -8302539.605 9  -6451177.28146  23145766.181    23145765.7604   23145777.3324
        -0.000          -0.000
 -22367273.167 9 -15278880.95848  21182914.330    21182914.6534   21182922.7974
        -0.000          -0.000
  -7109101.453 9  -5236698.80045  23924221.457    23924221.2274   23924237.7004
        -0.000          -0.000
 99  3 24  0 53 30.0000000  0  6 10 17  6  5 30 23                  -0.000000043
  -9797772.550 9  -7618377.53746  22257042.925    22257042.0814   22257050.6554
        -0.000          -0.000
 -17253058.860 9 -12907906.50047  22324312.067    22324311.4014   22324321.6274
        -0.000          -0.000
 -17516457.264 9 -13634646.82249  20645784.087    20645784.0914   20645791.6414
        -0.000          -0.000
  -8199013.594 9  -6370507.77246  23165466.631    23165466.2514   23165477.9024
        -0.000          -0.000
 -22304229.627 9 -15229756.16348  21194911.028    21194911.3884   21194919.7234
        -0.000          -0.000
  -7211543.088 9  -5316523.03545  23904727.343    23904726.8934   23904742.9544
        -0.000          -0.000
 99  3 24  0 54  0.0000000  0  6 10 17  6  5 30 23                  -0.000000013
  -9718291.467 9  -7556444.24046  22272167.546    22272166.7704   22272175.2244
        -0.000          -0.000
 -17306699.625 9 -12949704.39347  22314104.376    22314103.8274   22314113.9954
        -0.000          -0.000
 -17554164.183 9 -13664028.80549  20638608.729    20638608.6794   20638616.3844
        -0.000          -0.000
  -8095336.264 9  -6289720.36146  23185195.865    23185195.4934   23185207.2824
        -0.000          -0.000
 -22240742.984 9 -15180286.08848  21206992.107    21206992.4354   21207000.9454
        -0.000          -0.000
  -7313835.816 9  -5396231.24245  23885261.477    23885260.7994   23885277.0814
        -0.000          -0.000
 99  3 24  0 54 30.0000000  0  6 10 17  6  5 30 23                  -0.000000005
  -9638490.138 9  -7494261.37646  22287353.170    22287352.4374   22287360.7274
        -0.000          -0.000
 -17360184.711 9 -12991380.96848  22303926.521    22303925.9134   22303936.0134
        -0.000          -0.000
 -17591636.438 9 -13693227.92749  20631477.942    20631477.9454   20631485.7454
        -0.000          -0.000
  -7991558.304 9  -6208854.54846  23204944.389    23204943.8924   23204955.7854
        -0.000          -0.000
 -22176859.782 9 -15130507.00948  21219148.572    21219148.9194   21219157.5694
        -0.000          -0.000
  -7416031.353 9  -5475863.76145  23865814.101    23865813.2224   23865829.5634
        -0.000          -0.000
 99  3 24  0 55  0.0000000  0  6 10 17  6  5 30 23                   0.000000010
  -9558323.535 9  -7431793.89946  22302608.419    22302607.5764   22302615.9274
        -0.000          -0.000
 -17413479.763 9 -13032909.47548  22293784.742    22293784.1544   22293794.3444
        -0.000          -0.000
 -17628835.652 9 -13722214.27549  20624399.325    20624399.2754   20624406.9564
        -0.000          -0.000
  -7887642.953 9  -6127881.68846  23224719.031    23224718.3824   23224730.2514
        -0.000          -0.000
 -22112525.630 9 -15080376.53548  21231390.953    21231391.3334   21231400.0074
        -0.000          -0.000
  -7518065.733 8  -5555370.68545  23846396.822    23846396.1254   23846412.6564
        -0.000          -0.000
 99  3 24  0 55 30.0000000  0  6 10 17  6  5 30 23                   0.000000044
  -9477780.412 9  -7369033.01846  22317935.203    22317934.3464   22317942.8274
        -0.000          -0.000
 -17466569.315 9 -13074277.86248  22283682.025    22283681.5294   22283691.6894
        -0.000          -0.000
 -17665765.296 9 -13750990.56849  20617371.885    20617371.7314   20617379.3874
        -0.000          -0.000
  -7783600.113 9  -6046809.46446  23244517.829    23244517.2554   23244528.9584
        -0.000          -0.000
 -22047737.385 9 -15029892.22548  21243719.896    21243720.2484   21243728.8734
        -0.000          -0.000
  -7619939.603 9  -5634752.53645  23827010.147    23827009.6854   23827026.1264
        -0.000          -0.000
 99  3 24  0 56  0.0000000  0  6 10 17  6  5 30 23                   0.000000044
  -9396939.060 9  -7306039.76546  22333318.900    22333317.9864   22333326.5614
        -0.000          -0.000
 -17519505.468 9 -13115526.71348  22273608.521    22273607.9824   22273618.1374
        -0.000          -0.000
 -17702484.030 9 -13779602.52149  20610384.361    20610384.2684   20610392.0784
        -0.000          -0.000
  -7679481.344 9  -5965678.08146  23264331.125    23264330.6494   23264342.2794
        -0.000          -0.000
 -21982546.378 9 -14979094.06848  21256125.625    21256125.8904   21256134.3654
        -0.000          -0.000
  -7721724.678 9  -5714065.20946  23807640.775    23807640.3544   23807656.2274
        -0.000          -0.000
 99  3 24  0 56 30.0000000  0  7 10 22 17  6  5 30 23                0.000000037
  -9315760.811 9  -7242783.97346  22348766.609    22348765.6924   22348774.4704
        -0.000          -0.000
   -614442.608 8   -464096.05952         0.000           0.0004          0.0005
        -0.000          -0.000
 -17572244.966 9 -13156622.31048  22263572.498    22263571.8804   22263582.0704
        -0.000          -0.000
 -17738934.240 9 -13808005.23949  20603447.976    20603447.9604   20603455.8724
        -0.000          -0.000
  -7575257.706 9  -5884464.99246  23284164.481    23284163.9194   23284175.6474
        -0.000          -0.000
 -21916907.992 9 -14927947.30548  21268616.274    21268616.5034   21268625.0104
        -0.000          -0.000
  -7823357.405 9  -5793259.14646  23788300.293    23788299.9644   23788315.3954
        -0.000          -0.000
 99  3 24  0 57  0.0000000  0  7 10 22 17  6  5 30 23                0.000000044
  -9234210.836 9  -7179238.52146  22364284.968    22364284.1484   22364293.2244
        -0.000          -0.000
   -698434.919 8   -294888.20542         0.000           0.0004          0.0004
        -0.000          -0.000
 -17624741.407 9 -13197528.51647  22253582.579    22253581.9564   22253592.3054
        -0.000          -0.000
 -17775061.448 9 -13836156.25849  20596573.196    20596573.1494   20596581.0344
        -0.000          -0.000
  -7470901.668 9  -5803148.73146  23304022.964    23304022.3214   23304034.3264
        -0.000          -0.000
 -21850786.724 9 -14876424.28448  21281198.842    21281198.9934   21281207.5444
        -0.000          -0.000
  -7924798.711 9  -5872303.94246  23768996.324    23768996.0874   23769011.4854
        -0.000          -0.000
 99  3 24  0 57 30.0000000  0  7 10 22 17  6  5 30 23                0.000000024
  -9152339.230 9  -7115442.44346  22379864.546    22379863.7734   22379873.0874
        -0.000          -0.000
   -782117.995 8   -360095.25343         0.000           0.0004   24944608.3064
        -0.000          -0.000
 -17677048.157 9 -13238286.93147  22243628.814    22243628.2274   22243638.5524
        -0.000          -0.000
 -17810918.032 9 -13864096.40149  20589749.946    20589749.8734   20589757.6274
        -0.000          -0.000
  -7366463.972 9  -5721768.85546  23323896.803    23323896.1734   23323908.6374
        -0.000          -0.000
 -21784221.957 9 -14824555.66748  21293865.549    21293865.8044   21293874.3324
        -0.000          -0.000
  -8026104.319 9  -5951243.01046  23749718.222    23749718.0834   23749733.4964
        -0.000          -0.000
 99  3 24  0 58  0.0000000  0  7 10 22 17  6  5 30 23                0.000000011
  -9070097.400 9  -7051357.89746  22395514.509    22395513.8284   22395523.2744
        -0.000          -0.000
   -865459.234 8   -425036.34945  24928737.602    24928735.0164   24928750.2204
        -0.000          -0.000
 -17729126.606 9 -13278867.43248  22233718.663    22233718.0874   22233728.2314
        -0.000          -0.000
 -17846453.060 9 -13891785.98049  20582987.921    20582987.7944   20582995.4264
        -0.000          -0.000
  -7261884.620 9  -5640278.58746  23343797.444    23343796.9354   23343809.6974
        -0.000          -0.000
 -21717164.140 9 -14772302.85148  21306626.156    21306626.4694   21306635.0114
        -0.000          -0.000
  -8127213.208 9  -6030028.79746  23730477.883    23730477.5824   23730493.0234
        -0.000          -0.000
 99  3 24  0 58 30.0000000  0  7 10 22 17  6  5 30 23                0.000000005
  -8987477.798 9  -6986978.99446  22411236.341    22411235.7054   22411245.2324
        -0.000          -0.000
   -948480.825 8   -489728.39245  24912939.631    24912937.9324   24912949.7724
        -0.000          -0.000
 -17780991.229 9 -13319281.33248  22223849.183    22223848.5414   22223858.6254
        -0.000          -0.000
 -17881671.887 9 -13919229.17149  20576286.035    20576285.8934   20576293.4604
        -0.000          -0.000
  -7157167.723 9  -5558681.12046  23363724.430    23363723.9004   23363736.8264
        -0.000          -0.000
 -21649612.324 9 -14719665.11848  21319480.913    21319481.2004   21319489.7694
        -0.000          -0.000
  -8228119.321 9  -6108656.57646  23711276.235    23711275.9354   23711291.1464
        -0.000          -0.000
 99  3 24  0 59  0.0000000  0  7 10 22 17  6  5 30 23                0.000000004
  -8904492.621 9  -6922315.20946  22427027.921    22427027.2614   22427036.7904
        -0.000          -0.000
  -1031192.621 8   -554178.97645  24897200.237    24897198.1894   24897209.8314
        -0.000          -0.000
 -17832642.376 9 -13359528.89448  22214019.842    22214019.3954   22214029.5814
        -0.000          -0.000
 -17916588.374 9 -13946436.77349  20569641.623    20569641.5044   20569648.9634
        -0.000          -0.000
  -7052320.355 9  -5476981.98446  23383676.063    23383675.6294   23383688.5334
        -0.000          -0.000
 -21581579.302 9 -14666652.41848  21332427.279    21332427.5384   21332435.9964
        -0.000          -0.000
  -8328839.646 9  -6187139.56646  23692109.929    23692109.4444   23692124.6394
        -0.000          -0.000
 99  3 24  0 59 30.0000000  0  7 10 22 17  6  5 30 23                0.000000002
  -8821167.932 9  -6857386.89346  22442884.230    22442883.4354   22442892.8624
        -0.000          -0.000
  -1113628.943 8   -618414.86145  24881513.302    24881511.4384   24881522.9624
        -0.000          -0.000
 -17884103.739 9 -13399628.57248  22204227.014    22204226.6344   22204236.6634
        -0.000          -0.000
 -17951223.548 9 -13973425.17649  20563050.640    20563050.5174   20563058.0524
        -0.000          -0.000
  -6947375.071 9  -5395206.55946  23403646.284    23403645.9634   23403658.9814
        -0.000          -0.000
 -21513098.395 9 -14613290.70448  21345458.714    21345458.9374   21345467.4854
        -0.000          -0.000
  -8429386.757 9  -6265487.60546  23672976.338    23672975.8114   23672991.0604
        -0.000          -0.000
 99  3 24  1  0  0.0000000  0  7 10 22 17  6  5 30 23               -0.000000001
  -8737527.290 9  -6792212.37846  22458800.503    22458799.6374   22458808.9864
        -0.000          -0.000
  -1195797.836 8   -682442.32445  24865876.959    24865874.9744   24865886.6644
        -0.000          -0.000
 -17935369.957 9 -13439576.17048  22194471.626    22194471.0674   22194480.8894
        -0.000          -0.000
 -17985574.614 9 -14000192.20649  20556513.619    20556513.5924   20556521.1944
        -0.000          -0.000
  -6842346.922 9  -5313366.56346  23423632.489    23423632.2574   23423645.2814
        -0.000          -0.000
 -21444191.207 9 -14559596.82948  21358571.197    21358571.4394   21358580.0634
        -0.000          -0.000
  -8529758.939 9  -6343699.32146  23653875.790    23653875.2844   23653890.6004
        -0.000          -0.000
 99  3 24  1  0 30.0000000  0  7 10 22 17  6  5 30 23               -0.000000004
  -8653574.061 9  -6726794.27546  22474776.238    22474775.3674   22474784.6734
        -0.000          -0.000
  -1277666.933 8   -746236.18145  24850297.334    24850295.5894   24850307.6574
        -0.000          -0.000
 -17986423.395 9 -13479357.96348  22184756.445    22184755.8044   22184765.4684
        -0.000          -0.000
 -18019620.786 9 -14026721.65149  20550034.892    20550034.8574   20550042.4044
        -0.000          -0.000
  -6737239.803 9  -5231465.06946  23443633.904    23443633.6404   23443646.6514
        -0.000          -0.000
 -21374851.349 9 -14505565.81548  21371766.068    21371766.3744   21371774.9734
        -0.000          -0.000
  -8629935.748 9  -6421758.77346  23634812.458    23634811.9014   23634827.1814
        -0.000          -0.000
 99  3 24  1  1  0.0000000  0  7 10 22 17  6  5 30 23               -0.000000005
  -8569315.727 9  -6661138.44046  22490810.024    22490809.1574   22490818.3914
        -0.000          -0.000
  -1359211.907 9   -809777.45545  24834779.404    24834778.0014   24834790.2394
        -0.000          -0.000
 -18037259.737 9 -13518970.58548  22175082.356    22175081.8214   22175091.3524
        -0.000          -0.000
 -18053353.076 9 -14053006.51649  20543615.843    20543615.7414   20543623.3124
        -0.000          -0.000
  -6632054.603 9  -5149502.70846  23463650.403    23463650.0734   23463662.8904
        -0.000          -0.000
 -21305088.617 9 -14451205.28748  21385041.596    21385041.9134   21385050.5054
        -0.000          -0.000
  -8729910.898 9  -6499661.10346  23615787.350    23615786.8514   23615801.9224
        -0.000          -0.000
 99  3 24  1  1 30.0000000  0  7 10 22 17  6  5 30 23               -0.000000010
  -8484753.821 9  -6595246.06546  22506901.516    22506900.6774   22506909.9304
        -0.000          -0.000
  -1440436.676 9   -873069.18945  24819322.483    24819321.0834   24819333.8364
        -0.000          -0.000
 -18087890.276 9 -13558422.85248  22165447.585    22165447.0504   22165456.6304
        -0.000          -0.000
 -18086774.973 9 -14079049.52549  20537255.794    20537255.7344   20537263.3304
        -0.000          -0.000
  -6526792.917 9  -5067480.76046  23483681.062    23483680.7064   23483693.6904
        -0.000          -0.000
 -21234898.620 9 -14396511.82548  21398398.420    21398398.6974   21398407.3864
        -0.000          -0.000
  -8829681.309 9  -6577403.89446  23596801.112    23596800.7064   23596815.5024
        -0.000          -0.000
 99  3 24  1  2  0.0000000  0  7 10 22 17  6  5 30 23               -0.000000004
  -8399841.949 9  -6529080.95646  22523059.657    22523058.9114   22523068.0104
        -0.000          -0.000
  -1521299.338 8   -936078.74745  24803934.468    24803932.9064   24803946.1604
        -0.000          -0.000
 -18138292.845 9 -13597697.47948  22155856.098    22155855.6404   22155865.3714
        -0.000          -0.000
 -18119852.041 9 -14104823.81949  20530961.491    20530961.3914   20530968.9334
        -0.000          -0.000
  -6421416.097 9  -4985369.08446  23503733.230    23503732.9854   23503746.1904
        -0.000          -0.000
 -21164240.071 9 -14341453.25048  21411844.267    21411844.5584   21411853.3654
        -0.000          -0.000
  -8929223.039 9  -6654968.48646  23577858.452    23577858.1094   23577872.6554
        -0.000          -0.000
 99  3 24  1  2 30.0000000  0  7 10 22 17  6  5 30 23                0.000000009
  -8314571.478 9  -6462636.44446  22539286.030    22539285.3384   22539294.3824
        -0.000          -0.000
  -1601797.039 8   -998803.89745  24788615.508    24788614.1704   24788627.8994
        -0.000          -0.000
 -18188488.185 9 -13636810.63047  22146304.162    22146303.6534   22146313.3954
        -0.000          -0.000
 -18152586.724 9 -14130331.32649  20524732.200    20524732.1144   20524739.6764
        -0.000          -0.000
  -6315935.792 9  -4903176.77646  23523805.384    23523805.0894   23523818.5014
        -0.000          -0.000
 -21093122.833 9 -14286037.27348  21425377.468    21425377.7104   21425386.5024
        -0.000          -0.000
  -9028551.433 9  -6732366.86146  23558956.436    23558956.2354   23558970.6784
        -0.000          -0.000
 99  3 24  1  3  0.0000000  0  7 10 22 17  6  5 30 23                0.000000009
  -8228961.068 9  -6395927.03746  22555577.103    22555576.4494   22555585.2794
        -0.000          -0.000
  -1681973.287 8  -1061278.60445  24773358.237    24773356.9624   24773370.6104
        -0.000          -0.000
 -18238511.399 9 -13675789.65647  22136784.934    22136784.4334   22136793.9934
        -0.000          -0.000
 -18185024.828 9 -14155607.73149  20518559.231    20518559.1874   20518566.8604
        -0.000          -0.000
  -6210391.862 9  -4820934.86546  23543889.803    23543889.3254   23543902.9804
        -0.000          -0.000
 -21021580.837 9 -14230290.31348  21438991.501    21438991.8044   21439000.3614
        -0.000          -0.000
  -9127721.289 9  -6809641.72146  23540084.727    23540084.6194   23540098.8784
        -0.000          -0.000
 99  3 24  1  3 30.0000000  0  7 10 22 17  6  5 30 23                0.000000004
  -8142999.156 9  -6328943.75746  22571935.264    22571934.4954   22571942.9924
        -0.000          -0.000
  -1761836.144 8  -1123509.12345  24758160.463    24758159.3444   24758173.0984
        -0.000          -0.000
 -18288364.911 9 -13714636.43348  22127298.037    22127297.6014   22127307.1324
        -0.000          -0.000
 -18217167.422 9 -14180653.86649  20512442.587    20512442.6014   20512450.3074
        -0.000          -0.000
  -6104779.099 9  -4738639.34646  23563987.255    23563986.8214   23564000.4704
        -0.000          -0.000
 -20949609.598 9 -14174208.88348  21452687.534    21452687.7634   21452695.9774
        -0.000          -0.000
  -9226734.388 9  -6886794.43546  23521243.109    23521242.9134   23521257.1604
        -0.000          -0.000
 99  3 24  1  4  0.0000000  0  7 10 22 17  6  5 30 23                0.000000000
  -8056678.611 9  -6261681.02046  22588361.675    22588360.8534   22588368.8614
        -0.000          -0.000
  -1841361.867 8  -1185476.96145  24743026.646    24743025.6814   24743039.3894
        -0.000          -0.000
 -18338029.619 9 -13753336.10648  22117847.071    22117846.6144   22117856.3664
        -0.000          -0.000
 -18248982.466 9 -14205444.76549  20506388.508    20506388.4824   20506396.0954
        -0.000          -0.000
  -5999085.843 9  -4656281.07346  23584100.260    23584099.8474   23584113.4704
        -0.000          -0.000
 -20877205.486 9 -14117790.14448  21466465.831    21466466.0844   21466474.0854
        -0.000          -0.000
  -9325566.903 9  -6963806.43146  23502436.129    23502435.6034   23502449.4754
        -0.000          -0.000
 99  3 24  1  4 30.0000000  0  7 10 22 17  6  5 30 23                0.000000002
  -7970035.969 9  -6194167.30545  22604849.421    22604848.3894   22604856.1214
        -0.000          -0.000
  -1920571.430 8  -1247198.41745  24727953.275    24727952.4154   24727965.6524
        -0.000          -0.000
 -18387505.273 9 -13791888.46748  22108431.983    22108431.6014   22108441.4814
        -0.000          -0.000
 -18280495.098 9 -14230000.02249  20500391.885    20500391.8244   20500399.3844
        -0.000          -0.000
  -5893329.018 9  -4573873.30146  23604225.522    23604224.9644   23604238.4964
        -0.000          -0.000
 -20804403.488 9 -14061061.37348  21480319.611    21480319.8844   21480327.8954
        -0.000          -0.000
  -9424228.093 9  -7040684.94646  23483661.080    23483660.6514   23483674.3944
        -0.000          -0.000
 99  3 24  1  5  0.0000000  0  7 10 22 17  6  5 30 23                0.000000011
  -7883099.211 9  -6126424.39445  22621392.970    22621391.9364   22621399.4434
        -0.000          -0.000
  -1999489.907 9  -1308693.09945  24712935.412    24712934.3124   24712947.3734
        -0.000          -0.000
 -18436802.534 9 -13830301.80348  22099051.063    22099050.6364   22099060.3574
        -0.000          -0.000
 -18311726.723 9 -14254336.31749  20494448.557    20494448.5194   20494456.1594
        -0.000          -0.000
  -5787512.367 9  -4491418.91246  23624362.164    23624361.5044   23624374.9114
        -0.000          -0.000
 -20731233.871 9 -14004046.14348  21494243.141    21494243.4854   21494251.6544
        -0.000          -0.000
  -9522729.549 9  -7117439.01446  23464916.444    23464916.0674   23464929.8194
        -0.000          -0.000
 99  3 24  1  5 30.0000000  0  7 10 22 17  6  5 30 23                0.000000005
  -7795906.176 8  -6058481.76245  22637985.332    22637984.3304   22637991.7164
        -0.000          -0.000
  -2078138.772 8  -1369977.67745  24697968.739    24697967.7944   24697980.2054
        -0.000          -0.000
 -18485952.238 9 -13868600.16048  22089698.209    22089697.7114   22089707.3334
        -0.000          -0.000
 -18342687.494 9 -14278461.54549  20488556.897    20488556.8474   20488564.5544
        -0.000          -0.000
  -5681662.560 9  -4408938.68146  23644505.204    23644504.5194   23644517.5244
        -0.000          -0.000
 -20657731.887 9 -13946771.90948  21508230.043    21508230.3924   21508238.6014
        -0.000          -0.000
  -9621076.864 9  -7194072.96946  23446200.825    23446200.5244   23446214.6804
        -0.000          -0.000
 99  3 24  1  6  0.0000000  0  7 10 22 17  6  5 30 23                0.000000019
  -7708425.389 8  -5990314.92645  22654632.239    22654631.3764   22654638.8954
        -0.000          -0.000
  -2156446.253 9  -1430996.30545  24683066.961    24683066.0294   24683078.0844
        -0.000          -0.000
 -18534886.690 9 -13906730.78448  22080386.272    22080385.7274   22080395.4444
        -0.000          -0.000
 -18373323.839 9 -14302333.98349  20482726.927    20482726.8834   20482734.6194
        -0.000          -0.000
  -5575742.975 9  -4326404.07246  23664661.166    23664660.6164   23664673.2594
        -0.000          -0.000
 -20583858.755 9 -13889208.48148  21522287.640    21522287.9804   21522296.1954
        -0.000          -0.000
  -9719210.481 9  -7270540.41046  23427526.222    23427526.0614   23427540.4824
        -0.000          -0.000
 99  3 24  1  6 30.0000000  0  7 10 22 17  6  5 30 23                0.000000036
  -7620671.052 8  -5921934.90645  22671330.935    22671330.0764   22671338.0894
        -0.000          -0.000
  -2234412.264 9  -1491748.84345  24668230.355    24668229.4204   24668241.3054
        -0.000          -0.000
 -18583620.484 9 -13944705.06648  22071112.504    22071111.9774   22071121.7564
        -0.000          -0.000
 -18403654.052 9 -14325967.87349  20476955.236    20476955.2194   20476962.9234
        -0.000          -0.000
  -5469764.319 9  -4243823.42446  23684828.219    23684827.7754   23684840.1994
        -0.000          -0.000
 -20509615.098 9 -13831356.33448  21536415.700    21536416.0594   21536424.3054
        -0.000          -0.000
  -9817154.899 9  -7346860.43046  23408887.990    23408887.7044   23408902.2424
        -0.000          -0.000
 99  3 24  1  7  0.0000000  0  7 10 22 17  6  5 30 23                0.000000054
  -7532618.173 8  -5853322.30345  22688086.631    22688085.8554   22688094.0044
        -0.000          -0.000
  -2311997.122 8  -1552204.43345  24653466.332    24653465.6314   24653477.2714
        -0.000          -0.000
 -18632144.451 9 -13982515.84048  22061878.808    22061878.1704   22061887.8774
        -0.000          -0.000
 -18433642.234 9 -14349335.26449  20471248.632    20471248.6204   20471256.2814
        -0.000          -0.000
  -5363709.461 9  -4161183.40445  23705009.884    23705009.3744   23705021.7154
        -0.000          -0.000
 -20434951.571 9 -13773177.02448  21550623.694    21550624.0234   21550632.3664
        -0.000          -0.000
  -9914875.812 9  -7423006.30446  23390292.376    23390292.0384   23390306.3484
        -0.000          -0.000
 99  3 24  1  7 30.0000000  0  7 10 22 17  6  5 30 23                0.000000028
  -7444320.505 8  -5784518.92445  22704888.933    22704888.2524   22704896.6334
        -0.000          -0.000
  -2389226.987 8  -1612383.41545  24638769.661    24638769.0754   24638780.7954
        -0.000          -0.000
 -18680499.821 9 -14020195.23548  22052677.073    22052676.4204   22052685.9994
        -0.000          -0.000
 -18463319.913 9 -14372460.68849  20465601.128    20465601.0894   20465608.7334
        -0.000          -0.000
  -5257633.913 9  -4078527.27245  23725195.509    23725194.8494   23725207.1604
        -0.000          -0.000
 -20359888.222 9 -13714686.14848  21564907.708    21564908.0954   21564916.5104
        -0.000          -0.000
 -10012400.090 9  -7498998.95146  23371734.289    23371733.7854   23371747.8354
        -0.000          -0.000
 99  3 24  1  8  0.0000000  0  7 10 22 17  6  5 30 23                0.000000001
  -7355709.960 8  -5715471.73645  22721751.346    22721750.7594   22721758.6064
        -0.000          -0.000
  -2466026.700 8  -1672227.26145  24624154.970    24624154.4834   24624166.2964
        -0.000          -0.000
 -18728601.445 9 -14057676.92248  22043523.352    22043522.7974   22043532.4274
        -0.000          -0.000
 -18492608.051 9 -14395282.58749  20460027.791    20460027.7774   20460035.2974
        -0.000          -0.000
  -5151458.481 9  -3995793.31746  23745400.177    23745399.5924   23745411.7194
        -0.000          -0.000
 -20284339.350 9 -13655816.94748  21579284.264    21579284.6124   21579292.9374
        -0.000          -0.000
 -10109656.098 9  -7574782.58146  23353227.079    23353226.5484   23353240.4004
        -0.000          -0.000
 99  3 24  1  8 30.0000000  0  7 10 22 17  6  5 30 23               -0.000000033
  -7266783.782 8  -5646178.62245  22738673.708    22738673.2234   22738681.0014
        -0.000          -0.000
  -2542432.331 8  -1731764.05745  24609615.352    24609614.6994   24609626.7034
        -0.000          -0.000
 -18776466.827 9 -14094974.53048  22034414.567    22034414.1624   22034423.8004
        -0.000          -0.000
 -18521511.872 9 -14417805.00949  20454527.676    20454527.6254   20454534.9984
        -0.000          -0.000
  -5045194.416 9  -3912990.26846  23765621.578    23765621.0624   23765633.3114
        -0.000          -0.000
 -20208307.652 9 -13596571.51248  21593752.619    21593753.0064   21593761.3944
        -0.000          -0.000
 -10206644.766 9  -7650357.89046  23334770.492    23334769.9264   23334783.8744
        -0.000          -0.000
 99  3 24  1  9  0.0000000  0  7 10 22 17  6  5 30 23               -0.000000043
  -7177530.580 8  -5576630.67245  22755658.021    22755657.3764   22755665.5744
        -0.000          -0.000
  -2618447.554 8  -1790996.68345  24595149.878    24595149.1944   24595161.5554
        -0.000          -0.000
 -18824083.374 9 -14132078.22948  22025353.600    22025353.0954   22025362.5224
        -0.000          -0.000
 -18550029.604 9 -14440026.59249  20449100.883    20449100.8424   20449108.2254
        -0.000          -0.000
  -4938852.007 9  -3830126.19746  23785857.805    23785857.4144   23785870.0964
        -0.000          -0.000
 -20131820.852 9 -13536971.46348  21608307.772    21608308.1194   21608316.5334
        -0.000          -0.000
 -10303349.015 9  -7725711.60646  23316367.663    23316367.3164   23316381.5264
        -0.000          -0.000
 99  3 24  1  9 30.0000000  0  7 10 22 17  6  5 30 23               -0.000000055
  -7088012.694 8  -5506876.51245  22772692.621    22772691.9944   22772700.2054
        -0.000          -0.000
  -2694151.544 8  -1849986.78345  24580743.574    24580742.7564   24580755.1954
        -0.000          -0.000
 -18871510.255 9 -14169034.14048  22016328.613    22016327.9844   22016337.3024
        -0.000          -0.000
 -18578234.602 9 -14462004.48349  20443733.533    20443733.4984   20443740.9484
        -0.000          -0.000
  -4832496.962 9  -3747252.26246  23806096.554    23806096.1434   23806109.0414
        -0.000          -0.000
 -20054974.074 9 -13477090.90448  21622931.518    21622931.7764   21622940.1974
        -0.000          -0.000
 -10399850.285 9  -7800907.14346  23298003.689    23298003.3294   23298017.7904
        -0.000          -0.000
 99  3 24  1 10  0.0000000  0  7 10 22 17  6  5 30 23               -0.000000042
  -6998204.134 7  -5436895.83045  22789782.117    22789782.0144   22789789.8404
        -0.000          -0.000
  -2769542.540 8  -1908733.01545  24566396.910    24566396.1684   24566408.8184
        -0.000          -0.000
 -18918749.894 9 -14205844.14948  22007339.193    22007338.5664   22007347.6574
        -0.000          -0.000
 -18606144.519 9 -14483752.43749  20438422.397    20438422.4144   20438429.8984
        -0.000          -0.000
  -4726124.418 9  -3664364.69846  23826338.682    23826338.3294   23826351.3274
        -0.000          -0.000
 -19977783.718 9 -13416942.63648  21637620.554    21637620.7874   21637629.2254
        -0.000          -0.000
 -10496158.684 9  -7875952.38946  23279676.403    23279676.0864   23279690.7264
        -0.000          -0.000
 99  3 24  1 10 30.0000000  0  7 10 22 17  6  5 30 23                0.000000004
  -6908102.578 7  -5366686.83344  22806927.322    22806927.1654   22806935.0374
        -0.000          -0.000
  -2844620.555 8  -1967235.35745  24552109.898    24552109.2984   24552121.9214
        -0.000          -0.000
 -18965823.674 9 -14242524.90548  21998381.348    21998380.6684   21998389.6214
        -0.000          -0.000
 -18633777.689 9 -14505284.74949  20433164.147    20433164.0454   20433171.5574
        -0.000          -0.000
  -4619741.681 9  -3581469.19046  23846582.718    23846582.5434   23846595.6364
        -0.000          -0.000
 -19900275.514 9 -13356546.67548  21652369.962    21652370.1564   21652378.6094
        -0.000          -0.000
 -10592283.213 9  -7950854.36346  23261384.183    23261383.9794   23261398.5224
        -0.000          -0.000
 99  3 24  1 11  0.0000000  0  7 10 22 17  6  5 30 23                0.000000039
  -6817780.785 7  -5296306.26644  22824115.563    22824114.9634   22824122.1404
        -0.000          -0.000
  -2919424.646 8  -2025524.23145  24537875.082    24537874.3644   24537886.9024
        -0.000          -0.000
 -19012802.141 9 -14279131.40248  21989441.362    21989440.7474   21989449.7524
        -0.000          -0.000
 -18661194.258 9 -14526648.28349  20427946.731    20427946.6974   20427954.3324
        -0.000          -0.000
  -4513395.467 9  -3498602.16246  23866819.972    23866819.7444   23866832.8664
        -0.000          -0.000
 -19822508.088 9 -13295948.73448  21667168.624    21667168.8514   21667177.2824
        -0.000          -0.000
 -10688294.876 9  -8025668.38046  23243113.886    23243113.6074   23243127.8154
        -0.000          -0.000
 99  3 24  1 11 30.0000000  0  7 10 22 17  6  5 30 23                0.000000070
  -6727200.115 7  -5225724.00244  22841353.130    22841352.2304   22841359.8444
        -0.000          -0.000
  -2993894.712 8  -2083552.82945  24523704.283    24523703.2834   24523715.3384
        -0.000          -0.000
 -19059642.995 9 -14315630.66548  21980527.644    21980527.0584   21980535.9834
        -0.000          -0.000
 -18688325.332 9 -14547789.34349  20422783.792    20422783.8114   20422791.3184
        -0.000          -0.000
  -4407024.441 9  -3415715.80346  23887062.228    23887061.6704   23887074.7394
        -0.000          -0.000
 -19744407.990 9 -13235091.56148  21682030.658    21682030.8724   21682039.2034
        -0.000          -0.000
 -10784128.727 9  -8100343.84946  23224877.220    23224876.8434   23224890.9164
        -0.000          -0.000
 99  3 24  1 12  0.0000000  0  7 10 22 17  6  5 30 23                0.000000085
  -6636379.22417  -5154954.57454  22858635.548    22858634.8065          0.0005
        -0.000          -0.000
  -3068028.430 8  -2141319.34245  24509597.463    24509596.3094   24509607.7074
        -0.000          -0.000
 -19106350.737 9 -14352026.20248  21971639.410    21971638.7814   21971647.5654
        -0.000          -0.000
 -18715158.451 9 -14568698.22749  20417677.728    20417677.6864   20417685.0194
        -0.000          -0.000
  -4300642.604 9  -3332821.02946  23907306.486    23907305.7664   23907318.5394
        -0.000          -0.000
 -19665974.979 9 -13173974.98448  21696956.164    21696956.2894   21696964.6114
        -0.000          -0.000
 -10879770.894 9  -8174869.96846  23206676.819    23206676.4124   23206690.5204
        -0.000          -0.000
 99  3 24  1 12 30.0000000  0  7 10 22 17  6  5 30 23                0.000000062
  -6545291.581 7  -5083977.39254  22875969.289    22875968.6964          0.0005
        -0.000          -0.000
  -3141774.323 9  -2198783.61945  24495564.151    24495562.9444   24495574.1824
        -0.000          -0.000
 -19152854.001 9 -14388262.40348  21962790.106    21962789.4774   21962798.1354
        -0.000          -0.000
 -18741600.864 9 -14589302.66849  20412645.896    20412645.8594   20412653.0944
        -0.000          -0.000
  -4194203.053 9  -3249881.27946  23927561.457    23927560.7544   23927573.1514
        -0.000          -0.000
 -19587140.856 9 -13112545.85948  21711957.918    21711958.0344   21711966.4854
        -0.000          -0.000
 -10975156.137 9  -8249195.87246  23188525.452    23188525.0494   23188538.8424
        -0.000          -0.000
 99  3 24  1 13  0.0000000  0  7 10 22 17  6  5 30 23                0.000000032
  -6453957.474 8  -5012808.07954  22893350.427    22893349.9404          0.0005
        -0.000          -0.000
  -3215132.601 9  -2255945.81745  24481604.761    24481603.5784   24481614.4384
        -0.000          -0.000
 -19199145.731 9 -14424333.79348  21953980.874    21953980.3264   21953988.9844
        -0.000          -0.000
 -18767638.146 9 -14609591.41049  20407691.179    20407691.1594   20407698.3054
        -0.000          -0.000
  -4087719.459 8  -3166907.18346  23947824.182    23947823.6884   23947836.3164
        -0.000          -0.000
 -19507892.082 9 -13050793.62148  21727038.360    21727038.5344   21727047.0794
        -0.000          -0.000
 -11070272.716 9  -8323312.43046  23170425.106    23170424.7394   23170438.3164
        -0.000          -0.000
 99  3 24  1 13 30.0000000  0  7 10 22 17  6  5 30 23                0.000000018
  -6362328.066 7  -4941408.54054  22910787.603    22910787.4424          0.0005
        -0.000          -0.000
  -3288065.973 9  -2312776.88045  24467726.408    24467725.0864   24467735.7364
        -0.000          -0.000
 -19245165.095 9 -14460192.94848  21945223.469    21945222.9984   21945231.6744
        -0.000          -0.000
 -18793220.826 9 -14629525.92749  20402823.008    20402822.9304   20402830.0984
        -0.000          -0.000
  -3981157.647 8  -3083872.15245  23968101.490    23968101.2404   23968114.3514
        -0.000          -0.000
 -19428188.918 9 -12988687.30548  21742205.325    21742205.5054   21742214.1664
        -0.000          -0.000
 -11165070.833 9  -8397180.82346  23152385.466    23152385.1284   23152398.5134
        -0.000          -0.000
 99  3 24  1 14  0.0000000  0  7 10 22 17  6  5 30 23                0.000000001
  -6270418.83217  -4869790.99054         0.000           0.0005          0.0005
        -0.000          -0.000
  -3360602.234 9  -2369298.45645  24453923.104    24453921.9724   24453932.7814
        -0.000          -0.000
 -19290925.766 9 -14495850.52048  21936515.471    21936514.9774   21936523.6164
        -0.000          -0.000
 -18818385.676 9 -14649134.86149  20398034.195    20398034.1954   20398041.3944
        -0.000          -0.000
  -3874551.762 8  -3000802.77045  23988387.290    23988387.2764   23988400.9454
        -0.000          -0.000
 -19348060.345 9 -12926249.50248  21757453.159    21757453.4094   21757462.1894
        -0.000          -0.000
 -11259595.077 9  -8470835.81246  23134397.535    23134397.3024   23134410.7914
        -0.000          -0.000
 99  3 24  1 14 30.0000000  0  7 10 22 17  6  5 30 23               -0.000000004
  -6178221.651 7   3839167.72942         0.000           0.0004          0.0004
        -0.000          -0.000
  -3432726.351 9  -2425498.85045  24440198.247    24440197.3234   24440208.0354
        -0.000          -0.000
 -19336438.990 9 -14531315.27948  21927854.660    21927854.1034   21927862.7084
        -0.000          -0.000
 -18843147.889 9 -14668430.04549  20393322.131    20393322.1074   20393329.3174
        -0.000          -0.000
  -3767904.619 8  -2917701.22045  24008681.641    24008681.4764   24008695.4644
        -0.000          -0.000
 -19267518.198 9 -12863489.42748  21772779.699    21772779.9394   21772788.9204
        -0.000          -0.000
 -11353850.886 9  -8544281.63246  23116460.567    23116460.4794   23116474.1604
        -0.000          -0.000
 99  3 24  1 15  0.0000000  0  7 10 22 17  6  5 30 23               -0.000000002
  -6085760.748 8   3911230.59252         0.000           0.0004          0.0005
        -0.000          -0.000
  -3504460.413 9  -2481395.31745  24426547.744    24426546.9634   24426557.2764
        -0.000          -0.000
 -19381755.842 9 -14566627.02248  21919231.016    21919230.4534   21919239.1304
        -0.000          -0.000
 -18867567.352 9 -14687458.16249  20388675.124    20388675.1144   20388682.4774
        -0.000          -0.000
  -3661249.737 9  -2834593.69245  24028977.995    24028977.5454   24028991.6024
        -0.000          -0.000
 -19186614.900 9 -12800447.93848  21788174.846    21788175.2104   21788184.3954
        -0.000          -0.000
 -11447871.898 9  -8617544.50546  23098568.662    23098568.5844   23098582.1214
        -0.000          -0.000
 99  3 24  1 15 30.0000000  0  8 10 22 17  6 26  5 30 23             0.000000004
  -5993034.075 8   3983520.43852         0.000           0.0004          0.0005
        -0.000          -0.000
  -3575817.882 9  -2536998.31045  24412969.194    24412968.3334   24412978.3154
        -0.000          -0.000
 -19426884.581 9 -14601792.19348  21910642.986    21910642.5584   21910651.4764
        -0.000          -0.000
 -18891674.935 9 -14706243.25049  20384087.635    20384087.6104   20384094.9454
        -0.000          -0.000
  -1443471.388 8  -1113405.21342         0.000           0.0004          0.0004
        -0.000          -0.000
  -3554604.595 9  -2751493.72445  24049272.664    24049271.9644   24049285.7104
        -0.000          -0.000
 -19105378.449 9 -12737146.87148  21803633.616    21803633.9284   21803643.2904
        -0.000          -0.000
 -11541684.172 9  -8690644.73546  23080716.741    23080716.7124   23080729.9404
        -0.000          -0.000
 99  3 24  1 16  0.0000000  0  8 10 22 17  6 26  5 30 23             0.000000016
  -5900057.353 8   3867292.75842         0.000           0.0004          0.0004
        -0.000          -0.000
  -3646786.667 9  -2592298.40145  24399464.176    24399463.3334   24399473.4474
        -0.000          -0.000
 -19471851.354 9 -14636831.15748  21902086.118    21902085.6924   21902094.6674
        -0.000          -0.000
 -18915489.972 9 -14724800.38649  20379555.857    20379555.8174   20379563.0384
        -0.000          -0.000
  -1518205.917 8  -1171639.85252         0.000           0.0004          0.0005
        -0.000          -0.000
  -3447983.216 9  -2668412.28445  24069562.587    24069561.8594   24069575.3464
        -0.000          -0.000
 -19023826.932 9 -12673600.29248  21819152.367    21819152.6754   21819162.0904
        -0.000          -0.000
 -11635297.894 9  -8763590.25347  23062902.897    23062902.8044   23062915.5054
        -0.000          -0.000
 99  3 24  1 16 30.0000000  0  8 10 22 17  6 26  5 30 23             0.000000043
  -5806832.731 8   3939933.38852         0.000           0.0004          0.0005
        -0.000          -0.000
  -3717356.115 9  -2647287.32245  24386034.817    24386033.9414   24386044.5754
        -0.000          -0.000
 -19516652.904 9 -14671741.37648  21893560.707    21893560.2444   21893569.2354
        -0.000          -0.000
 -18938995.444 9 -14743116.30249  20375082.923    20375082.8644   20375090.0534
        -0.000          -0.000
  -1592746.33118  -1229723.12044         0.000           0.0005   23072172.8314
        -0.000          -0.000
  -3341358.536 8  -2585328.26545  24089852.526    24089851.9634   24089865.6094
        -0.000          -0.000
 -18941956.742 9 -12609805.37448  21834731.648    21834731.9604   21834741.3804
        -0.000          -0.000
 -11728681.777 9  -8836356.67047  23045132.863    23045132.5964   23045144.8934
        -0.000          -0.000
 99  3 24  1 17  0.0000000  0  8 10 22 17  6 26  5 30 23             0.000000073
  -5713421.667 8   4012715.97652         0.000           0.0004          0.0005
        -0.000          -0.000
  -3787601.241 8  -2702023.49845  24372666.900    24372666.1764   24372677.1734
        -0.000          -0.000
 -19561333.559 9 -14706557.39448  21885058.036    21885057.6904   21885066.7484
        -0.000          -0.000
 -18962241.508 9 -14761230.08149  20370659.347    20370659.2964   20370666.4724
        -0.000          -0.000
  -1667124.846 8  -1287680.23445  23058009.036    23058007.7434   23058018.0994
        -0.000          -0.000
  -3234778.547 9  -2502279.07645  24110133.820    24110133.5034   24110147.4714
        -0.000          -0.000
 -18859811.476 9 -12545796.11048  21850363.333    21850363.6384   21850373.0154
        -0.000          -0.000
 -11821887.857 9  -8908984.51147  23027396.568    23027396.0564   23027408.1204
        -0.000          -0.000
 99  3 24  1 17 30.0000000  0  8 10 22 17  6 26  5 30 23             0.000000059
  -5619792.026 8   3893985.38742         0.000           0.0004          0.0004
        -0.000          -0.000
  -3857492.889 8  -2756484.25445  24359366.004    24359365.7334   24359377.0834
        -0.000          -0.000
 -19605862.183 9 -14741254.93548  21876584.415    21876584.0464   21876593.0594
        -0.000          -0.000
 -18985179.378 9 -14779103.71549  20366294.384    20366294.3384   20366301.4824
        -0.000          -0.000
  -1741297.464 8  -1345476.92445  23043893.791    23043894.3244   23043903.4384
        -0.000          -0.000
  -3128205.628 8  -2419235.40845  24130413.681    24130413.3334   24130427.8664
        -0.000          -0.000
 -18777360.651 9 -12481548.75248  21866053.194    21866053.4564   21866062.8344
        -0.000          -0.000
 -11914869.341 9  -8981437.37947  23009702.844    23009702.2064   23009713.9794
        -0.000          -0.000
 99  3 24  1 18  0.0000000  0  8 10 22 17  6 26  5 30 23             0.000000044
  -5525957.991 8   3967102.95842         0.000           0.0004          0.0004
        -0.000          -0.000
  -3927020.541 8  -2810661.39045  24346134.748    24346134.6924   24346146.4174
        -0.000          -0.000
 -19650236.264 9 -14775832.04748  21868140.365    21868139.9414   21868148.7584
        -0.000          -0.000
 -19007777.106 9 -14796712.29549  20361994.155    20361994.1154   20362001.2004
        -0.000          -0.000
  -1815234.634 8  -1403089.99445  23029823.790    23029823.5454   23029833.2034
        -0.000          -0.000
  -3021615.484 8  -2336178.29345  24150696.962    24150696.5814   24150711.5014
        -0.000          -0.000
 -18694604.256 9 -12417063.28648  21881801.113    21881801.3444   21881810.7934
        -0.000          -0.000
 -12007589.905 9  -9053686.90947  22992058.165    22992057.6304   22992069.4704
        -0.000          -0.000
 99  3 24  1 18 30.0000000  0  8 10 22 17  6 26  5 30 23             0.000000028
  -5431895.412 8   4040398.51352         0.000           0.0004          0.0005
        -0.000          -0.000
  -3996191.405 8  -2864560.47545  24332971.405    24332971.3664   24332983.8784
        -0.000          -0.000
 -19694419.842 9 -14810260.72348  21859732.595    21859732.0734   21859740.7604
        -0.000          -0.000
 -19029990.871 9 -14814021.68349  20357766.987    20357766.9314   20357773.9494
        -0.000          -0.000
  -1888894.359 8  -1460486.97945  23015806.158    23015805.6104   23015816.2124
        -0.000          -0.000
  -2914989.891 8  -2253093.58445  24170986.866    24170986.4854   24171001.8504
        -0.000          -0.000
 -18611521.056 9 -12352323.20448  21897611.310    21897611.6284   21897620.9534
        -0.000          -0.000
 -12100020.592 9  -9125710.58447  22974468.891    22974468.2674   22974480.0834
        -0.000          -0.000
 99  3 24  1 19  0.0000000  0  8 10 22 17  6 26  5 30 23             0.000000011
  -5337594.33818   4113879.80044         0.000           0.0005   23105798.2044
        -0.000          -0.000
  -4064991.167 8  -2918170.44045  24319878.966    24319878.8794   24319891.8554
        -0.000          -0.000
 -19738411.488 9 -14844539.85148  21851360.933    21851360.5284   21851369.3624
        -0.000          -0.000
 -19051812.725 9 -14831025.68549  20353614.382    20353614.3064   20353621.3694
        -0.000          -0.000
  -1962270.812 8  -1517663.37145  23001843.047    23001842.4864   23001853.8124
        -0.000          -0.000
  -2808347.341 8  -2169995.63545  24191280.201    24191279.9054   24191295.3714
        -0.000          -0.000
 -18528102.552 9 -12287321.82448  21913485.473    21913485.8294   21913494.8914
        -0.000          -0.000
 -12192167.711 9  -9197513.28847  22956933.587    22956932.9964   22956944.7184
        -0.000          -0.000
 99  3 24  1 19 30.0000000  0  8 10 22 17  6 26  5 30 23             0.000000002
  -5243041.395 8   4187557.42344  23123779.610    23123783.9714   23123792.6614
        -0.000          -0.000
  -4133385.568 8  -2971464.56645  24306863.785    24306863.6384   24306876.7844
        -0.000          -0.000
 -19782200.758 9 -14878661.27948  21843028.029    21843027.6774   21843036.3764
        -0.000          -0.000
 -19073210.056 9 -14847698.91049  20349542.565    20349542.5154   20349549.6194
        -0.000          -0.000
  -2035355.366 9  -1574612.23445  22987935.479    22987935.0934   22987946.6584
        -0.000          -0.000
  -2701685.871 8  -2086882.90945  24211577.280    24211577.0544   24211592.4254
        -0.000          -0.000
 -18444343.455 9 -12222055.06148  21929424.584    21929424.9144   21929433.7204
        -0.000          -0.000
 -12284019.098 9  -9269085.56047  22939454.573    22939454.0774   22939465.8234
        -0.000          -0.000
 99  3 24  1 20  0.0000000  0  8 10 22 17  6 26  5 30 23            -0.000000005
  -5148243.952 8   4261425.55644  23141818.450    23141822.9034   23141826.8194
        -0.000          -0.000
  -4201371.267 9  -3024440.25145  24293926.592    24293926.2954   24293939.2544
        -0.000          -0.000
 -19825787.412 9 -14912624.81048  21834733.916    21834733.4094   21834741.9464
        -0.000          -0.000
 -19094183.032 9 -14864041.46249  20345551.551    20345551.4784   20345558.5964
        -0.000          -0.000
  -2108144.717 8  -1631331.06245  22974084.221    22974084.0224   22974095.1974
        -0.000          -0.000
  -2595026.668 8  -2003772.01245  24231874.087    24231873.7124   24231888.8574
        -0.000          -0.000
 -18360236.245 9 -12156517.01948  21945429.925    21945430.2344   21945438.8724
        -0.000          -0.000
 -12375598.092 9  -9340445.60647  22922027.584    22922027.0914   22922038.8334
        -0.000          -0.000
 99  3 24  1 20 30.0000000  0  8 10 22 17  6 26  5 30 23            -0.000000028
  -5053210.645 8   4335477.49844  23159902.409    23159901.1944   23159911.5054
        -0.000          -0.000
  -4268962.077 8  -3077108.20646  24281064.308    24281063.9894   24281076.8554
        -0.000          -0.000
 -19869190.587 9 -14946445.37848  21826474.573    21826474.0174   21826482.4614
        -0.000          -0.000
 -19114764.736 9 -14880079.11849  20341634.846    20341634.7904   20341641.9744
        -0.000          -0.000
  -2180661.594 8  -1687837.50545  22960284.745    22960284.6264   22960295.6294
        -0.000          -0.000
  -2488424.268 9  -1920705.37145  24252160.402    24252160.0084   24252174.5464
        -0.000          -0.000
 -18275788.005 9 -12090713.23248  21961499.965    21961500.3394   21961508.9624
        -0.000          -0.000
 -12466946.370 9  -9411625.86047  22904644.554    22904643.9764   22904655.9304
        -0.000          -0.000
 99  3 24  1 21  0.0000000  0  8 10 22 17  6 26  5 30 23            -0.000000032
  -4957917.175 8   4409732.11145  23178035.920    23178036.4094   23178044.8954
        -0.000          -0.000
  -4336094.757 8  -3129419.20046  24268288.969    24268288.8444   24268301.8184
        -0.000          -0.000
 -19912385.090 9 -14980103.34648  21818254.794    21818254.2774   21818262.7374
        -0.000          -0.000
 -19134936.372 9 -14895797.25149  20337796.159    20337796.1074   20337803.4144
        -0.000          -0.000
  -2252872.359 8  -1744105.41445  22946543.460    22946543.3094   22946554.1784
        -0.000          -0.000
  -2381847.534 9  -1837658.68845  24272441.955    24272441.2584   24272455.3404
        -0.000          -0.000
 -18190963.484 9 -12024616.25948  21977641.513    21977641.9054   21977650.6254
        -0.000          -0.000
 -12558022.442 9  -9482594.00747  22887313.220    22887312.5944   22887324.6204
        -0.000          -0.000
 99  3 24  1 21 30.0000000  0  8 10 22 17  6 26  5 30 23            -0.000000041
  -4862418.725 8   4484146.48845  23196209.323    23196209.6574   23196217.6794
        -0.000          -0.000
  -4402807.048 8  -3181402.61146  24255593.746    24255593.6434   24255606.6634
        -0.000          -0.000
 -19955394.580 9 -15013617.14448  21810070.433    21810069.8034   21810078.1944
        -0.000          -0.000
 -19154739.740 9 -14911228.42349  20334027.658    20334027.6264   20334034.9834
        -0.000          -0.000
  -2324812.184 8  -1800162.29945  22932853.424    22932853.3164   22932864.1774
        -0.000          -0.000
  -2275324.813 9  -1754654.11945  24292712.878    24292712.3254   24292726.1574
        -0.000          -0.000
 -18105813.456 9 -11958265.63448  21993844.815    21993845.2684   21993854.1964
        -0.000          -0.000
 -12648853.391 9  -9553371.13447  22870028.256    22870027.7604   22870039.8154
        -0.000          -0.000
 99  3 24  1 22  0.0000000  0  8 10 22 17  6 26  5 30 23            -0.000000036
  -4766694.218 8   4558736.97845  23214425.680    23214425.6384   23214433.3954
        -0.000          -0.000
  -4469074.276 8  -3233039.25246  24242983.164    24242983.1624   24242996.2094
        -0.000          -0.000
 -19998182.916 9 -15046958.61948  21801928.105    21801927.4994   21801935.7424
        -0.000          -0.000
 -19174158.587 9 -14926359.95349  20330332.354    20330332.3444   20330339.6884
        -0.000          -0.000
  -2396450.613 8  -1855984.30245  22919221.277    22919221.1024   22919231.2844
        -0.000          -0.000
  -2168826.411 9  -1671668.49145  24312979.006    24312978.5944   24312992.8044
        -0.000          -0.000
 -18020304.179 9 -11891635.07148  22010116.710    22010117.1834   22010126.1324
        -0.000          -0.000
 -12739405.770 9  -9623931.20347  22852796.279    22852795.8994   22852808.0024
        -0.000          -0.000
 99  3 24  1 22 30.0000000  0  8 10 22 17  6 26  5 30 23            -0.000000038
  -4670785.643 8   4633470.89645  23232676.533    23232676.4934   23232684.4954
        -0.000          -0.000
  -4534934.338 9  -3284358.60845  24230450.385    24230450.3184   24230463.0134
        -0.000          -0.000
 -20040787.237 9 -15080156.68748  21793820.901    21793820.2524   21793828.3784
        -0.000          -0.000
 -19193234.409 9 -14941224.19249  20326702.393    20326702.3374   20326709.6304
        -0.000          -0.000
  -2467846.306 8  -1911617.14345  22905635.290    22905634.9304   22905644.7234
        -0.000          -0.000
  -2062375.684 9  -1588720.03945  24333236.025    24333235.5814   24333250.2164
        -0.000          -0.000
 -17934488.647 9 -11824765.88048  22026447.048    22026447.4284   22026456.2364
        -0.000          -0.000
 -12829702.936 9  -9694292.40047  22835613.374    22835612.8644   22835624.8014
        -0.000          -0.000
 99  3 24  1 23  0.0000000  0  8 10 22 17  6 26  5 30 23            -0.000000040
  -4574697.603 8   4708344.71845  23250961.242    23250961.1254   23250968.8454
        -0.000          -0.000
  -4600381.292 9  -3335356.09346  24217996.474    24217996.2994   24218008.3804
        -0.000          -0.000
 -20083209.735 9 -15113213.10148  21785748.102    21785747.4214   21785755.5744
        -0.000          -0.000
 -19211943.380 9 -14955802.58049  20323142.179    20323142.1324   20323149.3634
        -0.000          -0.000
  -2539006.576 8  -1967066.48145  22892093.692    22892093.4244   22892103.2494
        -0.000          -0.000
  -1955923.275 9  -1505770.27545  24353493.617    24353493.1374   24353507.8834
        -0.000          -0.000
 -17848367.059 9 -11757658.20248  22042835.507    22042835.9024   22042844.5824
        -0.000          -0.000
 -12919729.701 9  -9764442.90047  22818481.911    22818481.2254   22818493.1434
        -0.000          -0.000
 99  3 24  1 23 30.0000000  0  8 10 22 17  6 26  5 30 23            -0.000000039
  -4478406.497 8   4783376.75845  23269284.472    23269283.8714   23269292.0264
        -0.000          -0.000
  -4665407.407 9  -3386025.62746  24205622.548    24205622.3364   24205633.9694
        -0.000          -0.000
 -20125433.275 9 -15146114.48148  21777713.139    21777712.4734   21777720.7014
        -0.000          -0.000
 -19230244.170 9 -14970062.89649  20319659.670    20319659.5924   20319666.7454
        -0.000          -0.000
  -2609908.931 8  -2022314.91345  22878601.332    22878601.0944   22878610.8134
        -0.000          -0.000
  -1849456.536 9  -1422809.36945  24373754.087    24373753.4314   24373768.1334
        -0.000          -0.000
 -17761919.804 9 -11690296.75248  22059285.975    22059286.3544   22059295.0004
        -0.000          -0.000
 -13009465.408 9  -9834366.61347  22801405.402    22801404.9264   22801416.8134
        -0.000          -0.000
 99  3 24  1 24  0.0000000  0  8 10 22 17  6 26  5 30 23            -0.000000038
  -4381903.537 7   4858573.90744  23287648.079    23287647.2704   23287656.3414
        -0.000          -0.000
  -4730024.235 9  -3436376.20846  24193326.533    24193325.9794   24193337.5254
        -0.000          -0.000
 -20167479.541 9 -15178877.71648  21769712.080    21769711.3534   21769719.6724
        -0.000          -0.000
 -19248139.819 9 -14984007.53249  20316254.275    20316254.1904   20316261.2914
        -0.000          -0.000
  -2680552.385 8  -2077361.69145  22865157.969    22865157.8514   22865167.9474
        -0.000          -0.000
  -1742987.319 9  -1339846.51945  24394014.841    24394014.0944   24394028.5464
        -0.000          -0.000
 -17675152.523 9 -11622685.93148  22075797.265    22075797.6234   22075806.3904
        -0.000          -0.000
 -13098914.413 9  -9904066.92747  22784383.831    22784383.3504   22784395.0174
        -0.000          -0.000
 99  3 24  1 24 30.0000000  0  8 10 22 17  6 26  5 30 23            -0.000000031
  -4285184.359 6   4933939.50144  23306052.264    23306051.5684   23306061.9854
        -0.000          -0.000
  -4794228.288 9  -3486405.17646  24181109.170    24181108.3964   24181119.6474
        -0.000          -0.000
 -20209349.311 9 -15211503.42948  21761744.282    21761743.6294   21761752.1474
        -0.000          -0.000
 -19265625.047 9 -14997632.35649  20312926.934    20312926.8434   20312933.9024
        -0.000          -0.000
  -2750933.191 8  -2132203.78045  22851764.727    22851764.7024   22851775.0454
        -0.000          -0.000
  -1636504.375 8  -1256872.98045  24414278.031    24414277.3474   24414291.4364
        -0.000          -0.000
 -17588080.813 9 -11554837.88848  22092366.365    22092366.8234   22092375.7374
        -0.000          -0.000
 -13188069.668 9  -9973538.34047  22767418.230    22767417.6754   22767429.1564
        -0.000          -0.000
 99  3 24  1 25  0.0000000  0  8 10 22 17  6 26  5 30 23            -0.000000005
  -4188225.000 7   5009492.18344  23324502.354    23324501.6524   23324512.6664
        -0.000          -0.000
  -4857996.151 9  -3536094.26846  24168974.976    24168974.1764   24168984.8384
        -0.000          -0.000
 -20251001.490 9 -15243959.58848  21753817.946    21753817.3964   21753825.9734
        -0.000          -0.000
 -19282676.848 9 -15010919.45249  20309682.011    20309681.9204   20309688.9714
        -0.000          -0.000
  -2820990.530 8  -2186793.72545  22838433.376    22838433.4614   22838443.4974
        -0.000          -0.000
  -1530010.222 8  -1173890.69945  24434543.092    24434542.7584   24434556.2624
        -0.000          -0.000
 -17500679.418 9 -11486732.95148  22108998.370    22108998.8184   22109007.7504
        -0.000          -0.000
 -13276903.294 9 -10042759.14447  22750513.749    22750513.1884   22750524.4834
        -0.000          -0.000
 99  3 24  1 25 30.0000000  0  8 10 22 17  6 26  5 30 23             0.000000008
  -4091071.692 8   5085196.04944  23342990.204    23342989.9744   23343000.2174
        -0.000          -0.000
  -4921372.588 9  -3585478.38246  24156915.291    24156914.4464   24156924.4574
        -0.000          -0.000
 -20292482.538 9 -15276282.39648  21745924.358    21745923.7604   21745932.3284
        -0.000          -0.000
 -19299366.826 9 -15023924.60249  20306505.899    20306505.8594   20306512.9464
        -0.000          -0.000
  -2890756.209 8  -2241156.41945  22825156.821    22825157.1034   22825167.2874
        -0.000          -0.000
  -1423599.968 8  -1090973.75545  24454792.144    24454791.6914   24454805.4974
        -0.000          -0.000
 -17413020.348 9 -11418427.24148  22125679.492    22125679.9004   22125688.7184
        -0.000          -0.000
 -13365465.009 9 -10111768.06447  22733660.727    22733660.2254   22733671.5744
        -0.000          -0.000
 99  3 24  1 26  0.0000000  0  8 10 22 17  6 26  5 30 23             0.000000027
  -3993698.765 7   5161071.01045  23361520.549    23361519.5454   23361529.6514
        -0.000          -0.000
  -4984327.999 8  -3634534.40846  24144935.398    24144934.5204   24144944.2704
        -0.000          -0.000
 -20333769.959 9 -15308454.32048  21738067.595    21738066.9894   21738075.4374
        -0.000          -0.000
 -19315685.328 9 -15036640.29349  20303400.623    20303400.5684   20303407.6994
        -0.000          -0.000
  -2960210.180 8  -2295276.18645  22811939.446    22811939.8434   22811950.2964
        -0.000          -0.000
  -1317249.972 8  -1008103.81345  24475029.439    24475029.1404   24475043.5064
        -0.000          -0.000
 -17325086.255 9 -11349907.23948  22142412.929    22142413.3064   22142422.0174
        -0.000          -0.000
 -13453737.360 9 -10180551.50847  22716862.546    22716862.2144   22716873.6264
        -0.000          -0.000
 99  3 24  1 26 30.0000000  0  8 10 22 17  6 26  5 30 23             0.000000020
  -3896167.607 8   5237069.29144  23380080.390    23380079.7684   23380089.2934
        -0.000          -0.000
  -5046900.359 8  -3683291.97645  24133027.933    24133026.9944   24133037.1554
        -0.000          -0.000
 -20374920.439 9 -15340519.54448  21730236.927    21730236.2514   21730244.6464
        -0.000          -0.000
 -19331667.464 9 -15049093.87949  20300359.309    20300359.2544   20300366.3904
        -0.000          -0.000
  -3029395.459 8  -2349186.64645  22798773.904    22798774.2274   22798784.8934
        -0.000          -0.000
  -1211011.177 8   -925320.57945  24495245.743    24495245.4544   24495259.8814
        -0.000          -0.000
 -17236917.076 9 -11281204.03848  22159191.068    22159191.4414   22159200.1074
        -0.000          -0.000
 -13541762.034 9 -10249141.95247  22700111.776    22700111.4804   22700122.8214
        -0.000          -0.000
 99  3 24  1 27  0.0000000  0  8 10 22 17  6 26  5 30 23             0.000000016
  -3798430.631 7   5313227.89644  23398679.165    23398678.5024   23398687.6404
        -0.000          -0.000
  -5109036.899 8  -3731709.93145  24121203.101    24121202.3214   24121212.8104
        -0.000          -0.000
 -20415902.205 9 -15372453.29748  21722438.160    21722437.5004   21722446.0734
        -0.000          -0.000
 -19347257.308 9 -15061241.77749  20297392.595    20297392.5684   20297399.7034
        -0.000          -0.000
  -3098252.820 8  -2402841.57145  22785670.482    22785671.0684   22785681.4154
        -0.000          -0.000
  -1104850.049 8   -842597.79445  24515447.505    24515447.3394   24515462.1374
        -0.000          -0.000
 -17148451.185 9 -11212269.63247  22176025.669    22176025.9774   22176034.6774
        -0.000          -0.000
 -13629487.929 9 -10317499.57547  22683417.933    22683417.6974   22683428.8724
        -0.000          -0.000
 99  3 24  1 27 30.0000000  0  8 10 22 17  6 26  5 30 23             0.000000010
  -3700499.346 7   5389537.96344  23417314.898    23417314.3624   23417323.4294
        -0.000          -0.000
  -5170757.918 8  -3779804.08645  24109457.381    24109456.5624   24109467.6844
        -0.000          -0.000
 -20456756.437 9 -15404287.67848  21714663.608    21714663.0024   21714671.7494
        -0.000          -0.000
 -19362472.644 9 -15073097.86049  20294497.206    20294497.1524   20294504.2594
        -0.000          -0.000
  -3166812.558 8  -2456264.61845  22772623.900    22772624.4904   22772634.9234
        -0.000          -0.000
   -998757.534 8   -759928.49245  24535636.148    24535635.8044   24535651.1944
        -0.000          -0.000
 -17059702.093 9 -11143114.56247  22192914.005    22192914.2754   22192923.1314
        -0.000          -0.000
 -13716940.546 9 -10385644.25947  22666776.460    22666776.0484   22666787.0304
        -0.000          -0.000
 99  3 24  1 28  0.0000000  0  8 10 22 17  6 26  5 30 23             0.000000015
  -3602357.297 7   5466012.25744  23435989.979    23435989.8044   23435999.7834
        -0.000          -0.000
  -5232049.786 9  -3827563.86345  24097793.549    24097792.6774   24097804.1984
        -0.000          -0.000
 -20497446.905 9 -15435994.45248  21706920.393    21706919.8424   21706928.5204
        -0.000          -0.000
 -19377272.844 9 -15084630.44649  20291680.886    20291680.7824   20291687.8344
        -0.000          -0.000
  -3235040.664 8  -2509429.22845  22759640.443    22759640.9294   22759651.3234
        -0.000          -0.000
   -892681.532 8   -677272.07545  24555821.809    24555821.4774   24555836.9934
        -0.000          -0.000
 -16970629.405 9 -11073707.34047  22209863.819    22209864.1214   22209873.3044
        -0.000          -0.000
 -13804098.524 9 -10453559.34747  22650190.666    22650190.1814   22650201.2014
        -0.000          -0.000
 99  3 24  1 28 30.0000000  0  8 10 22 17  6 26  5 30 23             0.000000015
  -3504053.220 7   5542612.80144  23454696.094    23454695.6544   23454706.6574
        -0.000          -0.000
  -5292938.855 9  -3875009.76046  24086206.281    24086205.6074   24086217.3824
        -0.000          -0.000
 -20537975.440 9 -15467575.03548  21699208.152    21699207.4614   21699216.0294
        -0.000          -0.000
 -19391682.714 9 -15095858.89149  20288938.739    20288938.6704   20288945.7274
        -0.000          -0.000
  -3302947.175 8  -2562343.27445  22746717.821    22746718.3954   22746728.7744
        -0.000          -0.000
   -786645.478 8   -594646.77245  24576000.400    24575999.8394   24576015.0864
        -0.000          -0.000
 -16881270.424 9 -11004077.01747  22226868.101    22226868.4894   22226877.8734
        -0.000          -0.000
 -13890991.105 9 -10521267.63347  22633655.091    22633654.6484   22633665.8084
        -0.000          -0.000
 99  3 24  1 29  0.0000000  0  8 10 22 17  6 26  5 30 23             0.000000014
  -3405578.103 7   5619346.65144  23473435.101    23473434.6394   23473445.8814
        -0.000          -0.000
  -5353422.357 9  -3922139.64646  24074696.497    24074695.8364   24074707.4764
        -0.000          -0.000
 -20578304.764 9 -15499000.39048  21691533.544    21691532.9044   21691541.5084
        -0.000          -0.000
 -19405706.312 9 -15106786.33849  20286270.111    20286270.0474   20286277.0354
        -0.000          -0.000
  -3370528.358 9  -2615003.71245  22733857.922    22733858.4074   22733868.4134
        -0.000          -0.000
   -680647.886 9   -512051.43745  24596171.850    24596171.0744   24596185.9484
        -0.000          -0.000
 -16791636.691 9 -10934232.62047  22243924.863    22243925.2214   22243934.7684
        -0.000          -0.000
 -13977619.815 9 -10588770.30747  22617169.841    22617169.4904   22617180.6134
        -0.000          -0.000
 99  3 24  1 29 30.0000000  0  8 10 22 17  6 26  5 30 23             0.000000019
  -3306928.601 7   5696216.37644  23492207.817    23492207.2934   23492217.9994
        -0.000          -0.000
  -5413477.890 9  -3968936.05546  24063268.219    24063267.5174   24063278.9504
        -0.000          -0.000
 -20618390.934 9 -15530236.27548  21683905.293    21683904.6854   21683913.2844
        -0.000          -0.000
 -19419325.835 9 -15117398.92249  20283678.391    20283678.3124   20283685.2504
        -0.000          -0.000
  -3437772.101 8  -2667401.20045  22721061.878    22721062.3074   22721072.1324
        -0.000          -0.000
   -574670.520 8   -429471.83145  24616339.072    24616338.0044   24616352.9474
        -0.000          -0.000
 -16701730.670 9 -10864176.04447  22261033.346    22261033.6484   22261043.5104
        -0.000          -0.000
 -14063958.564 9 -10656047.05147  22600740.259    22600739.8434   22600750.7114
        -0.000          -0.000
 99  3 24  1 30  0.0000000  0  8 10 22 17  6 26  5 30 23             0.000000007
  -3208150.883 8   5773186.02644  23511005.290    23511004.6794   23511014.6414
        -0.000          -0.000
  -5473106.342 9  -4015399.69746  24051921.027    24051920.4934   24051931.7044
        -0.000          -0.000
 -20658253.738 9 -15561298.09648  21676319.667    21676319.0274   21676327.4694
        -0.000          -0.000
 -19432552.410 9 -15127705.31049  20281161.399    20281161.3644   20281168.2404
        -0.000          -0.000
  -3504707.345 9  -2719558.43645  22708324.117    22708324.5854   22708334.4794
        -0.000          -0.000
   -468766.493 9   -346949.37845  24636492.162    24636491.1114   24636506.3134
        -0.000          -0.000
 -16611592.087 9 -10793938.24147  22278186.108    22278186.4324   22278196.4224
        -0.000          -0.000
 -14150016.771 9 -10723105.16747  22584364.177    22584363.6314   22584374.2314
        -0.000          -0.000
 99  3 24  1 30 30.0000000  0  8 10 22 17  6 26  5 30 23            -0.000000001
  -3109208.291 8   5850284.14745  23529833.987    23529833.3144   23529842.4904
        -0.000          -0.000
  -5532264.137 9  -4061496.56846  24040663.335    24040662.9354   24040674.1614
        -0.000          -0.000
 -20697886.201 9 -15592180.44048  21668777.773    21668777.1184   21668785.4324
        -0.000          -0.000
 -19445355.755 9 -15137681.90249  20278724.952    20278724.9014   20278731.8014
        -0.000          -0.000
  -3571322.735 9  -2771466.45546  22695647.688    22695648.0494   22695657.8374
        -0.000          -0.000
   -362929.758 8   -264479.36045  24656632.288    24656631.4294   24656646.8164
        -0.000          -0.000
 -16521201.579 9 -10723504.12547  22295386.816    22295387.1944   22295397.2384
        -0.000          -0.000
 -14235745.160 9 -10789906.30047  22568050.499    22568049.9454   22568060.4524
        -0.000          -0.000
 99  3 24  1 31  0.0000000  0  8 10 22 17  6 26  5 30 23             0.000000041
  -3010105.171 8   5927507.36345  23548693.334    23548692.3684   23548700.8234
        -0.000          -0.000
  -5590959.339 9  -4107232.97946  24029494.183    24029493.6374   24029504.6804
        -0.000          -0.000
 -20737336.991 9 -15622921.22748  21661270.487    21661269.8454   21661278.0984
        -0.000          -0.000
 -19457748.310 9 -15147338.40549  20276366.630    20276366.5844   20276373.5594
        -0.000          -0.000
  -3637639.840 9  -2823141.96745  22683028.122    22683028.3874   22683037.6634
        -0.000          -0.000
   -257183.543 8   -182079.85445  24676754.851    24676754.4484   24676769.7714
        -0.000          -0.000
 -16430568.807 9 -10652881.25747  22312634.008    22312634.2644   22312644.0924
        -0.000          -0.000
 -14321146.093 9 -10856452.28147  22551798.774    22551798.3164   22551808.8774
        -0.000          -0.000
 99  3 24  1 31 30.0000000  0  8 10 22 17  6 26  5 30 23             0.000000019
  -2910855.606 8   6004844.67545  23567580.189    23567579.0844   23567587.5014
        -0.000          -0.000
  -5649199.381 9  -4152614.71746  24018411.647    24018410.9304   24018421.8304
        -0.000          -0.000
 -20776646.876 9 -15653552.21548  21653790.111    21653789.4534   21653797.6894
        -0.000          -0.000
 -19469739.135 9 -15156681.87649  20274084.847    20274084.8334   20274091.8114
        -0.000          -0.000
  -3703668.195 8  -2874592.48845  22670463.133    22670463.1964   22670472.6964
        -0.000          -0.000
   -151542.859 8    -99762.62745  24696857.697    24696857.3614   24696873.1084
        -0.000          -0.000
 -16339695.098 9 -10582070.65847  22329926.996    22329927.2324   22329936.7034
        -0.000          -0.000
 -14406232.118 9 -10922752.86447  22535606.808    22535606.4454   22535617.2004
        -0.000          -0.000
 99  3 24  1 32  0.0000000  0  8 10 22 17  6 26  5 30 23             0.000000030
  -2811399.656 8   6082342.82145  23586506.485    23586505.0514   23586513.6794
        -0.000          -0.000
  -5706937.580 9  -4197605.38846  24007424.498    24007423.6574   24007434.5494
        -0.000          -0.000
 -20815780.109 9 -15684045.56448  21646343.316    21646342.6594   21646350.8154
        -0.000          -0.000
 -19481282.405 9 -15165676.60049  20271888.282    20271888.2644   20271895.1904
        -0.000          -0.000
  -3769351.265 8  -2925774.00745  22657963.710    22657963.7594   22657973.5354
        -0.000          -0.000
    -45948.342 8    -17481.38845  24716951.834    24716951.6104   24716967.5434
        -0.000          -0.000
 -16248522.745 9 -10511027.33447  22347276.757    22347277.0224   22347286.0484
        -0.000          -0.000
 -14490964.478 9 -10988777.88747  22519482.316    22519481.9784   22519492.8994
        -0.000          -0.000
 99  3 24  1 32 30.0000000  0  8 10 22 17  6 26  5 30 23             0.000000036
  -2711791.405 8   6159959.66045  23605461.371    23605459.7904   23605468.6724
        -0.000          -0.000
  -5764252.741 9  -4242266.43646  23996518.015    23996517.0664   23996527.9044
        -0.000          -0.000
 -20854790.613 9 -15714443.26648  21638919.969    21638919.2884   21638927.3024
        -0.000          -0.000
 -19492453.948 9 -15174381.66749  20269762.341    20269762.3854   20269769.2454
        -0.000          -0.000
  -3834734.595 9  -2976721.92746  22645521.317    22645521.4624   22645531.5954
        -0.000          -0.000
     59556.080 8     64729.62845  24737028.974    24737028.6314   24737044.6314
        -0.000          -0.000
 -16157105.409 9 -10439793.11547  22364672.818    22364673.1794   22364682.1964
        -0.000          -0.000
 -14575424.806 9 -11054590.94047  22503409.751    22503409.4244   22503420.4964
        -0.000          -0.000
 99  3 24  1 33  0.0000000  0  8 10 22 17  6 26  5 30 23             0.000000041
  -2612018.148 8   6237705.07344  23624447.089    23624446.0354   23624455.6924
        -0.000          -0.000
  -5821132.939 9  -4286588.53646  23985694.431    23985693.3804   23985703.9184
        -0.000          -0.000
 -20893643.880 9 -15744718.46448  21631526.508    21631525.7964   21631533.7284
        -0.000          -0.000
 -19503231.981 9 -15182780.09949  20267711.380    20267711.3754   20267718.1254
        -0.000          -0.000
  -3899789.090 9  -3027413.61246  22633141.780    22633141.9824   22633152.2124
        -0.000          -0.000
    164992.543 8    146887.69845  24757093.313    24757092.6214   24757108.4304
        -0.000          -0.000
 -16065437.530 9 -10368363.66247  22382116.710    22382117.0134   22382126.1384
        -0.000          -0.000
 -14659617.072 9 -11120195.11747  22487388.435    22487388.0664   22487399.0534
        -0.000          -0.000
 99  3 24  1 33 30.0000000  0  8 10 22 17  6 26  5 30 23             0.000000047
  -2512069.474 8   6315587.14744  23643466.358    23643465.7814   23643475.8424
        -0.000          -0.000
  -5877575.401 9  -4330569.56446  23974954.030    23974952.9254   23974963.2674
        -0.000          -0.000
 -20932312.876 9 -15774850.08148  21624167.912    21624167.2614   21624175.3544
        -0.000          -0.000
 -19513606.098 9 -15190863.79349  20265737.280    20265737.2324   20265744.0014
        -0.000          -0.000
  -3964498.797 9  -3077836.56446  22620827.877    22620828.1274   22620838.1144
        -0.000          -0.000
    270375.142 8    229003.78245  24777147.185    24777146.4174   24777162.1454
        -0.000          -0.000
 -15973516.141 9 -10296736.65647  22399608.837    22399609.1034   22399618.2544
        -0.000          -0.000
 -14743529.818 9 -11185581.48447  22471420.361    22471419.9904   22471430.7814
        -0.000          -0.000
 99  3 24  1 34  0.0000000  0  8 10 22 17  6 26  5 30 23             0.000000048
  -2411958.067 8   6393596.00744  23662516.588    23662516.3704   23662526.2254
        -0.000          -0.000
  -5933589.695 9  -4374216.96746  23964294.932    23964293.8164   23964303.8484
        -0.000          -0.000
 -20970802.621 9 -15804842.03148  21616843.375    21616842.7324   21616851.1134
        -0.000          -0.000
 -19523575.908 9 -15198632.45049  20263840.048    20263840.0354   20263846.7404
        -0.000          -0.000
  -4028859.435 9  -3127987.55946  22608580.392    22608580.6464   22608590.5824
        -0.000          -0.000
    375702.173 8    311076.55345  24797190.311    24797189.7444   24797204.8184
        -0.000          -0.000
 -15881361.770 9 -10224928.12547  22417145.529    22417145.7524   22417154.6924
        -0.000          -0.000
 -14827160.350 9 -11250747.95147  22455505.963    22455505.6174   22455516.0704
        -0.000          -0.000
 99  3 24  1 34 30.0000000  0  8 10 22 17  6 26  5 30 23             0.000000042
  -2311683.246 8   6471732.16254  23681598.068    23681596.8064          0.0005
        -0.000          -0.000
  -5989170.785 9  -4417526.81046  23953718.113    23953716.9074   23953726.9654
        -0.000          -0.000
 -21009108.123 9 -15834690.40848  21609553.760    21609553.2084   21609561.8664
        -0.000          -0.000
 -19533112.806 9 -15206063.77249  20262025.324    20262025.2924   20262031.8314
        -0.000          -0.000
  -4092848.383 9  -3177848.88146  22596403.576    22596403.8564   22596413.9204
        -0.000          -0.000
    480969.633 8    393102.93745  24817221.976    24817221.6754   24817236.5644
        -0.000          -0.000
 -15788960.779 9 -10152927.42447  22434729.132    22434729.2804   22434737.9324
        -0.000          -0.000
 -14910486.754 9 -11315677.42647  22439649.327    22439648.9554   22439659.2674
        -0.000          -0.000
 99  3 24  1 35  0.0000000  0  8 10 22 17  6 26  5 30 23             0.000000035
  -2211247.87618   6549993.45353         0.000           0.0005          0.0005
        -0.000          -0.000
  -6044307.573 9  -4460490.43046  23943225.838    23943224.4714   23943234.5764
        -0.000          -0.000
 -21047231.922 9 -15864397.17848  21602298.788    21602298.3004   21602306.9804
        -0.000          -0.000
 -19542203.306 9 -15213147.24749  20260295.487    20260295.4004   20260301.8134
        -0.000          -0.000
  -4156463.679 9  -3227419.07346  22584297.910    22584298.1864   22584308.3994
        -0.000          -0.000
    586173.430 8    475079.69145  24837241.702    24837241.2354   24837256.4864
        -0.000          -0.000
 -15696318.312 9 -10080738.55447  22452358.352    22452358.6164   22452367.0944
        -0.000          -0.000
 -14993474.780 9 -11380343.23247  22423856.922    22423856.6584   22423866.9344
        -0.000          -0.000
 99  3 24  1 35 30.0000000  0  8 10 22 17  6 26  5 30 23             0.000000029
  -2110685.99218   6628353.39053         0.000           0.0005          0.0005
        -0.000          -0.000
  -6099003.030 9  -4503110.17746  23932817.550    23932816.1674   23932826.3734
        -0.000          -0.000
 -21085197.054 9 -15893980.31848  21595074.113    21595073.6124   21595082.2294
        -0.000          -0.000
 -19550876.727 9 -15219905.74249  20258644.775    20258644.7324   20258651.3204
        -0.000          -0.000
  -4219717.129 9  -3276707.35046  22572261.011    22572261.2694   22572271.6154
        -0.000          -0.000
    691301.549 8    556997.48045  24857247.002    24857246.8564   24857261.6324
        -0.000          -0.000
 -15603432.809 9 -10008360.31247  22470033.855    22470034.2294   22470042.5684
        -0.000          -0.000
 -15076123.027 9 -11444744.28547  22408129.428    22408129.0254   22408139.4994
        -0.000          -0.000
 99  3 24  1 36  0.0000000  0  8 10 22 17  6 26  5 30 23             0.000000025
  -2009996.217 8   4332670.06142         0.000           0.0004          0.0004
        -0.000          -0.000
  -6153241.098 9  -4545373.47546  23922496.059    23922494.8324   23922505.2394
        -0.000          -0.000
 -21123000.271 9 -15923437.31848  21587880.246    21587879.7524   21587888.4544
        -0.000          -0.000
 -19559121.191 9 -15226329.96549  20257075.833    20257075.8284   20257082.5044
        -0.000          -0.000
  -4282606.230 9  -3325711.72046  22560293.582    22560293.7834   22560304.0554
        -0.000          -0.000
    796347.546 8    638851.27145  24877236.546    24877236.2294   24877251.3164
        -0.000          -0.000
 -15510304.801 9  -9935793.10047  22487755.640    22487755.8514   22487764.2624
        -0.000          -0.000
 -15158427.742 9 -11508877.65347  22392467.053    22392466.7294   22392477.5134
        -0.000          -0.000
 99  3 24  1 36 30.0000000  0  8 10 22 17  6 26  5 30 23             0.000000041
  -1909151.249 8   4411233.30952         0.000           0.0004          0.0005
        -0.000          -0.000
  -6206995.050 9  -4587259.55546  23912266.987    23912265.8124   23912276.2374
        -0.000          -0.000
 -21160607.139 9 -15952741.31748  21580723.882    21580723.4164   21580732.0344
        -0.000          -0.000
 -19566919.345 9 -15232406.41549  20255591.988    20255591.9654   20255598.6314
        -0.000          -0.000
  -4345114.308 9  -3374419.16146  22548398.761    22548398.9484   22548408.9534
        -0.000          -0.000
    901324.753 8    720651.45845  24897213.304    24897213.0474   24897228.3584
        -0.000          -0.000
 -15416905.221 9  -9863014.25847  22505528.761    22505528.9974   22505537.8134
        -0.000          -0.000
 -15240363.193 9 -11572723.29647  22376875.051    22376874.8524   22376885.6904
        -0.000          -0.000
 99  3 24  1 37  0.0000000  0  8 10 22 17  6 26  5 30 23             0.000000062
  -1808178.872 7   4489894.94552         0.000           0.0004          0.0005
        -0.000          -0.000
  -6260284.861 9  -4628783.99946  23902126.408    23902125.3524   23902135.5404
        -0.000          -0.000
 -21198044.514 9 -15981913.22948  21573599.829    21573599.3084   21573607.7334
        -0.000          -0.000
 -19574325.637 9 -15238177.51849  20254182.654    20254182.5914   20254189.2854
        -0.000          -0.000
  -4407291.251 8  -3422868.54646  22536566.661    22536566.8814   22536576.8564
        -0.000          -0.000
   1006187.038 8    802362.07845  24917167.744    24917167.5544   24917183.2294
        -0.000          -0.000
 -15323287.632 9  -9790065.53747  22523343.209    22523343.5154   22523352.9364
        -0.000          -0.000
 -15321964.535 9 -11636308.58947  22361346.879    22361346.5034   22361357.2324
        -0.000          -0.000
 99  3 24  1 37 30.0000000  0  8 10 22 17  6 26  5 30 23             0.000000073
  -1707091.242 7   4359149.35642         0.000           0.0004          0.0004
        -0.000          -0.000
  -6313143.615 9  -4669972.55146  23892067.836    23892066.6374   23892076.6974
        -0.000          -0.000
 -21235347.479 9 -16010980.40448  21566501.364    21566500.8424   21566509.0294
        -0.000          -0.000
 -19581364.263 9 -15243662.14549  20252843.082    20252843.0794   20252849.9254
        -0.000          -0.000
  -4469154.532 8  -3471073.51645  22524793.878    22524794.1904   22524804.4664
        -0.000          -0.000
   1110897.374 8    883954.29145  24937093.627    24937093.2904   24937109.0144
        -0.000          -0.000
 -15229479.395 9  -9716968.28047  22541194.129    22541194.4464   22541204.2704
        -0.000          -0.000
 -15403277.909 9 -11699669.49247  22345873.453    22345872.9744   22345883.5584
        -0.000          -0.000
 99  3 24  1 38  0.0000000  0  8 10 22 17  6 26  5 30 23             0.000000089
  -1605842.693 7   4438136.13752         0.000           0.0004          0.0005
        -0.000          -0.000
  -6365547.532 9  -4710806.69546  23882095.429    23882094.3204   23882104.3934
        -0.000          -0.000
 -21272484.526 9 -16039918.29448  21559434.474    21559433.8844   21559442.0914
        -0.000          -0.000
 -19587984.599 9 -15248820.82749  20251583.274    20251583.2914   20251590.0474
        -0.000          -0.000
  -4530654.645 9  -3518995.57046  22513090.430    22513090.9224   22513101.2434
        -0.000          -0.000
   1215481.479 8    965448.15045  24956995.433    24956994.7724   24957010.8804
        -0.000          -0.000
 -15135464.042 9  -9643709.63147  22559084.666    22559085.0204   22559094.9384
        -0.000          -0.000
 -15484267.266 9 -11762777.92047  22330461.626    22330461.1644   22330471.5344
        -0.000          -0.000
 99  3 24  1 38 30.0000000  0  8 10 22 17  6 26  5 30 23             0.000000093
  -1504478.275 7   4517227.42352         0.000           0.0004          0.0005
        -0.000          -0.000
  -6417527.173 9  -4751310.20746  23872203.651    23872202.6894   23872212.7844
        -0.000          -0.000
 -21309486.249 9 -16068750.76348  21552393.257    21552392.6894   21552400.9474
        -0.000          -0.000
 -19594230.154 9 -15253687.45549  20250394.980    20250394.9234   20250401.5064
        -0.000          -0.000
  -4591806.555 9  -3566646.28646  22501453.725    22501454.2174   22501464.2214
        -0.000          -0.000
   1319905.652 8   1046817.35045  24976866.828    24976866.2754   24976882.3354
        -0.000          -0.000
 -15041271.910 9  -9570313.23147  22577008.914    22577009.3214   22577019.1984
        -0.000          -0.000
 -15564976.298 9 -11825667.91247  22315103.160    22315102.7264   22315112.9144
        -0.000          -0.000
 99  3 24  1 39  0.0000000  0  8 10 22 17  6 26  5 30 23             0.000000108
  -1402973.634 7   4385369.69042         0.000           0.0004          0.0004
        -0.000          -0.000
  -6469040.560 9  -4791450.42446  23862400.704    23862399.8054   23862409.7704
        -0.000          -0.000
 -21346319.148 9 -16097451.66848  21545384.170    21545383.6314   21545391.9264
        -0.000          -0.000
 -19600063.710 9 -15258233.06249  20249284.861    20249284.7724   20249291.3504
        -0.000          -0.000
  -4652567.316 9  -3613992.16646  22489891.429    22489891.8324   22489901.3894
        -0.000          -0.000
   1424203.589 7   1128088.16045  24996713.671    24996713.3854   24996729.9834
        -0.000          -0.000
 -14946877.761 9  -9496759.43147  22594971.751    22594972.0764   22594981.9454
        -0.000          -0.000
 -15645379.864 9 -11888319.87247  22299802.729    22299802.3484   22299812.5704
        -0.000          -0.000
 99  3 24  1 39 30.0000000  0  8 10 22 17  6 26  5 30 23             0.000000120
  -1301357.480 7   4464442.80852         0.000           0.0004          0.0005
        -0.000          -0.000
  -6520096.169 9  -4831233.91646  23852685.055    23852684.0714   23852693.9374
        -0.000          -0.000
 -21382984.839 9 -16126022.28348  21538406.771    21538406.2624   21538414.5894
        -0.000          -0.000
 -19605485.050 9 -15262457.45549  20248253.085    20248253.0864   20248259.7614
        -0.000          -0.000
  -4712938.158 9  -3661034.22946  22478402.993    22478403.4164   22478413.0294
        -0.000          -0.000
   1528377.754 8   1209262.54545  25016537.143    25016537.4214   25016553.7464
        -0.000          -0.000
 -14852284.196 9  -9423050.21647  22612972.435    22612972.7954   22612982.7554
        -0.000          -0.000
 -15725502.883 9 -11950753.22447  22284555.571    22284555.2044   22284565.3734
        -0.000          -0.000
 99  3 24  1 40  0.0000000  0  8 10 22 17  6 26  5 30 23             0.000000119
  -1199659.688 7   4543549.49052         0.000           0.0004          0.0005
        -0.000          -0.000
  -6570682.279 9  -4870651.57346  23843058.927    23843057.8754   23843067.4064
        -0.000          -0.000
 -21419459.671 9 -16154444.16848  21531465.788    21531465.2974   21531473.6424
        -0.000          -0.000
 -19610493.434 9 -15266360.06149  20247300.051    20247300.0164   20247306.6594
        -0.000          -0.000
  -4772917.367 9  -3707771.14346  22466988.987    22466989.5174   22466999.3904
        -0.000          -0.000
   1632436.265 8   1290346.83345  25036339.110    25036339.3614   25036355.7274
        -0.000          -0.000
 -14757492.509 9  -9349186.63947  22631010.794    22631011.2274   22631021.1194
        -0.000          -0.000
 -15805343.022 9 -12012966.15147  22269362.306    22269361.9524   22269371.7934
        -0.000          -0.000
 99  3 24  1 40 30.0000000  0  8 10 22 17  6 26  5 30 23             0.000000115
  -1097879.12016   4411427.83742         0.000           0.0005          0.0004
        -0.000          -0.000
  -6620781.480 9  -4909689.84646  23833525.299    23833524.2454   23833533.5824
        -0.000          -0.000
 -21455724.242 9 -16182702.21348  21524564.772    21524564.2654   21524572.7624
        -0.000          -0.000
 -19615086.637 9 -15269939.15949  20246426.044    20246426.0014   20246432.6094
        -0.000          -0.000
  -4832502.959 9  -3754201.33546  22455650.169    22455650.5674   22455660.6144
        -0.000          -0.000
   1736380.004 8   1371341.64845  25056119.555    25056119.8184   25056135.9644
        -0.000          -0.000
 -14662492.318 9  -9275160.60547  22649089.056    22649089.3914   22649098.9924
        -0.000          -0.000
 -15884896.951 9 -12074956.04547  22254223.673    22254223.2524   22254232.8014
        -0.000          -0.000
 99  3 24  1 41  0.0000000  0  8 10 22 17  6 26  5 30 23             0.000000086
   -996025.05617   4490712.67452         0.000           0.0005          0.0005
        -0.000          -0.000
  -6670414.357 9  -4948364.71346  23824080.041    23824079.0544   23824088.5864
        -0.000          -0.000
 -21491798.819 9 -16210812.21448  21517699.780    21517699.3574   21517707.8914
        -0.000          -0.000
 -19619254.820 9 -15273187.07549  20245632.835    20245632.7804   20245639.3924
        -0.000          -0.000
  -4891713.634 9  -3800339.38246  22444382.782    22444383.0974   22444393.1634
        -0.000          -0.000
   1840197.656 8   1452238.19445  25075875.747    25075876.0024   25075892.0344
        -0.000          -0.000
 -14567303.378 9  -9200987.46547  22667203.128    22667203.4224   22667212.7154
        -0.000          -0.000
 -15964157.128 9 -12136717.04747  22239140.801    22239140.3244   22239149.8984
        -0.000          -0.000
 99  3 24  1 41 30.0000000  0  8 10 22 17  6 26  5 30 23             0.000000057
   -894054.19317   4570053.32152         0.000           0.0005          0.0005
        -0.000          -0.000
  -6719556.822 9  -4986657.42346  23814728.363    23814727.3674   23814737.3094
        -0.000          -0.000
 -21527655.819 9 -16238752.67448  21510876.420    21510875.9804   21510884.2844
        -0.000          -0.000
 -19622948.095 9 -15276064.93149  20244930.032    20244929.9774   20244936.5444
        -0.000          -0.000
  -4950504.114 9  -3846149.99246  22433195.318    22433195.5124   22433205.2544
        -0.000          -0.000
   1943937.141 8   1533073.84045  25095617.086    25095617.2854   25095633.3394
        -0.000          -0.000
 -14471891.920 9  -9126640.94847  22685359.500    22685359.7224   22685368.8964
        -0.000          -0.000
 -16043067.019 9 -12198205.10047  22224124.540    22224124.1394   22224133.8244
        -0.000          -0.000
 99  3 24  1 42  0.0000000  0  8 10 22 17  6 26  5 30 23             0.000000037
   -791947.03716   4437536.26642         0.000           0.0005          0.0004
        -0.000          -0.000
  -6768205.480 9  -5024565.38346  23805470.710    23805469.7964   23805479.9124
        -0.000          -0.000
 -21563302.372 9 -16266529.14648  21504093.238    21504092.7364   21504100.8094
        -0.000          -0.000
 -19626151.682 9 -15278561.20149  20244320.310    20244320.2794   20244326.8474
        -0.000          -0.000
  -5008857.014 9  -3891619.65246  22422091.114    22422091.2404   22422100.8464
        -0.000          -0.000
   2047603.746 8   1613852.69945  25115344.416    25115344.6384   25115360.7014
        -0.000          -0.000
 -14376255.688 9  -9052119.27347  22703558.665    22703558.7934   22703568.0424
        -0.000          -0.000
 -16121579.916 9 -12259383.79847  22209184.018    22209183.5524   22209193.2594
        -0.000          -0.000
 99  3 24  1 42 30.0000000  0  7 22 17  6 26  5 30 23                0.000000050
  -6816493.849 9  -5062192.60446  23796281.604    23796280.7974   23796290.9594
        -0.000          -0.000
 -21598897.150 9 -16294265.27348  21497319.706    21497319.1564   21497327.2464
        -0.000          -0.000
 -19628992.257 9 -15280774.60949  20243779.717    20243779.6934   20243786.2104
        -0.000          -0.000
  -5066919.288 9  -3936862.85046  22411042.061    22411042.2384   22411052.0254
        -0.000          -0.000
   2151053.879 8   1694462.85745  25135030.172    25135030.3524   25135046.9644
        -0.000          -0.000
 -14280538.975 9  -8977534.88747  22721773.127    22721773.1844   22721782.4604
        -0.000          -0.000
 -16199818.333 9 -12320348.62348  22194295.769    22194295.2104   22194304.9954
        -0.000          -0.000
 99  3 24  1 43  0.0000000  0  7 22 17  6 26  5 30 23                0.000000012
  -6864268.730 9  -5099419.70746  23787190.557    23787189.6014   23787199.7514
        -0.000          -0.000
 -21634292.454 9 -16321845.96848  21490583.886    21490583.4594   21490591.5704
        -0.000          -0.000
 -19631305.797 9 -15282577.34349  20243339.394    20243339.3684   20243345.9154
        -0.000          -0.000
  -5124539.236 9  -3981761.39346  22400077.286    22400077.4594   22400087.3374
        -0.000          -0.000
   2254459.197 8   1775038.10045  25154707.338    25154707.4994   25154724.4534
        -0.000          -0.000
 -14184589.352 9  -8902769.04247  22740031.740    22740031.7734   22740041.1574
        -0.000          -0.000
 -16277614.145 9 -12380968.56048  22179491.388    22179490.9384   22179500.8754
        -0.000          -0.000
 99  3 24  1 43 30.0000000  0  7 22 17  6 26  5 30 23               -0.000000017
  -6911529.833 9  -5136246.43746  23778196.933    23778195.8784   23778206.1564
        -0.000          -0.000
 -21669501.106 9 -16349281.21248  21483883.867    21483883.4574   21483891.4674
        -0.000          -0.000
 -19633118.679 9 -15283989.94649  20242994.294    20242994.2674   20243000.9604
        -0.000          -0.000
  -5181728.475 9  -4026324.29746  22389194.454    22389194.6334   22389204.6284
        -0.000          -0.000
   2357805.484 8   1855567.34645  25174373.680    25174373.5844   25174390.9404
        -0.000          -0.000
 -14088419.766 9  -8827831.78147  22758332.116    22758332.2144   22758341.5814
        -0.000          -0.000
 -16354992.022 9 -12441262.84048  22164766.688    22164766.3024   22164776.1504
        -0.000          -0.000
 99  3 24  1 44  0.0000000  0  7 22 17  6 26  5 30 23               -0.000000021
  -6958259.336 9  -5172658.94046  23769304.267    23769303.3534   23769313.8244
        -0.000          -0.000
 -21704518.927 9 -16376567.75548  21477220.444    21477219.9204   21477227.8344
        -0.000          -0.000
 -19634443.266 9 -15285022.07549  20242742.055    20242742.0714   20242748.8664
        -0.000          -0.000
  -5238486.679 9  -4070551.34246  22378393.820    22378394.0104   22378403.8614
        -0.000          -0.000
   2461071.540 8   1936034.06445  25194025.069    25194024.6884   25194042.2864
        -0.000          -0.000
 -13992027.013 9  -8752720.62847  22776674.930    22776675.1364   22776684.4904
        -0.000          -0.000
 -16431966.588 9 -12501242.84948  22150118.947    22150118.4824   22150128.1394
        -0.000          -0.000
 99  3 24  1 44 30.0000000  0  7 22 17  6 26  5 30 23               -0.000000020
  -7004487.912 9  -5208681.14246  23760506.958    23760506.2244   23760516.9244
        -0.000          -0.000
 -21739370.323 9 -16403724.62048  21470588.559    21470587.9614   21470595.9094
        -0.000          -0.000
 -19635317.628 9 -15285703.37549  20242575.635    20242575.6374   20242582.4374
        -0.000          -0.000
  -5294845.242 9  -4114466.98246  22367669.056    22367669.2164   22367678.9344
        -0.000          -0.000
   2564229.686 8   2016416.68845  25213656.114    25213655.5884   25213672.9944
        -0.000          -0.000
 -13895442.234 9  -8677459.84047  22795054.342    22795054.6024   22795063.9464
        -0.000          -0.000
 -16508595.679 9 -12560953.66048  22135536.738    22135536.3774   22135545.9714
        -0.000          -0.000
 99  3 24  1 45  0.0000000  0  7 22 17  6 26  5 30 23               -0.000000005
  -7050219.096 9  -5244315.74246  23751804.482    23751803.8294   23751814.8474
        -0.000          -0.000
 -21774039.023 9 -16430739.12448  21463991.169    21463990.6294   21463998.6434
        -0.000          -0.000
 -19635744.008 9 -15286035.58749  20242494.543    20242494.5434   20242501.2644
        -0.000          -0.000
  -5350784.336 9  -4158055.77446  22357024.004    22357024.1954   22357033.7724
        -0.000          -0.000
   2667283.359 8   2096717.89045  25233267.499    25233266.7024   25233283.8364
        -0.000          -0.000
 -13798657.217 9  -8602043.02247  22813472.089    22813472.2724   22813481.6994
        -0.000          -0.000
 -16584883.212 9 -12620398.32948  22121019.606    22121019.2174   22121028.7804
        -0.000          -0.000
 99  3 24  1 45 30.0000000  0  7 22 17  6 26  5 30 23                0.000000019
  -7095468.886 9  -5279575.24246  23743193.668    23743193.0804   23743204.2324
        -0.000          -0.000
 -21808542.921 9 -16457625.21348  21457425.135    21457424.5654   21457432.5884
        -0.000          -0.000
 -19635747.652 9 -15286038.38749  20242493.874    20242493.8334   20242500.5354
        -0.000          -0.000
  -5406315.646 9  -4201326.81246  22346456.654    22346456.9204   22346466.0454
        -0.000          -0.000
   2770199.158 8   2176911.60745  25252852.265    25252851.5434   25252868.4634
        -0.000          -0.000
 -13701695.374 9  -8526488.41447  22831923.378    22831923.5884   22831933.1664
        -0.000          -0.000
 -16660862.744 9 -12679603.01248  22106561.063    22106560.6674   22106570.2144
        -0.000          -0.000
 99  3 24  1 46  0.0000000  0  7 22 17  6 26  5 30 23                0.000000038
  -7140257.716 9  -5314475.53146  23734670.172    23734669.8014   23734681.2584
        -0.000          -0.000
 -21842891.376 9 -16484390.17948  21450888.614    21450888.1194   21450896.1584
        -0.000          -0.000
 -19635350.025 9 -15285728.51649  20242569.403    20242569.3714   20242576.2134
        -0.000          -0.000
  -5461453.501 9  -4244291.22946  22335964.376    22335964.6234   22335973.3754
        -0.000          -0.000
   2872947.839 8   2256975.06245  25272405.277    25272404.4474   25272421.2254
        -0.000          -0.000
 -13604577.879 9  -8450812.51347  22850404.170    22850404.3944   22850414.1404
        -0.000          -0.000
 -16736534.924 9 -12738568.18548  22092160.971    22092160.5964   22092170.3394
        -0.000          -0.000
 99  3 24  1 46 30.0000000  0  7 22 17  6 26  5 30 23                0.000000043
  -7184591.787 9  -5349021.44846  23726233.243    23726233.0414   23726244.7324
        -0.000          -0.000
 -21877077.758 9 -16511028.85648  21444382.923    21444382.5334   21444390.6134
        -0.000          -0.000
 -19634544.214 9 -15285100.59749  20242722.660    20242722.6754   20242729.5564
        -0.000          -0.000
  -5516195.480 9  -4286947.18347  22325547.355    22325547.4854   22325556.2784
        -0.000          -0.000
   2975532.578 8   2336910.81045  25291927.025    25291926.2524   25291942.4864
        -0.000          -0.000
 -13507309.261 9  -8375018.86647  22868913.609    22868913.8914   22868923.7204
        -0.000          -0.000
 -16811889.835 9 -12797286.14348  22077821.210    22077820.9334   22077830.7464
        -0.000          -0.000
 99  3 24  1 47  0.0000000  0  7 22 17  6 26  5 30 23                0.000000043
  -7228454.018 9  -5383199.70846  23717886.320    23717886.1604   23717897.7114
        -0.000          -0.000
 -21911097.378 9 -16537537.59048  21437909.058    21437908.7244   21437916.8884
        -0.000          -0.000
 -19633312.732 9 -15284140.99749  20242957.107    20242957.0824   20242963.9464
        -0.000          -0.000
  -5570526.759 9  -4329283.13347  22315208.340    22315208.4744   22315217.3464
        -0.000          -0.000
   3077941.146 8   2416709.23045  25311414.904    25311414.0824   25311430.4824
        -0.000          -0.000
 -13409882.184 9  -8299101.77047  22887453.131    22887453.5454   22887463.3324
        -0.000          -0.000
 -16886915.490 9 -12855747.54948  22063544.394    22063544.0464   22063553.5774
        -0.000          -0.000
 99  3 24  1 47 30.0000000  0  8 22 21 17  6 26  5 30 23             0.000000049
  -7271823.866 9  -5416994.30646  23709633.170    23709633.0634   23709644.2454
        -0.000          -0.000
   -753238.811 8   -566946.18952         0.000           0.0004          0.0005
        -0.000          -0.000
 -21944939.424 9 -16563907.94148  21431469.340    21431468.9324   21431476.9144
        -0.000          -0.000
 -19631626.772 9 -15282827.23549  20243277.938    20243277.8904   20243284.8174
        -0.000          -0.000
  -5624428.791 9  -4371284.59847  22304950.930    22304951.1444   22304960.0594
        -0.000          -0.000
   3180192.141 8   2496384.84745  25330872.793    25330872.3914   25330887.9734
        -0.000          -0.000
 -13312278.363 9  -8223046.94147  22906026.668    22906027.0474   22906036.5034
        -0.000          -0.000
 -16961585.141 9 -12913931.55748  22049335.184    22049334.8534   22049344.1194
        -0.000          -0.000
 99  3 24  1 48  0.0000000  0  8 22 21 17  6 26  5 30 23             0.000000053
  -7314709.591 9  -5450411.68646  23701472.536    23701472.2924   23701483.0964
        -0.000          -0.000
   -850176.15118   -378225.31252         0.000           0.0005          0.0005
        -0.000          -0.000
 -21978621.670 9 -16590153.77148  21425059.994    21425059.4304   21425067.1834
        -0.000          -0.000
 -19629487.584 9 -15281160.31349  20243684.902    20243684.8694   20243691.8804
        -0.000          -0.000
  -5677909.854 9  -4412958.02147  22294773.886    22294774.0294   22294782.7934
        -0.000          -0.000
   3282274.772 8   2575929.21845  25350298.856    25350298.3924   25350314.0384
        -0.000          -0.000
 -13214506.976 9  -8146861.53047  22924632.230    22924632.5384   22924641.6264
        -0.000          -0.000
 -17035890.157 9 -12971831.42748  22035195.361    22035195.0124   22035204.0164
        -0.000          -0.000
 99  3 24  1 48 30.0000000  0  8 22 21 17  6 26  5 30 23             0.000000054
  -7357106.823 9  -5483448.42946  23693404.888    23693404.4574   23693414.7154
        -0.000          -0.000
   -947028.860 7   -453690.48542         0.000           0.0004          0.0004
        -0.000          -0.000
 -22012142.087 9 -16616273.51348  21418680.981    21418680.5564   21418688.2894
        -0.000          -0.000
 -19626872.278 9 -15279122.39049  20244182.485    20244182.5044   20244189.4934
        -0.000          -0.000
  -5730962.148 9  -4454297.35647  22284678.290    22284678.4084   22284687.0844
        -0.000          -0.000
   3384207.924 8   2655357.10945  25369696.103    25369696.0534   25369711.9874
        -0.000          -0.000
 -13116551.429 9  -8070532.61547  22943272.555    22943272.8834   22943282.1544
        -0.000          -0.000
 -17109837.774 9 -13029452.80248  22021123.489    22021123.0944   22021131.9654
        -0.000          -0.000
 99  3 24  1 49  0.0000000  0  8 22 21 17  6 26  5 30 23             0.000000051
  -7399017.004 9  -5516105.66346  23685429.654    23685429.2184   23685439.1884
        -0.000          -0.000
  -1043779.779 7   -529054.39552         0.000           0.0004          0.0005
        -0.000          -0.000
 -22045506.554 9 -16642271.74148  21412331.758    21412331.3924   21412339.2254
        -0.000          -0.000
 -19623779.303 9 -15276712.26949  20244771.143    20244771.1364   20244777.9944
        -0.000          -0.000
  -5783580.925 9  -4495298.87647  22274665.050    22274665.2214   22274673.9434
        -0.000          -0.000
   3486006.348 7   2734680.00754  25389067.468    25389068.7194          0.0005
        -0.000          -0.000
 -13018408.759 9  -7994057.88947  22961948.453    22961948.7444   22961958.4344
        -0.000          -0.000
 -17183420.032 9 -13086789.49148  22007120.874    22007120.6284   22007129.4504
        -0.000          -0.000
 99  3 24  1 49 30.0000000  0  8 22 21 17  6 26  5 30 23             0.000000060
  -7440426.161 9  -5548372.44046  23677549.817    23677549.2544   23677559.3264
        -0.000          -0.000
  -1140402.152 8   -604318.10852         0.000           0.0004          0.0005
        -0.000          -0.000
 -22078692.951 9 -16668131.21348  21406016.530    21406016.0944   21406024.0294
        -0.000          -0.000
 -19620203.371 9 -15273925.81249  20245451.745    20245451.7154   20245458.4284
        -0.000          -0.000
  -5835737.127 9  -4535939.94647  22264739.813    22264740.0714   22264748.7224
        -0.000          -0.000
   3587704.58116   2813924.80053         0.000           0.0005          0.0005
        -0.000          -0.000
 -12920067.766 9  -7917428.58647  22980662.006    22980662.3194   22980672.4954
        -0.000          -0.000
 -17256598.261 9 -13143811.35248  21993195.430    21993195.1284   21993203.9834
        -0.000          -0.000
 99  3 24  1 50  0.0000000  0  7 22 21 17  6 26 30 23                0.000000068
  -7481362.796 9  -5580271.03746  23669760.057    23669759.2774   23669769.2594
        -0.000          -0.000
  -1236912.783 8   -414511.42042         0.000           0.0004          0.0004
        -0.000          -0.000
 -22111731.841 9 -16693875.76148  21399729.251    21399728.8864   21399736.8964
        -0.000          -0.000
 -19616204.633 9 -15270809.90649  20246212.675    20246212.6294   20246219.3484
        -0.000          -0.000
  -5887465.106 9  -4576247.33647  22254896.258    22254896.5264   22254905.0294
        -0.000          -0.000
 -12821580.844 9  -7840685.61847  22999403.171    22999403.6744   22999414.2734
        -0.000          -0.000
 -17329406.972 9 -13200545.25748  21979340.066    21979339.7904   21979348.9944
        -0.000          -0.000
 99  3 24  1 50 30.0000000  0  7 22 21 17  6 26 30 23                0.000000071
  -7521832.846 9  -5611806.01446  23662058.876    23662058.0884   23662067.8754
        -0.000          -0.000
  -1333292.048 8   -489613.91752         0.000           0.0004          0.0005
        -0.000          -0.000
 -22144608.911 9 -16719494.19848  21393473.052    21393472.6874   21393480.4414
        -0.000          -0.000
 -19611781.364 9 -15267363.19449  20247054.350    20247054.3364   20247061.0514
        -0.000          -0.000
  -5938753.622 9  -4616212.28547  22245136.447    22245136.6434   22245145.0394
        -0.000          -0.000
 -12722960.549 9  -7763838.71947  23018170.165    23018170.6514   23018181.2214
        -0.000          -0.000
 -17401863.026 9 -13257004.38748  21965551.745    21965551.5854   21965561.0764
        -0.000          -0.000
 99  3 24  1 51  0.0000000  0  7 22 21 17  6 26 30 23                0.000000083
  -7561816.315 9  -5642961.84846  23654450.559    23654449.6644   23654459.1884
        -0.000          -0.000
  -1429549.586 8   -564621.45852         0.000           0.0004          0.0005
        -0.000          -0.000
 -22177311.900 9 -16744976.98648  21387250.133    21387249.6654   21387257.2234
        -0.000          -0.000
 -19606926.103 9 -15263579.85049  20247978.239    20247978.2264   20247984.9044
        -0.000          -0.000
  -5989573.904 9  -4655812.38047  22235465.538    22235465.7184   22235474.0404
        -0.000          -0.000
 -12624226.979 9  -7686903.55447  23036959.078    23036959.3454   23036969.6924
        -0.000          -0.000
 -17473944.532 9 -13313171.66548  21951835.171    21951834.9014   21951844.3124
        -0.000          -0.000
 99  3 24  1 51 30.0000000  0  7 22 21 17  6 26 30 23                0.000000077
  -7601338.766 9  -5673758.43346  23646929.836    23646928.9614   23646938.1644
        -0.000          -0.000
  -1525745.736 8   -375436.66942         0.000           0.0004          0.0004
        -0.000          -0.000
 -22209871.957 9 -16770348.40148  21381054.322    21381053.7844   21381061.3474
        -0.000          -0.000
 -19601670.576 9 -15259484.60949  20248978.353    20248978.3444   20248984.9654
        -0.000          -0.000
  -6039962.536 9  -4695076.15647  22225876.713    22225876.9464   22225885.1224
        -0.000          -0.000
 -12525438.834 9  -7609925.86347  23055758.155    23055758.3304   23055768.3884
        -0.000          -0.000
 -17545696.029 9 -13369081.79148  21938181.405    21938181.1034   21938190.2294
        -0.000          -0.000
 99  3 24  1 52  0.0000000  0  7 22 21 17  6 26 30 23                0.000000066
  -7640364.606 9  -5704168.06346  23639503.368    23639502.5934   23639511.7084
        -0.000          -0.000
  -1621863.893 8   -450333.95152         0.000           0.0004          0.0005
        -0.000          -0.000
 -22242253.437 9 -16795580.67248  21374892.374    21374891.7704   21374899.3814
        -0.000          -0.000
 -19595959.720 9 -15255034.57249  20250065.130    20250065.0924   20250071.6974
        -0.000          -0.000
  -6089896.810 9  -4733985.84447  22216374.445    22216374.7244   22216382.9054
        -0.000          -0.000
 -12426567.289 9  -7532883.16247  23074572.741    23074573.0264   23074583.0664
        -0.000          -0.000
 -17617111.963 9 -13424730.45348  21924591.360    21924591.0424   21924600.0274
        -0.000          -0.000
 99  3 24  1 52 30.0000000  0  7 22 21 17  6 26 30 23                0.000000053
  -7678891.779 9  -5734189.10146  23632171.728    23632170.9794   23632180.3044
        -0.000          -0.000
  -1717915.364 8   -525178.94152         0.000           0.0004          0.0005
        -0.000          -0.000
 -22274448.564 9 -16820667.73448  21368765.689    21368765.1224   21368772.8044
        -0.000          -0.000
 -19589761.427 9 -15250204.70049  20251244.588    20251244.5064   20251251.1934
        -0.000          -0.000
  -6139351.161 9  -4772521.55647  22206963.621    22206963.8994   22206971.9954
        -0.000          -0.000
 -12327597.457 9  -7455763.89347  23093405.777    23093406.1484   23093416.4824
        -0.000          -0.000
 -17688194.006 9 -13480118.93048  21911064.839    21911064.4564   21911073.5434
        -0.000          -0.000
 99  3 24  1 53  0.0000000  0  7 22 21 17  6 26 30 23                0.000000046
  -7716909.835 9  -5763813.46346  23624936.588    23624936.1874   23624945.7464
        -0.000          -0.000
  -1813904.157 8   -336373.30142         0.000           0.0004          0.0004
        -0.000          -0.000
 -22306470.117 9 -16845619.54448  21362672.025    21362671.5304   21362679.3124
        -0.000          -0.000
 -19583085.090 9 -15245002.33849  20252514.895    20252514.8364   20252521.6224
        -0.000          -0.000
  -6188333.827 9  -4810689.73047  22197642.378    22197642.6524   22197650.8614
        -0.000          -0.000
 -12228518.775 9  -7378559.82047  23112259.675    23112260.0954   23112270.6314
        -0.000          -0.000
 -17758931.764 9 -13535239.14648  21897603.666    21897603.4454   21897612.4804
        -0.000          -0.000
 99  3 24  1 53 30.0000000  0  7 22 21 17  6 26 30 23                0.000000032
  -7754436.975 9  -5793055.26946  23617795.364    23617794.7614   23617804.4264
        -0.000          -0.000
  -1909813.919 8   -411107.97052         0.000           0.0004          0.0005
        -0.000          -0.000
 -22338330.003 9 -16870445.37448  21356609.175    21356608.6884   21356616.4964
        -0.000          -0.000
 -19575942.095 9 -15239436.34349  20253874.059    20253874.0354   20253880.8554
        -0.000          -0.000
  -6236874.986 9  -4848513.87947  22188405.264    22188405.5164   22188413.7344
        -0.000          -0.000
 -12129323.066 9  -7301264.54647  23131136.400    23131136.6764   23131147.1034
        -0.000          -0.000
 -17829340.713 9 -13590103.12248  21884205.333    21884204.9714   21884213.8894
        -0.000          -0.000
 99  3 24  1 54  0.0000000  0  7 22 21 17  6 26 30 23                0.000000029
  -7791447.713 9  -5821894.69046  23610752.438    23610751.7074   23610761.3794
        -0.000          -0.000
  -2005596.161 8   -485742.81744         0.000           0.0004   25265765.3904
        -0.000          -0.000
 -22370013.405 9 -16895133.68348  21350579.898    21350579.4424   21350587.2444
        -0.000          -0.000
 -19568306.525 9 -15233486.53149  20255327.136    20255327.0594   20255333.7274
        -0.000          -0.000
  -6284949.344 9  -4885974.29847  22179256.804    22179257.0604   22179265.2504
        -0.000          -0.000
 -12029962.896 9  -7223841.12246  23150044.407    23150044.5574   23150054.8684
        -0.000          -0.000
 -17899387.760 9 -13644685.11448  21870875.679    21870875.3094   21870884.2634
        -0.000          -0.000
 99  3 24  1 54 30.0000000  0  7 22 21 17  6 26 30 23                0.000000011
  -7827990.543 9  -5850369.50946  23603798.780    23603797.9014   23603807.3004
        -0.000          -0.000
  -2101298.601 8   -560315.68645  25247540.058    25247536.7744   25247553.8924
        -0.000          -0.000
 -22401586.511 9 -16919736.03848  21344571.632    21344571.1814   21344578.9394
        -0.000          -0.000
 -19560244.922 9 -15227204.74749  20256861.239    20256861.1374   20256867.7184
        -0.000          -0.000
  -6332606.103 9  -4923109.31147  22170187.964    22170188.2484   22170196.2854
        -0.000          -0.000
 -11930488.327 9  -7146328.54346  23168973.856    23168974.0134   23168984.5304
        -0.000          -0.000
 -17969097.764 9 -13699004.46648  21857610.118    21857609.7524   21857618.7414
        -0.000          -0.000
 99  3 24  1 55  0.0000000  0  7 22 21 17  6 26 30 23                0.000000007
  -7864007.464 9  -5878434.51246  23596945.048    23596944.1454   23596953.5664
        -0.000          -0.000
  -2196861.375 8   -634779.75445  25229354.872    25229352.2634   25229368.8634
        -0.000          -0.000
 -22433001.065 9 -16944214.85948  21338593.642    21338593.1994   21338600.8704
        -0.000          -0.000
 -19551706.465 9 -15220551.39649  20258485.918    20258485.8824   20258492.5774
        -0.000          -0.000
  -6379802.288 9  -4959885.43747  22161206.856    22161207.0564   22161215.1114
        -0.000          -0.000
 -11830853.251 9  -7068690.89546  23187933.676    23187933.9184   23187944.7214
        -0.000          -0.000
 -18038400.185 9 -13753006.22748  21844422.150    21844421.7724   21844430.7814
        -0.000          -0.000
 99  3 24  1 55 30.0000000  0  7 22 21 17  6 26 30 23                0.000000008
  -7899507.107 9  -5906096.46246  23590189.995    23590188.8824   23590198.5094
        -0.000          -0.000
  -2292300.638 8   -709147.55445  25211192.869    25211190.9054   25211207.0864
        -0.000          -0.000
 -22464255.216 9 -16968568.67848  21332646.375    21332645.7774   21332653.4064
        -0.000          -0.000
 -19542686.205 9 -15213522.59949  20260202.486    20260202.4444   20260209.0604
        -0.000          -0.000
  -6426533.386 9  -4996299.13847  22152313.973    22152314.1934   22152322.4294
        -0.000          -0.000
 -11731063.136 9  -6990932.43946  23206923.015    23206923.2324   23206934.2564
        -0.000          -0.000
 -18107299.152 9 -13806693.59948  21831311.044    21831310.6984   21831319.6794
        -0.000          -0.000
 99  3 24  1 56  0.0000000  0  7 22 21 17  6 26 30 23                0.000000019
  -7934501.906 9  -5933365.05446  23583530.540    23583529.4534   23583539.1824
        -0.000          -0.000
  -2387658.697 8   -783452.15045  25193046.099    25193044.5294   25193061.5224
        -0.000          -0.000
 -22495373.499 9 -16992816.63948  21326724.730    21326724.1364   21326731.7624
        -0.000          -0.000
 -19533203.187 9 -15206133.21349  20262007.090    20262006.9754   20262013.5534
        -0.000          -0.000
  -6472791.370 9  -5032344.23447  22143511.284    22143511.3974   22143519.7144
        -0.000          -0.000
 -11631147.174 9  -6913075.93846  23225936.240    23225936.6194   23225947.7974
        -0.000          -0.000
 -18175813.459 9 -13860081.23748  21818273.132    21818272.7944   21818281.7854
        -0.000          -0.000
 99  3 24  1 56 30.0000000  0  7 22 21 17  6 26 30 23                0.000000037
  -7968990.041 9  -5960238.81546  23576967.229    23576966.2564   23576976.3734
        -0.000          -0.000
  -2482940.089 8   -857696.95745  25174913.949    25174912.3024   25174930.3644
        -0.000          -0.000
 -22526332.688 9 -17016940.61948  21320833.368    21320832.8244   21320840.4154
        -0.000          -0.000
 -19523252.456 9 -15198379.39549  20263900.473    20263900.3944   20263907.0524
        -0.000          -0.000
  -6518560.609 9  -5068008.46247  22134801.537    22134801.7754   22134810.0874
        -0.000          -0.000
 -11531128.272 9  -6835139.23146  23244969.035    23244969.4134   23244980.9174
        -0.000          -0.000
 -18243947.839 9 -13913172.81648  21805307.333    21805307.0514   21805316.2134
        -0.000          -0.000
 99  3 24  1 57  0.0000000  0  7 22 21 17  6 26 30 23                0.000000047
  -8002995.118 9  -5986736.17846  23570496.197    23570495.2764   23570505.3314
        -0.000          -0.000
  -2578147.124 8   -931883.84245  25156796.342    25156795.0834   25156813.3004
        -0.000          -0.000
 -22557139.939 9 -17040946.21848  21314970.917    21314970.4234   21314977.9874
        -0.000          -0.000
 -19512851.318 9 -15190274.60949  20265879.725    20265879.7034   20265886.3514
        -0.000          -0.000
  -6563862.923 9  -5103308.84947  22126180.856    22126181.0944   22126189.2054
        -0.000          -0.000
 -11431038.049 9  -6757146.97446  23264015.533    23264016.0764   23264027.5634
        -0.000          -0.000
 -18311739.111 9 -13965997.05348  21792406.729    21792406.5914   21792415.8494
        -0.000          -0.000
 99  3 24  1 57 30.0000000  0  7 22 21 17  6 26 30 23                0.000000049
  -8036509.408 9  -6012851.14746  23564118.718    23564117.7114   23564127.4974
        -0.000          -0.000
  -2673274.978 8  -1006009.02945  25138694.125    25138693.0044   25138711.1114
        -0.000          -0.000
 -22587786.751 9 -17064826.80048  21309139.044    21309138.5304   21309146.0174
        -0.000          -0.000
 -19502001.290 9 -15181820.02949  20267944.455    20267944.4344   20267951.0614
        -0.000          -0.000
  -6608698.366 9  -5138245.45347  22117648.832    22117649.0414   22117657.1414
        -0.000          -0.000
 -11330878.684 9  -6679100.81346  23283075.562    23283076.0024   23283087.2704
        -0.000          -0.000
 -18379187.606 9 -14018554.18448  21779571.770    21779571.5174   21779580.7044
        -0.000          -0.000
 99  3 24  1 58  0.0000000  0  7 22 21 17  6 26 30 23                0.000000054
  -8069502.857 9  -6038560.23746  23557840.373    23557839.2874   23557848.7274
        -0.000          -0.000
  -2768282.127 9  -1080040.17045  25120615.426    25120614.0304   25120631.7504
        -0.000          -0.000
 -22618247.655 9 -17088562.50848  21303342.544    21303342.0334   21303349.3494
        -0.000          -0.000
 -19490675.809 9 -15172994.95849  20270099.585    20270099.5724   20270106.2824
        -0.000          -0.000
  -6653042.366 9  -5172799.12147  22109210.266    22109210.4524   22109218.7454
        -0.000          -0.000
 -11230646.953 9  -6600998.24946  23302149.260    23302149.5874   23302160.6984
        -0.000          -0.000
 -18446264.920 9 -14070822.09248  21766807.411    21766807.1134   21766815.9884
        -0.000          -0.000
 99  3 24  1 58 30.0000000  0  7 22 21 17  6 26 30 23                0.000000059
  -8101968.594 9  -6063858.11846  23551662.320    23551661.3344   23551670.5734
        -0.000          -0.000
  -2863128.200 8  -1153945.72145  25102567.394    25102565.5764   25102582.9574
        -0.000          -0.000
 -22648505.086 9 -17112139.68148  21297584.789    21297584.2794   21297591.5384
        -0.000          -0.000
 -19478863.399 9 -15163790.46049  20272347.300    20272347.3364   20272354.1084
        -0.000          -0.000
  -6696893.122 9  -5206968.43847  22100865.766    22100865.9694   22100874.2434
        -0.000          -0.000
 -11130322.384 9  -6522823.34946  23321240.681    23321240.8914   23321251.9144
        -0.000          -0.000
 -18512937.939 9 -14122774.97148  21754119.828    21754119.6074   21754128.2194
        -0.000          -0.000
 99  3 24  1 59  0.0000000  0  7 22 21 17  6 26 30 23                0.000000054
  -8133924.844 9  -6088759.02046  23545581.541    23545580.2744   23545589.2824
        -0.000          -0.000
  -2957829.584 9  -1227738.53945  25084546.350    25084544.1624   25084561.5924
        -0.000          -0.000
 -22678596.547 9 -17135587.52448  21291858.506    21291857.9844   21291865.3864
        -0.000          -0.000
 -19466587.154 9 -15154224.52249  20274683.412    20274683.4094   20274690.1754
        -0.000          -0.000
  -6740279.242 9  -5240775.68947  22092609.711    22092609.8644   22092618.0884
        -0.000          -0.000
 -11029902.743 9  -6444574.39646  23340349.954    23340350.2014   23340361.2764
        -0.000          -0.000
 -18579211.562 9 -14174416.62548  21741508.206    21741508.0474   21741516.6214
        -0.000          -0.000
 99  3 24  1 59 30.0000000  0  7 22 21 17  6 26 30 23                0.000000048
  -8165354.403 9  -6113249.48146  23539600.427    23539599.1464   23539608.3524
        -0.000          -0.000
  -3052380.764 8  -1301414.30945  25066552.979    25066551.0504   25066568.3034
        -0.000          -0.000
 -22708509.459 9 -17158896.23048  21286166.209    21286165.6844   21286173.0954
        -0.000          -0.000
 -19453822.900 9 -15144278.31449  20277112.351    20277112.3474   20277119.1304
        -0.000          -0.000
  -6783177.105 9  -5274202.48547  22084446.352    22084446.5464   22084454.8074
        -0.000          -0.000
 -10929360.403 9  -6366229.80946  23359482.382    23359482.8274   23359493.9134
        -0.000          -0.000
 -18645058.098 9 -14225725.47848  21728978.132    21728977.8624   21728986.3344
        -0.000          -0.000
 99  3 24  2  0  0.0000000  0  7 22 21 17  6 26 30 23                0.000000022
  -8196306.512 9  -6137367.91346  23533709.603    23533708.5644   23533718.5114
        -0.000          -0.000
  -3146808.288 8  -1374993.70445  25048582.942    25048581.4894   25048598.8324
        -0.000          -0.000
 -22738285.358 9 -17182098.16448  21280499.921    21280499.4174   21280506.7614
        -0.000          -0.000
 -19440596.159 9 -15133971.74049  20279629.265    20279629.2654   20279636.1704
        -0.000          -0.000
  -6825606.115 9  -5307263.94647  22076372.142    22076372.2964   22076380.7134
        -0.000          -0.000
 -10828720.793 9  -6287809.43946  23378633.256    23378633.8784   23378645.1894
        -0.000          -0.000
 -18710515.881 9 -14276731.41048  21716521.855    21716521.5264   21716530.1504
        -0.000          -0.000
 99  3 24  2  0 30.0000000  0  7 22 21 17  6 26 30 23                0.000000020
  -8226724.996 9  -6161070.51546  23527920.566    23527919.6604   23527929.9534
        -0.000          -0.000
  -3241052.371 8  -1448430.17845  25030647.983    25030646.7664   25030664.0424
        -0.000          -0.000
 -22767858.339 9 -17205141.98848  21274872.416    21274871.9234   21274879.1294
        -0.000          -0.000
 -19426849.404 9 -15123259.96549  20282245.245    20282245.2444   20282252.0874
        -0.000          -0.000
  -6867499.004 9  -5339907.67847  22068400.026    22068400.2454   22068408.5194
        -0.000          -0.000
 -10727901.954 9  -6209249.39746  23397818.365    23397819.1164   23397830.4594
        -0.000          -0.000
 -18775521.198 9 -14327384.79148  21704151.384    21704151.2194   21704160.0744
        -0.000          -0.000
 99  3 24  2  1  0.0000000  0  7 22 21 17  6 26 30 23                0.000000025
  -8256643.656 9  -6184383.70946  23522227.037    23522226.1924   23522236.1834
        -0.000          -0.000
  -3335171.887 8  -1521769.58145  25012736.595    25012735.9054   25012753.1824
        -0.000          -0.000
 -22797266.637 9 -17228057.48648  21269276.301    21269275.6874   21269282.9304
        -0.000          -0.000
 -19412619.209 9 -15112171.48949  20284953.185    20284953.1794   20284959.8944
        -0.000          -0.000
  -6908894.891 9  -5372164.11147  22060522.603    22060522.8784   22060530.9814
        -0.000          -0.000
 -10626960.473 9  -6130593.77446  23417027.149    23417027.9384   23417038.9834
        -0.000          -0.000
 -18840144.065 9 -14377740.14948  21691853.943    21691853.7824   21691862.7184
        -0.000          -0.000
 99  3 24  2  1 30.0000000  0  7 22 21 17  6 26 30 23                0.000000018
  -8286097.145 9  -6207334.41146  23516622.371    23516621.5824   23516630.7924
        -0.000          -0.000
  -3429198.899 8  -1595036.91445  24994842.894    24994842.5114   24994859.8364
        -0.000          -0.000
 -22826541.681 9 -17250869.15748  21263705.229    21263704.7134   21263712.0364
        -0.000          -0.000
 -19397927.903 9 -15100723.70349  20287748.835    20287748.7944   20287755.4894
        -0.000          -0.000
  -6949810.361 9  -5404046.16747  22052736.672    22052736.9384   22052744.9124
        -0.000          -0.000
 -10525950.763 9  -6051885.01246  23436249.269    23436249.6824   23436260.6464
        -0.000          -0.000
 -18904438.785 9 -14427839.81048  21679619.286    21679619.0424   21679627.7024
        -0.000          -0.000
 99  3 24  2  2  0.0000000  0  7 22 21 17  6 26 30 23                0.000000022
  -8315052.923 9  -6229897.27046  23511112.393    23511111.4364   23511120.2474
        -0.000          -0.000
  -3523109.950 9  -1668213.89445  24976971.561    24976971.4334   24976988.5064
        -0.000          -0.000
 -22855658.364 9 -17273557.41148  21258164.509    21258164.0394   21258171.2244
        -0.000          -0.000
 -19382770.321 9 -15088912.59949  20290633.174    20290633.1574   20290639.9034
        -0.000          -0.000
  -6990216.105 9  -5435531.06047  22045047.479    22045047.7514   22045055.8024
        -0.000          -0.000
 -10424866.677 9  -5973118.28646  23455485.265    23455485.5844   23455496.3494
        -0.000          -0.000
 -18968386.160 9 -14477668.81148  21667450.575    21667450.1974   21667458.6144
        -0.000          -0.000
 99  3 24  2  2 30.0000000  0  7 22 21 17  6 26 30 23                0.000000028
  -8343523.085 9  -6252081.72646  23505694.490    23505693.6674   23505702.4004
        -0.000          -0.000
  -3616927.948 9  -1741318.37045  24959118.695    24959118.4224   24959135.0514
        -0.000          -0.000
 -22884638.588 9 -17296139.33948  21252649.696    21252649.1584   21252656.3804
        -0.000          -0.000
 -19367188.784 9 -15076771.12749  20293598.283    20293598.2044   20293604.9644
        -0.000          -0.000
  -7030140.773 9  -5466641.09847  22037449.950    22037450.3004   22037458.2134
        -0.000          -0.000
 -10323753.758 9  -5894329.10946  23474726.478    23474726.7554   23474737.6944
        -0.000          -0.000
 -19032019.331 9 -14527252.98648  21655341.281    21655341.0204   21655349.3074
        -0.000          -0.000
 99  3 24  2  3  0.0000000  0  7 22 21 17  6 26 30 23               -0.000000002
  -8371459.257 9  -6273850.07146  23500377.896    23500377.3484   23500386.4164
        -0.000          -0.000
  -3710608.132 8  -1814315.47145  24941291.544    24941291.0954   24941307.6434
        -0.000          -0.000
 -22913446.056 9 -17318586.65448  21247167.614    21247167.1924   21247174.4814
        -0.000          -0.000
 -19351125.957 9 -15064254.61849  20296654.846    20296654.8384   20296661.5674
        -0.000          -0.000
  -7069531.866 9  -5497335.35747  22029954.124    22029954.4504   22029962.3164
        -0.000          -0.000
 -10222594.125 9  -5815503.54046  23493976.549    23493976.8584   23493987.8354
        -0.000          -0.000
 -19095294.318 9 -14576558.04948  21643300.534    21643300.2554   21643308.3874
        -0.000          -0.000
 99  3 24  2  3 30.0000000  0  7 22 21 17  6 26 30 23                0.000000025
  -8398908.762 9  -6295239.21046  23495154.399    23495153.7944   23495163.0764
        -0.000          -0.000
  -3804190.672 8  -1887236.48745  24923482.762    24923482.3134   24923499.1474
        -0.000          -0.000
 -22942130.025 9 -17340937.74848  21241709.105    21241708.6614   21241716.0644
        -0.000          -0.000
 -19334632.262 9 -15051402.37249  20299793.606    20299793.5854   20299800.2184
        -0.000          -0.000
  -7108435.553 9  -5527649.83447  22022551.041    22022551.3454   22022559.1654
        -0.000          -0.000
 -10121440.485 9  -5736682.64846  23513225.632    23513225.6724   23513236.6004
        -0.000          -0.000
 -19158233.212 9 -14625601.21648  21631323.718    21631323.3574   21631331.5514
        -0.000          -0.000
 99  3 24  2  4  0.0000000  0  7 22 21 17  6 26 30 23                0.000000036
  -8425873.419 9  -6316250.53546  23490023.090    23490022.4664   23490032.0314
        -0.000          -0.000
  -3897676.146 8  -1960081.88045  24905692.449    24905691.9994   24905709.0724
        -0.000          -0.000
 -22970688.301 9 -17363190.89648  21236274.497    21236274.1534   21236281.4974
        -0.000          -0.000
 -19317714.849 9 -15038219.95349  20303013.008    20303012.9864   20303019.4694
        -0.000          -0.000
  -7146853.572 9  -5557585.83747  22015240.204    22015240.4274   22015248.4334
        -0.000          -0.000
 -10020296.806 9  -5657869.52746  23532472.310    23532472.5284   23532483.5374
        -0.000          -0.000
 -19220805.780 9 -14674358.94148  21619416.307    21619415.9804   21619424.3074
        -0.000          -0.000
 99  3 24  2  4 30.0000000  0  7 22 21 17  6 26 30 23                0.000000036
  -8452333.193 9  -6336868.46146  23484987.970    23484987.3824   23484997.0674
        -0.000          -0.000
  -3991039.328 8  -2032832.01345  24887925.393    24887925.2994   24887942.1544
        -0.000          -0.000
 -22999108.871 9 -17385336.72848  21230866.377    21230865.9274   21230873.1244
        -0.000          -0.000
 -19300316.236 9 -15024662.59649  20306323.916    20306323.8844   20306330.2664
        -0.000          -0.000
  -7184761.646 9  -5587124.49447  22008026.410    22008026.6704   22008034.6234
        -0.000          -0.000
  -9919138.003 9  -5579044.61246  23551722.046    23551722.4124   23551733.2944
        -0.000          -0.000
 -19282986.019 9 -14722810.96748  21607583.727    21607583.3914   21607591.6494
        -0.000          -0.000
 99  3 24  2  5  0.0000000  0  7 22 21 17  6 26 30 23                0.000000021
  -8478256.148 9  -6357068.06946  23480055.010    23480054.2574   23480064.0564
        -0.000          -0.000
  -4084278.408 8  -2105485.43745  24870181.898    24870182.0124   24870198.9704
        -0.000          -0.000
 -23027368.764 9 -17407357.35648  21225488.644    21225488.2004   21225495.3394
        -0.000          -0.000
 -19282386.788 9 -15010691.58349  20309735.914    20309735.8134   20309742.1914
        -0.000          -0.000
  -7222146.942 9  -5616255.78947  22000912.336    22000912.5354   22000920.1904
        -0.000          -0.000
  -9817935.372 9  -5500185.53346  23570980.403    23570980.7994   23570991.3994
        -0.000          -0.000
 -19344732.900 9 -14770925.30748  21595833.586    21595833.2764   21595841.4244
        -0.000          -0.000
 99  3 24  2  5 30.0000000  0  7 22 21 17  6 26 30 23                0.000000004
  -8503616.879 9  -6376829.60346  23475229.125    23475228.2584   23475238.1454
        -0.000          -0.000
  -4177372.504 8  -2178025.91045  24852465.971    24852466.4164   24852482.7724
        -0.000          -0.000
 -23055444.207 9 -17429234.25648  21220145.939    21220145.4394   21220152.7484
        -0.000          -0.000
 -19263912.076 9 -14996295.68849  20313251.522    20313251.4494   20313257.7564
        -0.000          -0.000
  -7258994.051 9  -5644967.72847  21993900.568    21993900.7004   21993908.1754
        -0.000          -0.000
  -9716650.196 9  -5421262.13346  23590254.541    23590254.9764   23590265.1664
        -0.000          -0.000
 -19406023.341 9 -14818683.97948  21584170.292    21584169.9704   21584177.9954
        -0.000          -0.000
 99  3 24  2  6  0.0000000  0  7 22 21 17  6 26 30 23               -0.000000012
  -8528421.745 9  -6396157.98246  23470509.105    23470508.1354   23470518.1574
        -0.000          -0.000
  -4270311.214 8  -2250445.27745  24834780.588    24834780.3904   24834796.4324
        -0.000          -0.000
 -23083335.021 9 -17450967.29748  21214838.273    21214837.8344   21214845.3524
        -0.000          -0.000
 -19244884.481 9 -14981468.96449  20316872.208    20316872.1724   20316878.4704
        -0.000          -0.000
  -7295299.610 9  -5673257.68247  21986991.644    21986991.8524   21986999.3654
        -0.000          -0.000
  -9615276.910 9  -5342270.06246  23609545.478    23609545.8514   23609555.7804
        -0.000          -0.000
 -19466869.464 9 -14866096.43848  21572591.471    21572591.2464   21572599.2434
        -0.000          -0.000
 99  3 24  2  6 30.0000000  0  7 22 21 17  6 26 30 23               -0.000000019
  -8552666.251 9  -6415049.72546  23465895.692    23465894.6394   23465904.8284
        -0.000          -0.000
  -4363092.485 8  -2322741.95445  24817124.814    24817124.4134   24817140.2034
        -0.000          -0.000
 -23111030.525 9 -17472548.15048  21209567.857    21209567.4624   21209575.0714
        -0.000          -0.000
 -19225308.541 9 -14966214.95349  20320597.379    20320597.3634   20320603.6224
        -0.000          -0.000
  -7331068.070 9  -5701129.12847  21980185.015    21980185.2344   21980192.7814
        -0.000          -0.000
  -9513799.397 9  -5263196.77646  23628856.257    23628856.5534   23628866.4774
        -0.000          -0.000
 -19527291.016 9 -14913178.04948  21561093.645    21561093.3564   21561101.4054
        -0.000          -0.000
 99  3 24  2  7  0.0000000  0  7 22 21 17  6 26 30 23               -0.000000009
  -8576351.387 9  -6433505.60046  23461388.974    23461387.6994   23461397.8324
        -0.000          -0.000
  -4455705.215 9  -2394907.31745  24799501.195    24799500.7024   24799516.3504
        -0.000          -0.000
 -23138510.444 9 -17493961.02048  21204338.522    21204338.1724   21204345.7904
        -0.000          -0.000
 -19205209.260 9 -14950553.15249  20324422.187    20324422.1054   20324428.4444
        -0.000          -0.000
  -7366295.077 9  -5728578.64547  21973481.561    21973481.7854   21973489.2434
        -0.000          -0.000
  -9412215.694 9  -5184040.73946  23648187.238    23648187.5494   23648197.5434
        -0.000          -0.000
 -19587280.973 9 -14959923.36448  21549677.716    21549677.4794   21549685.6264
        -0.000          -0.000
 99  3 24  2  7 30.0000000  0  7 22 21 17  6 26 30 23                0.000000009
  -8599536.564 9  -6451571.91346  23456977.037    23456975.7644   23456985.7864
        -0.000          -0.000
  -4548158.934 9  -2466948.77845  24781908.193    24781907.4624   24781923.0694
        -0.000          -0.000
 -23165818.473 9 -17515239.94448  21199141.862    21199141.4904   21199149.1094
        -0.000          -0.000
 -19184650.120 9 -14934533.03849  20328334.397    20328334.2974   20328340.7934
        -0.000          -0.000
  -7401001.972 9  -5755622.88747  21966876.955    21966877.1574   21966884.6804
        -0.000          -0.000
  -9310560.014 9  -5104828.62746  23667532.390    23667532.4484   23667542.2594
        -0.000          -0.000
 -19646890.005 9 -15006371.85148  21538334.368    21538334.1324   21538342.2754
        -0.000          -0.000
 99  3 24  2  8  0.0000000  0  7 22 21 17  6 26 30 23                0.000000022
  -8622253.664 9  -6469273.47246  23452653.850    23452652.7664   23452662.8184
        -0.000          -0.000
  -4640479.833 9  -2538886.74545  24764340.219    24764339.4954   24764355.1864
        -0.000          -0.000
 -23192977.032 9 -17536402.40248  21193973.554    21193973.2984   21193980.9254
        -0.000          -0.000
 -19163665.802 9 -14918181.60649  20332327.453    20332327.3834   20332334.0624
        -0.000          -0.000
  -7435206.524 9  -5782275.70147  21960367.875    21960368.0744   21960375.7234
        -0.000          -0.000
  -9208871.806 9  -5025591.18546  23686883.255    23686883.3514   23686893.1884
        -0.000          -0.000
 -19706149.376 9 -15052547.87048  21527057.632    21527057.3484   21527065.4274
        -0.000          -0.000
 99  3 24  2  8 30.0000000  0  7 22 21 17  6 26 30 23                0.000000041
  -8644477.926 9  -6486591.01446  23448424.879    23448423.6444   23448433.5784
        -0.000          -0.000
  -4732660.047 8  -2610715.10445  24746798.113    24746797.8204   24746813.7924
        -0.000          -0.000
 -23219978.574 9 -17557442.51048  21188835.378    21188835.1554   21188842.6114
        -0.000          -0.000
 -19142252.013 9 -14901495.53149  20336402.335    20336402.2824   20336409.0554
        -0.000          -0.000
  -7468892.603 9  -5808524.49147  21953957.480    21953957.7514   21953965.4834
        -0.000          -0.000
  -9107149.595 9  -4946327.25846  23706240.411    23706240.4514   23706250.5764
        -0.000          -0.000
 -19765037.536 9 -15098434.65048  21515851.570    21515851.2564   21515859.2144
        -0.000          -0.000
 99  3 24  2  9  0.0000000  0  7 22 21 17  6 26 30 23                0.000000050
  -8666219.909 9  -6503532.75546  23444286.923    23444286.0694   23444296.1264
        -0.000          -0.000
  -4824704.852 8  -2682437.93545  24729281.478    24729281.6254   24729297.9764
        -0.000          -0.000
 -23246854.852 9 -17578385.01448  21183721.085    21183720.7854   21183728.0664
        -0.000          -0.000
 -19120419.750 9 -14884483.35549  20340556.799    20340556.7764   20340563.5584
        -0.000          -0.000
  -7502077.157 9  -5834382.49847  21947642.648    21947642.9334   21947650.5654
        -0.000          -0.000
  -9005432.811 9  -4867067.53946  23725596.333    23725596.5614   23725606.8764
        -0.000          -0.000
 -19823555.071 9 -15144032.63248  21504715.992    21504715.6054   21504723.6414
        -0.000          -0.000
 99  3 24  2  9 30.0000000  0  7 22 21 17  6 26 30 23                0.000000060
  -8687461.594 9  -6520084.61646  23440244.389    23440243.6674   23440253.8514
        -0.000          -0.000
  -4916608.861 8  -2754051.07045  24711792.364    24711792.4424   24711808.7264
        -0.000          -0.000
 -23273605.851 9 -17599229.90248  21178630.589    21178630.2194   21178637.4554
        -0.000          -0.000
 -19098145.747 9 -14867126.98549  20344795.406    20344795.3914   20344802.0784
        -0.000          -0.000
  -7534742.771 9  -5859836.13947  21941426.536    21941426.7974   21941434.4014
        -0.000          -0.000
  -8903723.775 9  -4787813.86746  23744950.889    23744951.1934   23744961.7644
        -0.000          -0.000
 -19881697.108 9 -15189338.01048  21493651.804    21493651.4354   21493659.5784
        -0.000          -0.000
 99  3 24  2 10  0.0000000  0  7 22 21 17  6 26 30 23                0.000000060
  -8708188.897 9  -6536235.69546  23436300.034    23436299.3674   23436309.3054
        -0.000          -0.000
  -5008392.361 8  -2825570.26645  24694326.652    24694326.4454   24694342.3794
        -0.000          -0.000
 -23300217.236 9 -17619965.99348  21173566.560    21173566.2054   21173573.4314
        -0.000          -0.000
 -19075418.705 9 -14849417.58849  20349120.182    20349120.1674   20349126.8284
        -0.000          -0.000
  -7566893.134 9  -5884888.30247  21935308.416    21935308.6224   21935316.1454
        -0.000          -0.000
  -8802036.684 9  -4708577.29146  23764301.409    23764301.7464   23764312.4264
        -0.000          -0.000
 -19939454.306 9 -15234343.49748  21482660.933    21482660.4744   21482668.6524
        -0.000          -0.000
 99  3 24  2 10 30.0000000  0  7 22 21 17  6 26 30 23                0.000000042
  -8728394.371 9  -6551980.13846  23432455.305    23432454.5294   23432464.1964
        -0.000          -0.000
  -5100056.249 8  -2896996.25545  24676883.232    24676882.9004   24676898.9434
        -0.000          -0.000
 -23326692.430 9 -17640595.95948  21168528.395    21168528.0134   21168535.2854
        -0.000          -0.000
 -19052219.381 9 -14831340.17849  20353534.881    20353534.8814   20353541.4104
        -0.000          -0.000
  -7598534.254 9  -5909543.62747  21929287.178    21929287.4104   21929294.8244
        -0.000          -0.000
  -8700363.602 9  -4629351.63746  23783649.410    23783649.5024   23783660.5434
        -0.000          -0.000
 -19996816.512 9 -15279041.21748  21471744.960    21471744.6804   21471752.8514
        -0.000          -0.000
 99  3 24  2 11  0.0000000  0  7 22 21 17  6 26 30 23                0.000000040
  -8748031.036 9  -6567281.34646  23428718.757    23428717.9464   23428727.3694
        -0.000          -0.000
  -5191532.382 8  -2968275.96745  24659475.666    24659475.3714   24659491.2174
        -0.000          -0.000
 -23352965.109 9 -17661068.13348  21163528.734    21163528.3844   21163535.7824
        -0.000          -0.000
 -19028471.152 9 -14812835.04949  20358054.060    20358054.0624   20358060.3994
        -0.000          -0.000
  -7629596.968 9  -5933748.23047  21923376.247    21923376.4624   21923383.7454
        -0.000          -0.000
  -8598628.359 9  -4550077.54846  23803008.887    23803009.1304   23803020.3254
        -0.000          -0.000
 -20053719.212 9 -15323380.87248  21460916.796    21460916.4374   21460924.4214
        -0.000          -0.000
 99  3 24  2 11 30.0000000  0  7 22 21 17  6 26 30 23                0.000000018
  -8767181.822 9  -6582203.94946  23425074.867    23425073.8494   23425083.1144
        -0.000          -0.000
  -5282887.430 9  -3039461.29145  24642091.333    24642090.9864   24642106.5744
        -0.000          -0.000
 -23379083.942 9 -17681420.41348  21158558.539    21158558.1254   21158565.5694
        -0.000          -0.000
 -19004228.815 9 -14793944.91149  20362667.218    20362667.2194   20362673.6064
        -0.000          -0.000
  -7660128.720 9  -5957539.06547  21917566.248    21917566.4054   21917573.5704
        -0.000          -0.000
  -8496881.623 9  -4470794.48046  23822370.446    23822370.7474   23822382.1324
        -0.000          -0.000
 -20110241.698 9 -15367424.27148  21450160.815    21450160.4234   21450168.4624
        -0.000          -0.000
 99  3 24  2 12  0.0000000  0  7 22 21 17  6 26 30 23                0.000000001
  -8785801.363 9  -6596712.60146  23421531.843    23421530.8014   23421539.7644
        -0.000          -0.000
  -5374068.285 9  -3110510.88845  24624740.251    24624739.5884   24624754.9384
        -0.000          -0.000
 -23405000.310 9 -17701614.93848  21153626.853    21153626.3694   21153633.8144
        -0.000          -0.000
 -18979440.017 9 -14774628.96449  20367384.313    20367384.3334   20367390.7524
        -0.000          -0.000
  -7690084.678 9  -5980881.24247  21911865.659    21911865.8214   21911873.0634
        -0.000          -0.000
  -8395061.068 9  -4391453.90146  23841745.842    23841746.2834   23841757.9234
        -0.000          -0.000
 -20166322.569 9 -15411123.54948  21439488.793    21439488.5014   21439496.6814
        -0.000          -0.000
 99  3 24  2 12 30.0000000  0  7 22 21 17  6 26 30 23               -0.000000026
  -8803922.368 9  -6610832.79146  23418083.779    23418082.5894   23418091.0624
        -0.000          -0.000
  -5465081.173 9  -3181429.59045  24607420.739    24607419.9794   24607435.2334
        -0.000          -0.000
 -23430754.877 9 -17721683.38648  21148726.012    21148725.4324   21148732.8464
        -0.000          -0.000
 -18954126.593 9 -14754904.21149  20372201.274    20372201.2794   20372207.7004
        -0.000          -0.000
  -7719491.936 9  -6003795.90047  21906269.465    21906269.6754   21906276.8844
        -0.000          -0.000
  -8293193.945 9  -4312077.02446  23861130.557    23861130.8624   23861142.3034
        -0.000          -0.000
 -20221992.736 9 -15454502.79748  21428895.174    21428894.7954   21428902.9544
        -0.000          -0.000
 99  3 24  2 13  0.0000000  0  7 22 21 17  6 26 30 23               -0.000000036
  -8821521.475 9  -6624546.30246  23414734.529    23414733.3774   23414741.6804
        -0.000          -0.000
  -5555888.572 8  -3252188.18245  24590140.054    24590139.4124   24590154.5554
        -0.000          -0.000
 -23456318.392 9 -17741602.96648  21143861.432    21143860.8504   21143868.1984
        -0.000          -0.000
 -18928276.626 9 -14734761.36349  20377120.356    20377120.3734   20377126.7724
        -0.000          -0.000
  -7748319.667 9  -6026258.96647  21900783.830    21900784.0324   21900791.1094
        -0.000          -0.000
  -8191262.704 9  -4232650.23646  23880527.698    23880527.8934   23880539.0984
        -0.000          -0.000
 -20277238.413 9 -15497551.28448  21418382.136    21418381.7934   21418389.7924
        -0.000          -0.000
 99  3 24  2 13 30.0000000  0  7 22 21 17  6 26 30 23               -0.000000036
  -8838599.380 9  -6637853.69846  23411484.488    23411483.4374   23411491.4374
        -0.000          -0.000
  -5646523.592 8  -3322812.43145  24572892.014    24572891.5934   24572906.4234
        -0.000          -0.000
 -23481711.386 9 -17761389.66548  21139029.244    21139028.6654   21139035.9074
        -0.000          -0.000
 -18901916.510 9 -14714221.00849  20382136.573    20382136.5904   20382142.9384
        -0.000          -0.000
  -7776589.610 9  -6048287.39547  21895404.143    21895404.3174   21895411.4564
        -0.000          -0.000
  -8089301.044 9  -4153199.70746  23899930.881    23899930.9024   23899941.9774
        -0.000          -0.000
 -20332085.008 9 -15540288.79148  21407945.126    21407944.7894   21407952.6884
        -0.000          -0.000
 99  3 24  2 14  0.0000000  0  7 22 21 17  6 26 30 23               -0.000000038
  -8855151.907 9  -6650751.68546  23408334.720    23408333.6284   23408341.4454
        -0.000          -0.000
  -5737000.906 8  -3393313.85345  24555674.185    24555673.9024   24555688.6724
        -0.000          -0.000
 -23506966.051 9 -17781068.58048  21134223.294    21134222.7924   21134230.0044
        -0.000          -0.000
 -18875076.591 9 -14693306.78449  20387244.056    20387244.0254   20387250.4394
        -0.000          -0.000
  -7804330.468 9  -6069903.55048  21890125.074    21890125.3624   21890132.4824
        -0.000          -0.000
  -7987333.939 9  -4073744.92046  23919334.726    23919334.6304   23919345.8404
        -0.000          -0.000
 -20386531.858 9 -15582714.81848  21397584.166    21397583.8714   21397591.6634
        -0.000          -0.000
 99  3 24  2 14 30.0000000  0  7 22 21 17  6 26 30 23               -0.000000028
  -8871175.939 9  -6663237.84546  23405285.386    23405284.2104   23405292.1064
        -0.000          -0.000
  -5827300.509 8  -3463676.79945  24538490.244    24538490.1874   24538504.5014
        -0.000          -0.000
 -23532078.444 9 -17800636.63048  21129444.523    21129444.0304   21129451.2244
        -0.000          -0.000
 -18847760.396 9 -14672021.43449  20392442.146    20392442.1064   20392448.6444
        -0.000          -0.000
  -7831529.128 9  -6091097.19748  21884949.317    21884949.5554   21884956.6724
        -0.000          -0.000
  -7885359.528 9  -3994284.43746  23938739.491    23938739.6064   23938751.1524
        -0.000          -0.000
 -20440588.108 9 -15624836.46548  21387297.672    21387297.3124   21387304.9814
        -0.000          -0.000
 99  3 24  2 15  0.0000000  0  7 22 21 17  6 26 30 23                0.000000002
  -8886664.739 9  -6675306.96346  23402337.696    23402336.5504   23402344.7344
        -0.000          -0.000
  -5917429.558 9  -3533906.85345  24521339.229    24521339.0514   24521353.2474
        -0.000          -0.000
 -23557048.700 9 -17820093.92948  21124692.933    21124692.4004   21124699.4354
        -0.000          -0.000
 -18819975.084 9 -14650370.53949  20397729.442    20397729.3964   20397735.9544
        -0.000          -0.000
  -7858172.987 9  -6111858.54347  21879879.025    21879879.3454   21879886.4404
        -0.000          -0.000
  -7783380.999 9  -3914820.78646  23958145.275    23958145.4214   23958157.0674
        -0.000          -0.000
 -20494245.821 9 -15666647.58348  21377086.941    21377086.5414   21377094.1434
        -0.000          -0.000
 99  3 24  2 15 30.0000000  0  7 22 21 17  6 26 30 23                0.000000006
  -8901676.485 9  -6687004.35646  23399480.639    23399479.6974   23399487.9904
        -0.000          -0.000
  -6007447.989 9  -3604050.69446  24504209.426    24504209.0894   24504223.0754
        -0.000          -0.000
 -23581937.499 9 -17839487.74448  21119956.770    21119956.2194   21119963.2334
        -0.000          -0.000
 -18791767.953 9 -14628390.95449  20403097.032    20403097.0004   20403103.5024
        -0.000          -0.000
  -7884312.174 9  -6132226.63947  21874904.789    21874905.0094   21874912.2494
        -0.000          -0.000
  -7681466.158 9  -3835406.72246  23977539.084    23977539.2744   23977550.9694
        -0.000          -0.000
 -20547548.749 9 -15708182.24048  21366943.675    21366943.3034   21366950.8184
        -0.000          -0.000
 99  3 24  2 16  0.0000000  0  7 22 21 17  6 26 30 23                0.000000017
  -8916170.872 9  -6698298.63446  23396722.256    23396721.4074   23396729.5784
        -0.000          -0.000
  -6097287.436 9  -3674055.05546  24487113.321    24487112.9854   24487126.9464
        -0.000          -0.000
 -23606687.297 9 -17858773.25848  21115246.982    21115246.4294   21115253.5694
        -0.000          -0.000
 -18763086.488 9 -14606041.74149  20408554.919    20408554.8914   20408561.3094
        -0.000          -0.000
  -7909893.601 9  -6152160.13447  21870036.719    21870036.9394   21870044.2124
        -0.000          -0.000
  -7579563.103 9  -3756001.87646  23996930.883    23996931.1394   23996942.3044
        -0.000          -0.000
 -20600446.022 9 -15749400.79448  21356877.496    21356877.0724   21356884.7434
        -0.000          -0.000
 99  3 24  2 16 30.0000000  0  7 22 21 17  6 26 30 23                0.000000049
  -8930132.690 9  -6709177.90146  23394065.144    23394064.3164   23394072.4844
        -0.000          -0.000
  -6186933.995 9  -3743909.12846  24470054.201    24470053.6544   24470067.4464
        -0.000          -0.000
 -23631265.290 9 -17877924.90148  21110569.835    21110569.2674   21110576.5224
        -0.000          -0.000
 -18733893.687 9 -14583294.08249  20414110.170    20414110.1254   20414116.4634
        -0.000          -0.000
  -7934881.922 9  -6171631.46347  21865281.509    21865281.7004   21865288.9654
        -0.000          -0.000
  -7477662.821 9  -3676599.20146  24016322.382    24016322.5854   24016333.2164
        -0.000          -0.000
 -20652925.070 9 -15790293.48148  21346890.926    21346890.4754   21346898.3424
        -0.000          -0.000
 99  3 24  2 17  0.0000000  0  7 22 21 17  6 26 30 23                0.000000046
  -8943621.830 9  -6719688.86846  23391497.977    23391497.3234   23391505.4364
        -0.000          -0.000
  -6276478.094 9  -3813683.35946  24453014.427    24453013.8424   24453027.4754
        -0.000          -0.000
 -23655725.128 9 -17896984.46748  21105915.093    21105914.5704   21105921.8674
        -0.000          -0.000
 -18704247.494 9 -14560193.13649  20419751.686    20419751.5904   20419757.9694
        -0.000          -0.000
  -7959343.174 9  -6190692.07447  21860626.691    21860626.8834   21860633.9774
        -0.000          -0.000
  -7375837.622 9  -3597255.00446  24035699.393    24035699.4614   24035710.0494
        -0.000          -0.000
 -20705038.378 9 -15830901.16348  21336973.979    21336973.5314   21336981.3844
        -0.000          -0.000
 99  3 24  2 17 30.0000000  0  7 22 21 17  6 26 30 23                0.000000049
  -8956581.009 9  -6729786.87846  23389031.911    23389031.2014   23389039.6234
        -0.000          -0.000
  -6365860.477 9  -3883331.58745  24436005.016    24436004.6074   24436017.9644
        -0.000          -0.000
 -23680006.986 9 -17915905.35848  21101294.250    21101293.8184   21101301.0644
        -0.000          -0.000
 -18674089.528 9 -14536693.40049  20425490.508    20425490.4474   20425496.9044
        -0.000          -0.000
  -7983216.490 9  -6209294.54747  21856083.707    21856083.9284   21856090.8774
        -0.000          -0.000
  -7274030.150 9  -3517924.61546  24055072.877    24055072.9004   24055083.7534
        -0.000          -0.000
 -20756734.472 9 -15871183.74748  21327136.504    21327136.0314   21327143.7524
        -0.000          -0.000
 99  3 24  2 18  0.0000000  0  7 22 21 17  6 26 30 23                0.000000045
  -8969030.447 8  -6739487.67446  23386662.302    23386661.8824   23386670.8584
        -0.000          -0.000
  -6455095.442 9  -3952864.93345  24419023.597    24419023.4234   24419036.4974
        -0.000          -0.000
 -23704122.977 9 -17934696.98848  21096705.294    21096704.8154   21096711.8294
        -0.000          -0.000
 -18643442.938 9 -14512812.91849  20431322.409    20431322.3204   20431328.7564
        -0.000          -0.000
  -8006519.575 9  -6227452.71947  21851649.268    21851649.4584   21851656.1804
        -0.000          -0.000
  -7172250.212 9  -3438615.67146  24074441.015    24074440.9414   24074452.0404
        -0.000          -0.000
 -20808023.296 9 -15911148.97548  21317376.511    21317376.0784   21317383.6484
        -0.000          -0.000
 99  3 24  2 18 30.0000000  0  7 22 21 17  6 26 30 23                0.000000040
  -8980965.424 8  -6748787.62946  23384390.603    23384390.3544   23384399.5984
        -0.000          -0.000
  -6544182.448 8  -4022282.99945  24402070.711    24402070.4594   24402083.2634
        -0.000          -0.000
 -23728062.835 9 -17953351.38149  21092149.806    21092149.2494   21092156.2674
        -0.000          -0.000
 -18612297.278 9 -14488543.55249  20437249.063    20437248.9974   20437255.5594
        -0.000          -0.000
  -8029235.229 9  -6245153.15147  21847326.468    21847326.6714   21847333.3844
        -0.000          -0.000
  -7070485.558 9  -3359318.62946  24093806.233    24093806.1464   24093817.4014
        -0.000          -0.000
 -20858887.843 9 -15950783.60648  21307697.194    21307696.7994   21307704.3114
        -0.000          -0.000
 99  3 24  2 19  0.0000000  0  7 22 21 17  6 26 30 23                0.000000034
  -8992398.550 8  -6757696.50146  23382214.310    23382214.2224   23382223.8724
        -0.000          -0.000
  -6633109.362 8  -4091576.29845  24385148.149    24385147.5964   24385160.3184
        -0.000          -0.000
 -23751843.027 9 -17971881.37048  21087624.417    21087623.9724   21087631.0594
        -0.000          -0.000
 -18580668.124 9 -14463897.44549  20443267.878    20443267.8704   20443274.4224
        -0.000          -0.000
  -8051372.077 9  -6262402.55447  21843113.929    21843114.1074   21843120.8344
        -0.000          -0.000
  -6968728.590 8  -3280027.60946  24113169.511    24113169.6894   24113181.1074
        -0.000          -0.000
 -20909334.018 9 -15990092.24048  21298097.325    21298097.0344   21298104.6914
        -0.000          -0.000
 99  3 24  2 19 30.0000000  0  7 22 21 17  6 26 30 23                0.000000031
  -9003324.196 8  -6766209.92946  23380134.798    23380134.7804   23380144.7294
        -0.000          -0.000
  -6721847.664 9  -4160722.61245  24368261.386    24368260.8054   24368273.4364
        -0.000          -0.000
 -23775454.071 9 -17990279.54148  21083131.428    21083130.9424   21083137.9994
        -0.000          -0.000
 -18548546.510 9 -14438867.60449  20449380.494    20449380.4784   20449386.9004
        -0.000          -0.000
  -8072924.138 9  -6279196.29447  21839012.577    21839012.7364   21839019.5254
        -0.000          -0.000
  -6866981.842 8  -3200744.56245  24132531.048    24132531.5274   24132542.6754
        -0.000          -0.000
 -20959352.468 9 -16029067.57748  21288579.141    21288578.8044   21288586.5434
        -0.000          -0.000
 99  3 24  2 20  0.0000000  0  7 22 21 17  6 26 30 23                0.000000020
  -9013756.181 9  -6774338.70946  23378150.205    23378149.9224   23378159.2354
        -0.000          -0.000
  -6810404.637 9  -4229727.63046  24351409.667    24351408.9414   24351421.4204
        -0.000          -0.000
 -23798902.103 9 -18008550.68849  21078669.329    21078668.8614   21078675.9474
        -0.000          -0.000
 -18515936.284 9 -14413457.03249  20455586.031    20455586.0124   20455592.3664
        -0.000          -0.000
  -8093917.064 9  -6295554.32647  21835017.649    21835017.7824   21835024.6624
        -0.000          -0.000
  -6765259.707 8  -3121480.69245  24151888.192    24151888.6164   24151899.5374
        -0.000          -0.000
 -21008966.071 9 -16067727.44048  21279138.078    21279137.6994   21279145.3294
        -0.000          -0.000
 99  3 24  2 20 30.0000000  0  7 22 21 17  6 26 30 23                0.000000021
  -9023666.419 9  -6782060.94946  23376264.806    23376264.3094   23376272.9164
        -0.000          -0.000
  -6898763.720 9  -4298578.47346  24334595.967    24334594.9414   24334607.2674
        -0.000          -0.000
 -23822177.455 9 -18026687.28249  21074240.237    21074239.7284   21074246.8244
        -0.000          -0.000
 -18482822.668 9 -14387654.20549  20461887.392    20461887.3704   20461893.6384
        -0.000          -0.000
  -8114335.760 9  -6311464.90447  21831132.003    21831132.1624   21831139.1154
        -0.000          -0.000
  -6663555.925 8  -3042231.12745  24171241.808    24171242.1584   24171252.9784
        -0.000          -0.000
 -21058178.793 9 -16106074.93048  21269773.315    21269772.8634   21269780.4274
        -0.000          -0.000
 99  3 24  2 21  0.0000000  0  7 22 21 17  6 26 30 23                0.000000027
  -9033056.621 9  -6789377.94246  23374478.246    23374477.6264   23374485.5914
        -0.000          -0.000
  -6986923.729 9  -4367274.18846  24317819.545    24317818.5354   24317830.8674
        -0.000          -0.000
 -23845292.426 9 -18044698.90448  21069841.526    21069840.9934   21069848.1314
        -0.000          -0.000
 -18449221.719 9 -14361471.63849  20468281.575    20468281.4934   20468287.6294
        -0.000          -0.000
  -8134200.740 9  -6326944.02847  21827351.866    21827352.0294   21827359.0474
        -0.000          -0.000
  -6561892.715 8  -2963013.17545  24190587.614    24190587.8364   24190598.9794
        -0.000          -0.000
 -21107004.819 9 -16144121.10048  21260481.997    21260481.5154   21260489.0644
        -0.000          -0.000
 99  3 24  2 21 30.0000000  0  7 22 21 17  6 26 30 23                0.000000017
  -9041945.626 9  -6796304.37546  23372786.722    23372786.1574   23372793.9684
        -0.000          -0.000
  -7074929.737 9  -4435849.90146  24301071.962    24301071.1404   24301083.6794
        -0.000          -0.000
 -23868266.163 9 -18062600.46448  21065469.615    21065469.0994   21065476.2764
        -0.000          -0.000
 -18415160.810 9 -14334930.65749  20474763.179    20474763.0774   20474769.1604
        -0.000          -0.000
  -8153545.626 9  -6342017.88147  21823670.635    21823670.7774   21823677.9084
        -0.000          -0.000
  -6460310.027 8  -2883857.96545  24209917.413    24209917.4554   24209929.7594
        -0.000          -0.000
 -21155480.276 9 -16181894.09348  21251257.444    21251257.0114   21251264.3864
        -0.000          -0.000
 99  3 24  2 22  0.0000000  0  7 22 21 17  6 26 30 23                0.000000019
  -9050306.556 9  -6802819.36046  23371195.613    23371195.0994   23371202.9914
        -0.000          -0.000
  -7162766.092 9  -4504293.43846  24284356.641    24284355.9414   24284368.7374
        -0.000          -0.000
 -23891077.747 9 -18080375.69048  21061128.593    21061128.1244   21061135.3264
        -0.000          -0.000
 -18380620.582 9 -14308016.18049  20481335.841    20481335.7564   20481342.0624
        -0.000          -0.000
  -8172331.767 9  -6356656.34147  21820095.636    21820095.8224   21820102.9124
        -0.000          -0.000
  -6358768.162 8  -2804734.54245  24229239.364    24229239.7774   24229252.8514
        -0.000          -0.000
 -21203578.756 9 -16219373.34048  21242104.732    21242104.1884   21242111.3544
        -0.000          -0.000
 99  3 24  2 22 30.0000000  0  7 22 21 17  6 26 30 23                0.000000019
  -9058158.819 8  -6808937.95646  23369700.633    23369700.4244   23369708.8324
        -0.000          -0.000
  -7250444.304 9  -4572613.73646  24267671.646    24267671.0324   24267683.9014
        -0.000          -0.000
 -23913748.843 9 -18098041.43249  21056814.578    21056814.0714   21056821.1154
        -0.000          -0.000
 -18345628.476 9 -14280749.59949  20487994.490    20487994.4664   20488000.8964
        -0.000          -0.000
  -8190563.088 9  -6370862.49347  21816626.308    21816626.5044   21816633.5024
        -0.000          -0.000
  -6257285.865 8  -2725657.55345  24248550.737    24248551.1784   24248564.5634
        -0.000          -0.000
 -21251288.617 9 -16256549.78448  21233025.582    21233025.1034   21233032.2924
        -0.000          -0.000
 99  3 24  2 23  0.0000000  0  7 22 21 17  6 26 30 23                0.000000017
  -9065498.439 8  -6814657.10046  23368303.383    23368303.2114   23368312.1854
        -0.000          -0.000
  -7337961.889 9  -4640808.88746  24251017.147    24251016.5314   24251029.4184
        -0.000          -0.000
 -23936275.789 9 -18115594.85149  21052528.030    21052527.3994   21052534.3764
        -0.000          -0.000
 -18310177.589 9 -14253125.51649  20494740.627    20494740.5764   20494746.9834
        -0.000          -0.000
  -8208227.697 9  -6384627.04447  21813264.893    21813265.0614   21813272.0094
        -0.000          -0.000
  -6155870.123 9  -2646632.45045  24267849.658    24267850.4064   24267863.4044
        -0.000          -0.000
 -21298595.942 9 -16293412.54748  21224023.262    21224022.7954   21224029.8824
        -0.000          -0.000
 99  3 24  2 23 30.0000000  0  7 22 21 17  6 26 30 23                0.000000023
  -9072312.537 9  -6819966.72446  23367006.377    23367006.3484   23367015.5664
        -0.000          -0.000
  -7425325.475 9  -4708884.01345  24234392.140    24234391.4314   24234404.1284
        -0.000          -0.000
 -23958652.870 9 -18133031.49948  21048269.727    21048269.1764   21048276.1134
        -0.000          -0.000
 -18274256.274 9 -14225134.86949  20501576.202    20501576.1744   20501582.5214
        -0.000          -0.000
  -8225299.855 9  -6397929.92747  21810016.049    21810016.2004   21810023.2144
        -0.000          -0.000
  -6054509.957 9  -2567650.60646  24287138.372    24287139.1424   24287151.8964
        -0.000          -0.000
 -21345487.831 9 -16329951.59648  21215100.070    21215099.5224   21215106.5524
        -0.000          -0.000
 99  3 24  2 24  0.0000000  0  7 22 21 17  6 26 30 23                0.000000031
  -9078608.934 9  -6824872.94146  23365808.464    23365808.3474   23365817.3974
        -0.000          -0.000
  -7512520.969 9  -4776828.16845  24217799.015    24217798.3584   24217810.6884
        -0.000          -0.000
 -23980888.348 9 -18150357.79948  21044038.575    21044037.9964   21044044.7234
        -0.000          -0.000
 -18237866.898 9 -14196779.50149  20508500.941    20508500.8804   20508507.1444
        -0.000          -0.000
  -8241774.664 9  -6410767.33847  21806880.765    21806880.9114   21806888.0304
        -0.000          -0.000
  -5953204.605 9  -2488711.52546  24306416.687    24306417.2574   24306429.9694
        -0.000          -0.000
 -21391942.952 9 -16366150.30349  21206259.799    21206259.3124   21206266.4224
        -0.000          -0.000
 99  3 24  2 24 30.0000000  0  7 22 21 17  6 26 30 23                0.000000028
  -9084399.374 9  -6829384.92046  23364707.352    23364706.8794   23364715.5594
        -0.000          -0.000
  -7599555.685 8  -4844647.04145  24201236.150    24201235.8044   24201247.9584
        -0.000          -0.000
 -24002993.521 9 -18167582.56748  21039832.166    21039831.5284   21039838.0444
        -0.000          -0.000
 -18201008.194 9 -14168058.41149  20515514.916    20515514.8944   20515521.1634
        -0.000          -0.000
  -8257672.548 9  -6423155.20647  21803855.310    21803855.4664   21803862.5664
        -0.000          -0.000
  -5851979.174 9  -2409834.70646  24325679.785    24325680.0714   24325692.7884
        -0.000          -0.000
 -21437982.102 9 -16402024.87149  21197498.748    21197498.2484   21197505.5314
        -0.000          -0.000
 99  3 24  2 25  0.0000000  0  7 22 21 17  6 26 30 23                0.000000026
  -9089658.569 9  -6833482.93146  23363707.233    23363706.4414   23363714.8994
        -0.000          -0.000
  -7686424.562 9  -4912336.69045  24184705.417    24184705.0374   24184716.8594
        -0.000          -0.000
 -24024943.709 9 -18184686.56048  21035655.190    21035654.5794   21035660.9124
        -0.000          -0.000
 -18163644.665 9 -14138943.94749  20522624.924    20522624.8834   20522631.2004
        -0.000          -0.000
  -8272981.695 9  -6435084.30547  21800942.076    21800942.2814   21800949.1524
        -0.000          -0.000
  -5750809.614 9  -2331001.39345  24344931.926    24344932.1144   24344944.9874
        -0.000          -0.000
 -21483602.612 9 -16437573.24549  21188817.224    21188816.7974   21188824.3034
        -0.000          -0.000
 99  3 24  2 25 30.0000000  0  7 22 21 17  6 26 30 23                0.000000019
  -9094393.578 9  -6837172.51546  23362806.662    23362805.6164   23362813.9134
        -0.000          -0.000
  -7773116.818 9  -4979888.71145  24168208.658    24168208.1374   24168219.3074
        -0.000          -0.000
 -24046726.335 9 -18201659.98948  21031510.057    21031509.4294   21031515.7294
        -0.000          -0.000
 -18125773.367 9 -14109433.83549  20529831.468    20529831.4344   20529837.8334
        -0.000          -0.000
  -8287715.327 9  -6446564.95747  21798138.481    21798138.6624   21798145.2804
        -0.000          -0.000
  -5649677.274 9  -2252197.11846  24364177.009    24364177.0714   24364190.1754
        -0.000          -0.000
 -21528795.419 9 -16472788.33249  21180217.330    21180216.8314   21180224.4204
        -0.000          -0.000
 99  3 24  2 26  0.0000000  0  7 22 21 17  6 26 30 23                0.000000006
  -9098595.996 9  -6840447.09246  23362007.032    23362006.0604   23362014.3554
        -0.000          -0.000
  -7859586.685 9  -5047267.45246  24151753.970    24151753.2604   24151764.4564
        -0.000          -0.000
 -24068307.149 9 -18218476.17648  21027403.258    21027402.7024   21027408.9954
        -0.000          -0.000
 -18087358.952 9 -14079500.52049  20537141.361    20537141.3734   20537147.8414
        -0.000          -0.000
  -8301859.811 9  -6457586.54947  21795446.866    21795447.0464   21795453.5134
        -0.000          -0.000
  -5548574.690 9  -2173416.03746  24383416.348    24383416.5304   24383429.5644
        -0.000          -0.000
 -21573539.326 9 -16507653.64149  21171702.732    21171702.2954   21171709.8254
        -0.000          -0.000
 99  3 24  2 26 30.0000000  0  7 22 21 17  6 26 30 23               -0.000000004
  -9102262.845 9  -6843304.32746  23361309.038    23361308.2524   23361316.5914
        -0.000          -0.000
  -7945844.454 9  -5114480.92946  24135339.338    24135338.7134   24135350.0394
        -0.000          -0.000
 -24089680.402 9 -18235130.60449  21023336.072    21023335.4584   21023341.7704
        -0.000          -0.000
 -18048389.441 9 -14049134.65649  20544556.908    20544556.9494   20544563.5404
        -0.000          -0.000
  -8315406.299 9  -6468142.16147  21792869.020    21792869.1904   21792875.6434
        -0.000          -0.000
  -5447506.363 9  -2094661.64746  24402649.441    24402649.7564   24402662.3224
        -0.000          -0.000
 -21617850.623 9 -16542181.83649  21163270.640    21163270.1734   21163277.5344
        -0.000          -0.000
 99  3 24  2 27  0.0000000  0  7 22 21 17  6 26 30 23               -0.000000007
  -9105405.164 9  -6845752.83046  23360711.200    23360710.4664   23360718.4634
        -0.000          -0.000
  -8031887.303 9  -5181526.95246  24118965.871    24118965.1194   24118976.5004
        -0.000          -0.000
 -24110854.992 9 -18251630.24349  21019306.626    21019306.0074   21019312.3564
        -0.000          -0.000
 -18008883.065 9 -14018350.45449  20552074.846    20552074.8654   20552081.3374
        -0.000          -0.000
  -8328355.439 9  -6478232.30447  21790404.880    21790405.0174   21790411.5514
        -0.000          -0.000
  -5346475.570 9  -2015936.49446  24421875.406    24421875.7264   24421887.7754
        -0.000          -0.000
 -21661733.534 9 -16576376.22849  21154919.795    21154919.3554   21154926.7064
        -0.000          -0.000
 99  3 24  2 27 30.0000000  0  7 22 21 17  6 26 30 23               -0.000000015
  -9108053.071 9  -6847816.07746  23360207.608    23360206.5764   23360214.2544
        -0.000          -0.000
  -8117719.971 9  -5248409.22046  24102632.144    24102631.4764   24102642.7374
        -0.000          -0.000
 -24131858.371 9 -18267996.47549  21015309.797    21015309.1544   21015315.5704
        -0.000          -0.000
 -17968872.361 9 -13987173.27449  20559688.677    20559688.6444   20559695.1344
        -0.000          -0.000
  -8340717.249 9  -6487864.79347  21788052.378    21788052.5254   21788059.1594
        -0.000          -0.000
  -5245507.729 9  -1937260.40145  24441089.321    24441089.5754   24441101.0944
        -0.000          -0.000
 -21705207.115 9 -16610251.67149  21146646.991    21146646.5514   21146653.8274
        -0.000          -0.000
 99  3 24  2 28  0.0000000  0  7 22 21 17  6 26 30 23               -0.000000014
  -9110201.382 9  -6849490.01846  23359798.662    23359797.6894   23359805.4444
        -0.000          -0.000
  -8203335.744 9  -5315122.49746  24086339.787    24086339.1554   24086350.2534
        -0.000          -0.000
 -24152702.642 9 -18284238.71549  21011343.221    21011342.6004   21011349.0214
        -0.000          -0.000
 -17928353.474 9 -13955600.11849  20567399.163    20567399.1464   20567405.5904
        -0.000          -0.000
  -8352470.524 9  -6497023.11147  21785815.605    21785815.7444   21785822.3584
        -0.000          -0.000
  -5144603.760 8  -1858634.07345  24460290.895    24460291.0834   24460302.3514
        -0.000          -0.000
 -21748276.776 9 -16643812.37649  21138451.022    21138450.6054   21138457.7314
        -0.000          -0.000
 99  3 24  2 28 30.0000000  0  7 22 21 17  6 26 30 23                0.000000006
  -9111848.734 9  -6850773.62246  23359485.189    23359484.1954   23359491.7644
        -0.000          -0.000
  -8288755.385 9  -5381682.93646  24070084.698    24070084.1374   24070095.1874
        -0.000          -0.000
 -24173412.931 9 -18300376.55249  21007402.170    21007401.4994   21007407.9394
        -0.000          -0.000
 -17887356.534 9 -13923654.45449  20575200.687    20575200.6254   20575207.0314
        -0.000          -0.000
  -8363622.030 9  -6505712.50847  21783693.391    21783693.6134   21783700.2104
        -0.000          -0.000
  -5043751.495 8  -1780048.03845  24479482.409    24479482.7064   24479494.0064
        -0.000          -0.000
 -21790952.642 9 -16677066.22549  21130330.146    21130329.6574   21130336.6614
        -0.000          -0.000
 99  3 24  2 29  0.0000000  0  7 22 21 17  6 26 30 23                0.000000014
  -9113041.031 9  -6851702.64146  23359258.363    23359257.2634   23359264.7284
        -0.000          -0.000
  -8374008.730 9  -5448113.80246  24053861.415    24053860.8584   24053871.6584
        -0.000          -0.000
 -24194032.742 9 -18316443.91149  21003478.092    21003477.5054   21003484.2454
        -0.000          -0.000
 -17845938.707 9 -13891380.83249  20583082.279    20583082.1994   20583088.5764
        -0.000          -0.000
  -8374216.208 9  -6513967.63547  21781677.272    21781677.4994   21781684.1304
        -0.000          -0.000
  -4943004.072 8  -1701543.70145  24498653.855    24498654.5154   24498665.7914
        -0.000          -0.000
 -21833264.951 9 -16710036.78449  21122278.245    21122277.7524   21122284.8544
        -0.000          -0.000
 99  3 24  2 29 30.0000000  0  7 22 21 17  6 26 30 23                0.000000032
  -9113735.819 9  -6852244.00846  23359126.041    23359125.0844   23359132.5224
        -0.000          -0.000
  -8459052.239 9  -5514381.14746  24037678.125    24037677.2244   24037688.0284
        -0.000          -0.000
 -24214509.900 9 -18332400.10549  20999581.321    20999580.7734   20999587.7474
        -0.000          -0.000
 -17804050.299 9 -13858740.52049  20591053.362    20591053.3104   20591059.6294
        -0.000          -0.000
  -8384200.582 9  -6521747.57347  21779777.264    21779777.4744   21779784.2274
        -0.000          -0.000
  -4842327.015 8  -1623094.24645  24517812.085    24517812.9604   24517824.3304
        -0.000          -0.000
 -21875158.464 9 -16742681.00049  21114305.926    21114305.5604   21114312.7134
        -0.000          -0.000
 99  3 24  2 30  0.0000000  0  7 22 21 17  6 26 30 23                0.000000034
  -9113962.181 9  -6852420.32446  23359082.791    23359081.7154   23359089.3594
        -0.000          -0.000
  -8543920.249 8  -5580511.74646  24021527.177    24021526.5354   24021537.8294
        -0.000          -0.000
 -24234859.805 9 -18348257.13349  20995708.792    20995708.2344   20995715.2564
        -0.000          -0.000
 -17761714.519 9 -13825751.60249  20599109.524    20599109.4834   20599115.8384
        -0.000          -0.000
  -8393602.116 9  -6529073.36347  21777988.185    21777988.4324   21777995.1574
        -0.000          -0.000
  -4741760.381 8  -1544730.79445  24536949.675    24536950.4524   24536961.7494
        -0.000          -0.000
 -21916653.619 9 -16775014.82049  21106409.735    21106409.3274   21106416.3204
        -0.000          -0.000
 99  3 24  2 30 30.0000000  0  7 22 21 17  6 26 30 23                0.000000022
  -9113701.000 9  -6852216.76446  23359132.155    23359131.3494   23359138.9114
        -0.000          -0.000
  -8628606.625 9  -5646500.82245  24005410.828    24005410.3824   24005421.9964
        -0.000          -0.000
 -24255053.280 9 -18363992.26248  20991865.952    20991865.4344   20991872.4004
        -0.000          -0.000
 -17718911.340 9 -13792398.45549  20607254.706    20607254.7344   20607261.0674
        -0.000          -0.000
  -8402410.956 9  -6535937.33347  21776311.949    21776312.1534   21776318.8724
        -0.000          -0.000
  -4641296.560 8  -1466447.50845  24556067.594    24556068.2384   24556079.4874
        -0.000          -0.000
 -21957725.891 9 -16807019.12649  21098593.848    21098593.4684   21098600.3274
        -0.000          -0.000
 99  3 24  2 31  0.0000000  0  7 22 21 17  6 26 30 23                0.000000001
  -9112919.413 9  -6851607.68146  23359281.174    23359280.2064   23359287.5904
        -0.000          -0.000
  -8713086.007 9  -5712328.61246  23989334.624    23989334.1704   23989345.6724
        -0.000          -0.000
 -24275062.223 9 -18379583.59949  20988058.356    20988057.8204   20988064.8984
        -0.000          -0.000
 -17675590.168 9 -13758641.67349  20615498.599    20615498.5774   20615504.8534
        -0.000          -0.000
  -8410608.885 9  -6542325.27448  21774751.896    21774752.1134   21774758.7174
        -0.000          -0.000
  -4540927.467 8  -1388237.99645  24575167.359    24575167.7554   24575179.2134
        -0.000          -0.000
 -21998348.385 9 -16838672.94949  21090863.553    21090863.1804   21090870.0964
        -0.000          -0.000
 99  3 24  2 31 30.0000000  0  7 22 21 17  6 26 30 23               -0.000000021
  -9111600.860 9  -6850580.16046  23359532.454    23359531.3824   23359538.5394
        -0.000          -0.000
  -8797365.634 9  -5778000.77146  23973296.376    23973295.9034   23973307.4894
        -0.000          -0.000
 -24294889.016 9 -18395033.01449  20984285.408    20984284.8524   20984292.0974
        -0.000          -0.000
 -17631741.977 9 -13724474.23449  20623842.683    20623842.6114   20623848.8724
        -0.000          -0.000
  -8418201.777 9  -6548241.75248  21773306.892    21773307.1434   21773313.7954
        -0.000          -0.000
  -4440638.885 8  -1310091.19245  24594251.660    24594251.9344   24594263.5684
        -0.000          -0.000
 -22038528.992 9 -16869982.43949  21083217.262    21083216.9034   21083224.0584
        -0.000          -0.000
 99  3 24  2 32  0.0000000  0  7 22 21 17  6 26 30 23               -0.000000026
  -9109714.398 9  -6849110.15046  23359891.889    23359890.7234   23359897.5744
        -0.000          -0.000
  -8881434.093 9  -5843508.40546  23957298.213    23957298.0084   23957309.5814
        -0.000          -0.000
 -24314525.413 9 -18410334.06249  20980548.655    20980548.0994   20980555.3354
        -0.000          -0.000
 -17587355.876 9 -13689887.65649  20632289.072    20632288.9944   20632295.2824
        -0.000          -0.000
  -8425185.755 9  -6553683.74748  21771977.770    21771978.0344   21771984.7104
        -0.000          -0.000
  -4340410.833 8  -1231991.60445  24613324.173    24613324.6304   24613336.4514
        -0.000          -0.000
 -22078266.426 9 -16900946.60949  21075655.411    21075655.0884   21075662.3554
        -0.000          -0.000
 99  3 24  2 32 30.0000000  0  7 22 21 17  6 26 30 23               -0.000000007
  -9107255.273 9  -6847193.88246  23360359.772    23360358.5514   23360365.3554
        -0.000          -0.000
  -8965285.898 9  -5908847.20246  23941341.840    23941341.6844   23941352.7734
        -0.000          -0.000
 -24333987.396 9 -18425499.19949  20976845.101    20976844.5734   20976851.7294
        -0.000          -0.000
 -17542447.333 9 -13654893.97149  20640834.811    20640834.7284   20640841.0814
        -0.000          -0.000
  -8431569.429 9  -6558657.98548  21770762.901    21770763.1944   21770769.7374
        -0.000          -0.000
  -4240250.778 8  -1153945.01545  24632383.886    24632384.5244   24632396.4484
        -0.000          -0.000
 -22117578.280 9 -16931579.15249  21068174.636    21068174.2574   21068181.5404
        -0.000          -0.000
 99  3 24  2 33  0.0000000  0  7 22 21 17  6 26 30 23                0.000000006
  -9104292.367 9  -6844885.06446  23360923.179    23360922.0714   23360928.9914
        -0.000          -0.000
  -9048975.809 9  -5974059.83846  23925416.208    23925415.9104   23925426.9254
        -0.000          -0.000
 -24353338.622 9 -18440578.03948  20973162.542    20973162.0424   20973169.2194
        -0.000          -0.000
 -17497103.916 9 -13619561.42649  20649463.223    20649463.1744   20649469.6914
        -0.000          -0.000
  -8437409.432 9  -6563208.57048  21769651.690    21769651.9144   21769658.3504
        -0.000          -0.000
  -4140235.303 8  -1076011.08645  24651416.011    24651416.7004   24651428.8594
        -0.000          -0.000
 -22156542.769 9 -16961941.00849  21060759.960    21060759.5504   21060766.6924
        -0.000          -0.000
 99  3 24  2 33 30.0000000  0  7 22 21 17  6 26 30 23                0.000000051
  -9100809.223 9  -6842170.84946  23361585.571    23361584.6524   23361591.6554
        -0.000          -0.000
  -9132440.996 9  -6039097.38446  23909532.554    23909532.6354   23909543.7784
        -0.000          -0.000
 -24372524.126 9 -18455527.74149  20969511.746    20969511.2394   20969518.1724
        -0.000          -0.000
 -17451313.052 9 -13583880.23449  20658176.811    20658176.7924   20658183.4634
        -0.000          -0.000
  -8442641.326 9  -6567285.29547  21768656.020    21768656.2134   21768662.6534
        -0.000          -0.000
  -4040321.694 8   -998156.55145  24670428.675    24670429.4974   24670441.9674
        -0.000          -0.000
 -22195121.821 9 -16992002.54249  21053418.593    21053418.1324   21053425.1884
        -0.000          -0.000
 99  3 24  2 34  0.0000000  0  7 22 21 17  6 26 30 23                0.000000074
  -9096906.823 9  -6839129.95146  23362328.192    23362327.2484   23362334.3014
        -0.000          -0.000
  -9215752.308 9  -6104015.03146  23893678.917    23893678.9504   23893689.5244
        -0.000          -0.000
 -24391608.181 9 -18470398.37849  20965880.444    20965879.7844   20965886.5544
        -0.000          -0.000
 -17405152.343 9 -13547910.83149  20666960.856    20666960.8514   20666967.5034
        -0.000          -0.000
  -8447332.710 9  -6570940.82747  21767763.135    21767763.2914   21767769.6794
        -0.000          -0.000
  -3940595.426 8   -920447.94045  24689405.735    24689406.5314   24689419.7294
        -0.000          -0.000
 -22233384.549 9 -17021817.60449  21046137.188    21046136.8824   21046143.8964
        -0.000          -0.000
 99  3 24  2 34 30.0000000  0  7 22 21 17  6 26 30 23                0.000000078
  -9092573.251 9  -6835753.10446  23363152.573    23363151.7474   23363159.1214
        -0.000          -0.000
  -9298870.490 9  -6168782.15646  23877862.531    23877861.9914   23877872.1804
        -0.000          -0.000
 -24410560.374 9 -18485166.29349  20962273.864    20962273.2404   20962280.1584
        -0.000          -0.000
 -17358579.305 9 -13511620.14149  20675823.382    20675823.3654   20675830.0244
        -0.000          -0.000
  -8451441.155 9  -6574142.15147  21766981.379    21766981.4924   21766987.6684
        -0.000          -0.000
  -3841020.282 8   -842857.12245  24708354.333    24708354.9814   24708368.4784
        -0.000          -0.000
 -22271273.097 9 -17051341.08249  21038927.420    21038927.0544   21038933.9004
        -0.000          -0.000
 99  3 24  2 35  0.0000000  0  7 22 21 17  6 26 30 23                0.000000057
  -9087814.604 9  -6832044.99146  23364057.826    23364056.9804   23364065.0274
        -0.000          -0.000
  -9381801.727 9  -6233403.64846  23862080.591    23862080.1274   23862090.7184
        -0.000          -0.000
 -24429367.963 9 -18499821.51649  20958694.868    20958694.3084   20958701.1714
        -0.000          -0.000
 -17311574.734 9 -13474993.20648  20684768.022    20684768.0034   20684774.6284
        -0.000          -0.000
  -8454957.301 9  -6576881.96347  21766312.345    21766312.4654   21766318.3134
        -0.000          -0.000
  -3741582.911 8   -765373.65745  24727276.975    24727277.4824   24727290.9694
        -0.000          -0.000
 -22308765.847 9 -17080556.14449  21031792.636    21031792.2844   21031799.2024
        -0.000          -0.000
 99  3 24  2 35 30.0000000  0  7 22 21 17  6 26 30 23                0.000000034
  -9082578.389 9  -6827964.76946  23365054.040    23365053.0614   23365061.5654
        -0.000          -0.000
  -9464502.429 9  -6297845.52446  23846342.888    23846342.5014   23846353.3164
        -0.000          -0.000
 -24447987.853 9 -18514330.48149  20955151.661    20955151.0514   20955157.8054
        -0.000          -0.000
 -17264058.045 9 -13437967.23248  20693810.040    20693810.0444   20693816.6834
        -0.000          -0.000
  -8457830.693 9  -6579120.91248  21765765.489    21765765.6144   21765771.5434
        -0.000          -0.000
  -3642216.555 8   -687945.54945  24746186.321    24746186.7494   24746199.9274
        -0.000          -0.000
 -22345790.005 9 -17109406.07649  21024746.964    21024746.6614   21024753.6694
        -0.000          -0.000
 99  3 24  2 36  0.0000000  0  7 22 21 17  6 26 30 23               -0.000000009
  -9076854.601 9  -6823504.63846  23366142.991    23366142.1474   23366150.6934
        -0.000          -0.000
  -9547006.542 9  -6362134.22046  23830642.883    23830642.4204   23830653.2794
        -0.000          -0.000
 -24466434.379 9 -18528704.36149  20951641.297    20951640.7514   20951647.3974
        -0.000          -0.000
 -17216011.394 9 -13400528.28349  20702952.955    20702952.9944   20702959.6954
        -0.000          -0.000
  -8460083.185 9  -6580876.03448  21765336.784    21765336.9214   21765343.0144
        -0.000          -0.000
  -3542931.115 8   -610580.45845  24765080.196    24765080.6414   24765093.2024
        -0.000          -0.000
 -22382346.946 9 -17137891.93149  21017790.259    21017789.9674   21017797.0184
        -0.000          -0.000
 99  3 24  2 36 30.0000000  0  7 22 21 17  6 26 30 23               -0.000000042
  -9070600.703 9  -6818631.43646  23367333.276    23367332.5924   23367340.6414
        -0.000          -0.000
  -9629291.599 9  -6426252.20746  23814984.432    23814983.9704   23814994.9224
        -0.000          -0.000
 -24484689.266 9 -18542928.90548  20948167.482    20948166.9164   20948173.4594
        -0.000          -0.000
 -17167416.093 9 -13362661.81149  20712200.371    20712200.4224   20712207.1224
        -0.000          -0.000
  -8461690.955 9  -6582128.77448  21765030.824    21765030.9834   21765037.1784
        -0.000          -0.000
  -3443702.553 8   -533259.72445  24783962.905    24783963.3284   24783975.8634
        -0.000          -0.000
 -22418423.591 9 -17166003.54849  21010925.082    21010924.8094   21010931.7944
        -0.000          -0.000
 99  3 24  2 37  0.0000000  0  7 22 21 17  6 26 30 23               -0.000000048
  -9063796.953 9  -6813329.78546  23368628.159    23368627.3864   23368635.3914
        -0.000          -0.000
  -9711356.615 9  -6490198.72546  23799368.121    23799367.4914   23799378.4884
        -0.000          -0.000
 -24502741.455 9 -18556995.50148  20944732.242    20944731.6644   20944738.1344
        -0.000          -0.000
 -17118274.269 9 -13324369.47548  20721551.772    20721551.8284   20721558.3374
        -0.000          -0.000
  -8462653.925 9  -6582879.07947  21764847.463    21764847.6004   21764853.7554
        -0.000          -0.000
  -3344536.888 8   -455987.98545  24802833.740    24802834.1754   24802846.6084
        -0.000          -0.000
 -22454044.016 9 -17193759.66849  21004146.781    21004146.4924   21004153.4114
        -0.000          -0.000
 99  3 24  2 37 30.0000000  0  7 22 21 17  6 26 30 23                0.000000008
  -9056485.635 9  -6807632.62346  23370019.003    23370018.3334   23370026.7284
        -0.000          -0.000
  -9793241.623 9  -6554004.97446  23783785.494    23783784.8104   23783796.1454
        -0.000          -0.000
 -24520639.014 9 -18570941.61948  20941326.303    20941325.7624   20941332.2654
        -0.000          -0.000
 -17068634.315 9 -13285688.98148  20730998.075    20730998.0984   20731004.4964
        -0.000          -0.000
  -8463022.791 9  -6583166.43847  21764777.063    21764777.2494   21764783.5084
        -0.000          -0.000
  -3245493.231 8   -378811.36145  24821681.655    24821681.9274   24821694.1114
        -0.000          -0.000
 -22489271.092 9 -17221209.27449  20997443.457    20997443.1224   20997449.9944
        -0.000          -0.000
 99  3 24  2 38  0.0000000  0  7 22 21 17  6 26 30 23                0.000000008
  -9048621.240 9  -6801504.49546  23371515.191    23371514.6284   23371523.5564
        -0.000          -0.000
  -9874892.737 9  -6617628.98446  23768246.823    23768246.6354   23768258.0514
        -0.000          -0.000
 -24538331.129 9 -18584727.64849  20937959.630    20937959.0934   20937965.6494
        -0.000          -0.000
 -17018466.944 9 -13246597.50748  20740544.685    20740544.6304   20740550.9744
        -0.000          -0.000
  -8462756.614 9  -6582958.95447  21764827.556    21764827.7434   21764834.0814
        -0.000          -0.000
  -3146532.329 8   -301699.23045  24840513.673    24840513.7904   24840525.4584
        -0.000          -0.000
 -22524081.593 9 -17248334.27149  20990819.407    20990818.9684   20990825.7914
        -0.000          -0.000
 99  3 24  2 38 30.0000000  0  7 22 21 17  6 26 30 23                0.000000027
  -9040261.262 9  -6794990.16446  23373105.690    23373105.1364   23373114.7344
        -0.000          -0.000
  -9956350.183 9  -6681102.08246  23752745.670    23752745.6374   23752756.6864
        -0.000          -0.000
 -24555888.269 9 -18598408.50949  20934618.562    20934618.0464   20934624.6334
        -0.000          -0.000
 -16967851.876 9 -13207157.18248  20750176.404    20750176.3624   20750182.8184
        -0.000          -0.000
  -8461909.055 9  -6582298.45947  21764988.906    21764989.0624   21764995.4474
        -0.000          -0.000
  -3047720.776 8   -224703.42945  24859316.660    24859316.5654   24859328.3294
        -0.000          -0.000
 -22558537.516 9 -17275182.98449  20984262.638    20984262.2084   20984268.9134
        -0.000          -0.000
 99  3 24  2 39  0.0000000  0  7 22 21 17  6 26 30 23                0.000000047
  -9031437.241 9  -6788114.29946  23374784.845    23374784.3724   23374793.6984
        -0.000          -0.000
 -10037631.580 9  -6744437.99846  23737278.204    23737278.1844   23737288.9254
        -0.000          -0.000
 -24573338.898 9 -18612006.36349  20931297.798    20931297.2544   20931303.7514
        -0.000          -0.000
 -16916814.696 9 -13167387.95948  20759888.397    20759888.3794   20759894.9594
        -0.000          -0.000
  -8460502.579 9  -6581202.45047  21765256.505    21765256.6864   21765263.0264
        -0.000          -0.000
  -2949089.163 8   -147847.83045  24878085.494    24878085.4704   24878097.3244
        -0.000          -0.000
 -22592654.606 9 -17301767.66549  20977770.342    20977769.8724   20977776.3694
        -0.000          -0.000
 99  3 24  2 39 30.0000000  0  7 22 21 17  6 26 30 23                0.000000069
  -9022149.191 9  -6780876.82546  23376552.998    23376552.1684   23376560.7674
        -0.000          -0.000
 -10118720.969 9  -6807624.30646  23721847.469    23721847.4574   23721857.6894
        -0.000          -0.000
 -24590671.056 9 -18625511.89649  20927999.508    20927998.9984   20928005.4354
        -0.000          -0.000
 -16865345.089 9 -13127281.77648  20769682.717    20769682.6984   20769689.2434
        -0.000          -0.000
  -8458520.995 9  -6579658.29347  21765633.568    21765633.7354   21765640.1064
        -0.000          -0.000
  -2850629.620 8    -71126.30645  24896821.654    24896821.6404   24896834.1694
        -0.000          -0.000
 -22626406.832 9 -17328068.03749  20971347.298    20971346.8894   20971353.3894
        -0.000          -0.000
 99  3 24  2 40  0.0000000  0  7 22 21 17  6 26 30 23                0.000000094
  -9012402.230 9  -6773281.76946  23378408.362    23378407.2654   23378415.2664
        -0.000          -0.000
 -10199613.139 9  -6870656.96346  23706454.239    23706454.2634   23706464.1774
        -0.000          -0.000
 -24607892.104 9 -18638930.85649  20924722.437    20924721.9364   20924728.3804
        -0.000          -0.000
 -16813455.413 9 -13086848.27048  20779557.050    20779557.0124   20779563.4124
        -0.000          -0.000
  -8455959.419 9  -6577662.18447  21766121.053    21766121.2284   21766127.4944
        -0.000          -0.000
  -2752339.276 8      5463.32145  24915525.600    24915525.6104   24915538.9104
        -0.000          -0.000
 -22659788.657 9 -17354079.80749  20964994.766    20964994.4274   20965001.1074
        -0.000          -0.000
 99  3 24  2 40 30.0000000  0  7 22 21 17  6 26 30 23                0.000000100
  -9002204.216 9  -6765335.21946  23380348.951    23380347.8034   23380355.7334
        -0.000          -0.000
 -10280305.219 9  -6933533.68946  23691099.209    23691098.9544   23691108.8034
        -0.000          -0.000
 -24624991.949 9 -18652255.38249  20921468.494    20921467.9794   20921474.3934
        -0.000          -0.000
 -16761136.539 9 -13046080.29748  20789512.977    20789512.9404   20789519.2874
        -0.000          -0.000
  -8452822.889 9  -6575218.07547  21766717.903    21766718.0644   21766724.3274
        -0.000          -0.000
  -2654225.633 8     81915.22945  24934195.829    24934196.5644   24934209.9054
        -0.000          -0.000
 -22692779.324 9 -17379786.77249  20958716.712    20958716.4534   20958723.2094
        -0.000          -0.000
 99  3 24  2 41  0.0000000  0  7 22 21 17  6 26 30 23                0.000000084
  -8991537.750 9  -6757023.63746  23382378.519    23382377.5474   23382385.5884
        -0.000          -0.000
 -10360767.739 9  -6996231.56546  23675787.501    23675787.2344   23675797.1754
        -0.000          -0.000
 -24641915.523 9 -18665442.53949  20918248.098    20918247.4994   20918253.8184
        -0.000          -0.000
 -16708332.933 9 -13004934.63048  20799561.240    20799561.2034   20799567.5424
        -0.000          -0.000
  -8449087.375 9  -6572307.24247  21767428.781    21767428.9234   21767434.9804
        -0.000          -0.000
  -2556252.900 8    158257.32845  24952839.747    24952840.5784   24952853.6124
        -0.000          -0.000
 -22725340.113 9 -17405158.74749  20952520.531    20952520.2524   20952527.0304
        -0.000          -0.000
 99  3 24  2 41 30.0000000  0  7 22 21 17  6 26 30 23                0.000000065
  -8980359.636 9  -6748313.36546  23384505.710    23384504.7254   23384512.7304
        -0.000          -0.000
 -10440961.091 9  -7058719.70846  23660526.761    23660526.6094   23660536.5874
        -0.000          -0.000
 -24658609.573 9 -18678450.86849  20915071.173    20915070.6384   20915077.0314
        -0.000          -0.000
 -16655002.809 9 -12963378.68048  20809709.661    20809709.5884   20809716.0214
        -0.000          -0.000
  -8444720.281 9  -6568904.25147  21768259.679    21768259.8774   21768265.8714
        -0.000          -0.000
  -2458383.353 8    234519.03345  24971464.292    24971464.8334   24971477.8114
        -0.000          -0.000
 -22757427.898 9 -17430162.15749  20946414.368    20946414.0894   20946420.9074
        -0.000          -0.000
 99  3 24  2 42  0.0000000  0  7 22 21 17  6 26 30 23                0.000000034
  -8968666.016 9  -6739201.42546  23386730.995    23386729.9834   23386737.5944
        -0.000          -0.000
 -10520887.177 9  -7120999.57246  23645317.471    23645317.0584   23645326.7384
        -0.000          -0.000
 -24675074.365 9 -18691280.53649  20911938.083    20911937.5674   20911943.9704
        -0.000          -0.000
 -16601147.288 9 -12921413.31648  20819957.997    20819957.9234   20819964.3784
        -0.000          -0.000
  -8439733.386 9  -6565018.31247  21769208.547    21769208.7514   21769214.7074
        -0.000          -0.000
  -2360607.649 8    310707.58145  24990071.756    24990071.8704   24990084.4794
        -0.000          -0.000
 -22789039.547 9 -17454794.54649  20940398.757    20940398.4744   20940405.3154
        -0.000          -0.000
 99  3 24  2 42 30.0000000  0  7 22 21 17  6 26 30 23               -0.000000001
  -8956436.191 9  -6729671.66846  23389058.444    23389057.3324   23389064.3554
        -0.000          -0.000
 -10600528.559 9  -7183057.56946  23630162.211    23630161.6404   23630171.1414
        -0.000          -0.000
 -24691289.161 9 -18703915.40749  20908852.553    20908852.0134   20908858.4774
        -0.000          -0.000
 -16546742.069 9 -12879019.62948  20830310.932    20830310.8364   20830317.3074
        -0.000          -0.000
  -8434108.757 9  -6560635.43447  21770278.754    21770278.9894   21770284.9514
        -0.000          -0.000
  -2262906.183 8    386838.29245  25008664.842    25008664.7304   25008676.7314
        -0.000          -0.000
 -22820154.131 9 -17479039.61149  20934477.701    20934477.4534   20934484.3824
        -0.000          -0.000
 99  3 24  2 43  0.0000000  0  7 22 21 17  6 26 30 23               -0.000000031
  -8943690.160 9  -6719739.65646  23391483.757    23391482.7544   23391489.4304
        -0.000          -0.000
 -10679909.792 9  -7244912.86646  23615056.040    23615055.7074   23615065.3404
        -0.000          -0.000
 -24707296.308 9 -18716388.47349  20905806.450    20905805.9024   20905812.3914
        -0.000          -0.000
 -16491824.845 9 -12836226.98948  20840761.186    20840761.1714   20840767.5974
        -0.000          -0.000
  -8427858.177 9  -6555764.79147  21771468.170    21771468.3764   21771474.3924
        -0.000          -0.000
  -2165310.047 8    462886.94145  25027236.935    25027237.0854   25027249.4054
        -0.000          -0.000
 -22850815.237 9 -17502931.32149  20928643.014    20928642.7824   20928649.7074
        -0.000          -0.000
 99  3 24  2 43 30.0000000  0  7 22 21 17  6 26 30 23               -0.000000033
  -8930417.962 9  -6709397.62646  23394008.797    23394008.0164   23394014.8404
        -0.000          -0.000
 -10759025.249 9  -7306561.05646  23600000.667    23600000.2414   23600010.1204
        -0.000          -0.000
 -24723111.131 9 -18728711.68849  20902796.970    20902796.3854   20902802.9664
        -0.000          -0.000
 -16436407.473 9 -12793044.62748  20851306.776    20851306.7014   20851313.1454
        -0.000          -0.000
  -8420961.818 9  -6550390.95447  21772780.411    21772780.6884   21772786.6774
        -0.000          -0.000
  -2067806.713 7    538863.32945  25045790.870    25045791.5094   25045804.0204
        -0.000          -0.000
 -22881021.289 9 -17526468.44849  20922894.909    20922894.6624   20922901.6334
        -0.000          -0.000
 99  3 24  2 44  0.0000000  0  7 22 21 17  6 26 30 23               -0.000000030
  -8916672.723 9  -6698687.02646  23396623.948    23396623.4164   23396630.4984
        -0.000          -0.000
 -10837922.607 9  -7368039.32346  23584986.442    23584986.0564   23584996.3994
        -0.000          -0.000
 -24738796.558 9 -18740934.06849  20899812.092    20899811.5124   20899818.1494
        -0.000          -0.000
 -16380528.782 9 -12749502.76648  20861940.076    20861940.0504   20861946.5484
        -0.000          -0.000
  -8413456.988 9  -6544542.95847  21774208.489    21774208.7594   21774214.8344
        -0.000          -0.000
  -1970447.239 8    614727.56445  25064317.326    25064318.1844   25064330.9954
        -0.000          -0.000
 -22910823.617 9 -17549690.98249  20917223.726    20917223.4974   20917230.4764
        -0.000          -0.000
 99  3 24  2 44 30.0000000  0  7 22 21 17  6 26 30 23               -0.000000020
  -8902478.698 9  -6687626.72046  23399324.791    23399324.2954   23399331.5084
        -0.000          -0.000
 -10916628.798 9  -7429368.67146  23570008.233    23570008.3134   23570018.8544
        -0.000          -0.000
 -24754381.504 9 -18753078.14849  20896846.270    20896845.6854   20896852.3064
        -0.000          -0.000
 -16324214.420 9 -12705621.42648  20872656.458    20872656.4104   20872662.8614
        -0.000          -0.000
  -8405353.073 9  -6538228.17347  21775750.665    21775750.8824   21775756.8544
        -0.000          -0.000
  -1873285.036 8    690438.01645  25082807.026    25082807.7934   25082820.3314
        -0.000          -0.000
 -22940257.917 9 -17572626.74749  20911622.810    20911622.4954   20911629.2504
        -0.000          -0.000
 99  3 24  2 45  0.0000000  0  7 22 21 17  6 26 30 23               -0.000000000
  -8887823.453 9  -6676207.02646  23402113.496    23402113.0744   23402120.5284
        -0.000          -0.000
 -10995140.073 9  -7490546.11946  23555067.780    23555068.1454   23555078.2574
        -0.000          -0.000
 -24769842.846 9 -18765125.91149  20893904.070    20893903.4824   20893909.9424
        -0.000          -0.000
 -16267449.911 9 -12661389.34548  20883458.377    20883458.3034   20883464.8894
        -0.000          -0.000
  -8396640.076 9  -6531438.79347  21777408.653    21777408.8834   21777414.7394
        -0.000          -0.000
  -1776314.509 8    765999.10045  25101260.507    25101260.8084   25101272.8494
        -0.000          -0.000
 -22969311.197 9 -17595265.61149  20906094.220    20906093.8334   20906100.4834
        -0.000          -0.000
 99  3 24  2 45 30.0000000  0  7 22 21 17  6 26 30 23                0.000000013
  -8872712.893 9  -6664432.53946  23404989.353    23404988.7634   23404996.0854
        -0.000          -0.000
 -11073464.723 9  -7551578.14046  23540163.710    23540163.8134   23540173.1974
        -0.000          -0.000
 -24785171.315 9 -18777070.13149  20890987.210    20890986.5614   20890992.9484
        -0.000          -0.000
 -16210232.553 9 -12616804.39848  20894346.525    20894346.4754   20894353.0114
        -0.000          -0.000
  -8387322.796 9  -6524178.54747  21779181.618    21779181.8064   21779187.5864
        -0.000          -0.000
  -1679531.535 8    841414.07445  25119678.285    25119678.0794   25119689.7434
        -0.000          -0.000
 -22997972.804 9 -17617599.26249  20900639.938    20900639.5894   20900646.2534
        -0.000          -0.000
 99  3 24  2 46  0.0000000  0  7 22 21 17  6 26 30 23                0.000000027
  -8857132.846 9  -6652292.22046  23407954.210    23407953.4814   23407960.8314
        -0.000          -0.000
 -11151587.440 9  -7612452.81446  23525298.165    23525297.8844   23525306.5564
        -0.000          -0.000
 -24800334.784 9 -18788885.79749  20888101.568    20888100.9594   20888107.3794
        -0.000          -0.000
 -16152540.248 9 -12571849.36048  20905325.024    20905324.9554   20905331.5084
        -0.000          -0.000
  -8377384.769 9  -6516434.57847  21781072.569    21781072.8274   21781078.5634
        -0.000          -0.000
  -1582939.252 8    916680.41045  25138059.479    25138058.9354   25138070.9524
        -0.000          -0.000
 -23026235.881 9 -17639622.38449  20895261.370    20895261.0924   20895267.7674
        -0.000          -0.000
 99  3 24  2 46 30.0000000  0  7 22 21 17  6 26 30 23                0.000000028
  -8841104.428 8  -6639802.51446  23411004.129    23411003.3904   23411010.8564
        -0.000          -0.000
 -11229526.786 9  -7673184.58346  23510466.737    23510466.2954   23510475.0484
        -0.000          -0.000
 -24815335.629 9 -18800574.73649  20885246.884    20885246.3354   20885252.7474
        -0.000          -0.000
 -16094400.014 9 -12526545.29148  20916388.709    20916388.6954   20916395.2314
        -0.000          -0.000
  -8366843.811 9  -6508220.78247  21783078.429    21783078.6694   21783084.4194
        -0.000          -0.000
  -1486553.860 8    991785.57345  25156400.765    25156400.1164   25156412.9654
        -0.000          -0.000
 -23054125.302 9 -17661354.33349  20889954.071    20889953.7664   20889960.5124
        -0.000          -0.000
 99  3 24  2 47  0.0000000  0  7 22 21 17  6 26 30 23                0.000000029
  -8824595.974 8  -6626938.73046  23414144.882    23414144.3374   23414152.3624
        -0.000          -0.000
 -11307239.738 9  -7733739.95646  23495677.785    23495677.4824   23495686.7404
        -0.000          -0.000
 -24830137.019 9 -18812108.24249  20882430.267    20882429.6954   20882436.1704
        -0.000          -0.000
 -16035777.955 9 -12480865.77348  20927544.199    20927544.1234   20927550.5754
        -0.000          -0.000
  -8355676.806 9  -6499519.17547  21785203.303    21785203.5774   21785209.3604
        -0.000          -0.000
  -1390318.994 8   1066773.44545  25174713.151    25174713.3684   25174726.5834
        -0.000          -0.000
 -23081600.571 9 -17682763.57149  20884725.639    20884725.3554   20884732.1074
        -0.000          -0.000
 99  3 24  2 47 30.0000000  0  7 22 21 17  6 26 30 23                0.000000050
  -8807610.582 9  -6613703.34446  23417376.750    23417376.2484   23417384.5664
        -0.000          -0.000
 -11384718.457 9  -7794112.81646  23480933.499    23480933.3994   23480942.9734
        -0.000          -0.000
 -24844750.137 9 -18823495.05849  20879649.353    20879648.8204   20879655.4714
        -0.000          -0.000
 -15976687.218 9 -12434821.04448  20938788.698    20938788.6684   20938795.1604
        -0.000          -0.000
  -8343885.633 9  -6490331.20248  21787447.139    21787447.3944   21787453.2334
        -0.000          -0.000
  -1294244.720 8   1141636.15445  25192995.067    25192995.9224   25193009.6754
        -0.000          -0.000
 -23108681.979 9 -17703865.91649  20879572.331    20879572.0034   20879578.6964
        -0.000          -0.000
 99  3 24  2 48  0.0000000  0  7 22 21 17  6 26 30 23                0.000000046
  -8790227.864 8  -6600158.34246  23420684.630    23420684.0974   23420692.5184
        -0.000          -0.000
 -11462038.768 9  -7854362.22946  23466219.985    23466219.8044   23466229.3304
        -0.000          -0.000
 -24859262.378 9 -18834803.26549  20876887.674    20876887.2124   20876893.8194
        -0.000          -0.000
 -15917211.953 9 -12388476.66848  20950106.518    20950106.4534   20950112.9074
        -0.000          -0.000
  -8331563.235 9  -6480729.29048  21789791.977    21789792.2504   21789798.1304
        -0.000          -0.000
  -1198419.728 8   1216304.57545  25211230.369    25211231.1774   25211244.8604
        -0.000          -0.000
 -23135469.635 9 -17724739.35949  20874474.798    20874474.4624   20874481.1994
        -0.000          -0.000
 99  3 24  2 48 30.0000000  0  7 22 21 17  6 26 30 23                0.000000052
  -8772369.693 9  -6586242.87946  23424083.030    23424082.6654   23424090.9064
        -0.000          -0.000
 -11539128.952 9  -7914432.34046  23451550.484    23451550.2594   23451559.5134
        -0.000          -0.000
 -24873608.192 9 -18845981.76949  20874157.960    20874157.4114   20874163.7104
        -0.000          -0.000
 -15857296.385 9 -12341789.21748  20961507.939    20961507.9004   20961514.3664
        -0.000          -0.000
  -8318654.578 9  -6470670.54848  21792248.544    21792248.7504   21792254.5954
        -0.000          -0.000
  -1102767.132 8   1290838.68945  25229433.199    25229433.5864   25229447.5354
        -0.000          -0.000
 -23161882.716 9 -17745320.92949  20869448.482    20869448.1724   20869454.9044
        -0.000          -0.000
 99  3 24  2 49  0.0000000  0  7 22 21 17  6 26 30 23                0.000000058
  -8754041.368 9  -6571961.03046  23427571.062    23427570.5604   23427578.8364
        -0.000          -0.000
 -11615993.197 9  -7974326.40246  23436923.917    23436923.6454   23436932.6144
        -0.000          -0.000
 -24887796.738 9 -18857037.74449  20871457.934    20871457.3414   20871463.7124
        -0.000          -0.000
 -15796949.087 9 -12294765.36448  20972991.619    20972991.5704   20972998.0094
        -0.000          -0.000
  -8305168.055 9  -6460161.52148  21794815.010    21794815.1734   21794820.9034
        -0.000          -0.000
  -1007292.546 8   1365234.03745  25247602.127    25247602.2884   25247615.9664
        -0.000          -0.000
 -23187914.595 9 -17765605.45849  20864494.709    20864494.3814   20864501.0484
        -0.000          -0.000
 99  3 24  2 49 30.0000000  0  7 22 21 17  6 26 30 23                0.000000064
  -8735237.419 8  -6557308.56646  23431149.304    23431148.8944   23431157.1944
        -0.000          -0.000
 -11692625.112 9  -8034039.41246  23422341.213    23422341.0514   23422349.9424
        -0.000          -0.000
 -24901807.370 9 -18867955.10249  20868791.647    20868791.1074   20868797.7314
        -0.000          -0.000
 -15736160.716 9 -12247397.80548  20984559.183    20984559.2124   20984565.5474
        -0.000          -0.000
  -8291084.554 9  -6449187.31147  21797494.939    21797495.0794   21797500.8974
        -0.000          -0.000
   -911989.659 8   1439495.62645  25265737.974    25265737.8534   25265751.7244
        -0.000          -0.000
 -23213548.188 9 -17785579.63149  20859616.707    20859616.4084   20859622.9324
        -0.000          -0.000
